<?xml version="1.0" encoding="UTF-8" standalone="no" ?>
<gpx xmlns="http://www.topografix.com/GPX/1/1" xmlns:xsi="http://www.w3.org/2001/XMLSchema-instance" xsi:schemaLocation="http://www.topografix.com/GPX/1/1 http://www.topografix.com/GPX/1/1/gpx.xsd" version="1.1" creator="VisuGPX - https://www.visugpx.com">
  <metadata>
    <name>boue roger 45 km</name>
    <desc><![CDATA[trace officielle du 45 km. Parcours superbe!!!]]></desc>
  </metadata>
  <trk>
    <name><![CDATA[BR 45 km 2019]]></name>
    <trkseg>
      <trkpt lat="49.28994" lon="0.9234">
        <ele>144</ele>
        <time>2019-01-10T08:12:35Z</time>
      </trkpt>
      <trkpt lat="49.2897" lon="0.92301">
        <ele>145</ele>
      </trkpt>
      <trkpt lat="49.29023" lon="0.92255">
        <ele>144</ele>
      </trkpt>
      <trkpt lat="49.29068" lon="0.92216">
        <ele>143</ele>
      </trkpt>
      <trkpt lat="49.2917" lon="0.9216">
        <ele>142</ele>
      </trkpt>
      <trkpt lat="49.29236" lon="0.92125">
        <ele>141</ele>
      </trkpt>
      <trkpt lat="49.29415" lon="0.9208">
        <ele>139</ele>
      </trkpt>
      <trkpt lat="49.29564" lon="0.92009">
        <ele>136</ele>
      </trkpt>
      <trkpt lat="49.29632" lon="0.91993">
        <ele>135</ele>
      </trkpt>
      <trkpt lat="49.2977" lon="0.91989">
        <ele>133</ele>
        <time>2019-01-10T08:12:45Z</time>
      </trkpt>
      <trkpt lat="49.29876" lon="0.91946">
        <ele>131</ele>
        <time>2019-01-10T08:12:54Z</time>
      </trkpt>
      <trkpt lat="49.29949" lon="0.9191">
        <ele>131</ele>
        <time>2019-01-10T08:13:01Z</time>
      </trkpt>
      <trkpt lat="49.29965" lon="0.91905">
        <ele>130</ele>
        <time>2019-01-10T08:13:03Z</time>
      </trkpt>
      <trkpt lat="49.2997" lon="0.91905">
        <ele>130</ele>
        <time>2019-01-10T08:13:04Z</time>
      </trkpt>
      <trkpt lat="49.29979" lon="0.91909">
        <ele>131</ele>
        <time>2019-01-10T08:13:06Z</time>
      </trkpt>
      <trkpt lat="49.29982" lon="0.91913">
        <ele>131</ele>
        <time>2019-01-10T08:13:07Z</time>
      </trkpt>
      <trkpt lat="49.29985" lon="0.91921">
        <ele>131</ele>
        <time>2019-01-10T08:13:08Z</time>
      </trkpt>
      <trkpt lat="49.29987" lon="0.91937">
        <ele>131</ele>
        <time>2019-01-10T08:13:10Z</time>
      </trkpt>
      <trkpt lat="49.29988" lon="0.91941">
        <ele>131</ele>
        <time>2019-01-10T08:13:11Z</time>
      </trkpt>
      <trkpt lat="49.29994" lon="0.91945">
        <ele>131</ele>
        <time>2019-01-10T08:13:14Z</time>
      </trkpt>
      <trkpt lat="49.30022" lon="0.91933">
        <ele>131</ele>
        <time>2019-01-10T08:18:52Z</time>
      </trkpt>
      <trkpt lat="49.30046" lon="0.91926">
        <ele>131</ele>
        <time>2019-01-10T08:18:58Z</time>
      </trkpt>
      <trkpt lat="49.30084" lon="0.91914">
        <ele>132</ele>
        <time>2019-01-10T08:19:07Z</time>
      </trkpt>
      <trkpt lat="49.30123" lon="0.91903">
        <ele>132</ele>
        <time>2019-01-10T08:19:16Z</time>
      </trkpt>
      <trkpt lat="49.30127" lon="0.91902">
        <ele>132</ele>
        <time>2019-01-10T08:19:17Z</time>
      </trkpt>
      <trkpt lat="49.30131" lon="0.91901">
        <ele>132</ele>
        <time>2019-01-10T08:19:18Z</time>
      </trkpt>
      <trkpt lat="49.3017" lon="0.9189">
        <ele>132</ele>
        <time>2019-01-10T08:19:27Z</time>
      </trkpt>
      <trkpt lat="49.30206" lon="0.91879">
        <ele>132</ele>
        <time>2019-01-10T08:19:35Z</time>
      </trkpt>
      <trkpt lat="49.3024" lon="0.9187">
        <ele>132</ele>
        <time>2019-01-10T08:19:43Z</time>
      </trkpt>
      <trkpt lat="49.30284" lon="0.91858">
        <ele>133</ele>
        <time>2019-01-10T08:19:52Z</time>
      </trkpt>
      <trkpt lat="49.30325" lon="0.91845">
        <ele>133</ele>
        <time>2019-01-10T08:20:01Z</time>
      </trkpt>
      <trkpt lat="49.3033" lon="0.91843">
        <ele>132</ele>
        <time>2019-01-10T08:20:02Z</time>
      </trkpt>
      <trkpt lat="49.30334" lon="0.91842">
        <ele>132</ele>
        <time>2019-01-10T08:20:03Z</time>
      </trkpt>
      <trkpt lat="49.30338" lon="0.91841">
        <ele>132</ele>
        <time>2019-01-10T08:20:04Z</time>
      </trkpt>
      <trkpt lat="49.30343" lon="0.91839">
        <ele>132</ele>
        <time>2019-01-10T08:20:05Z</time>
      </trkpt>
      <trkpt lat="49.30348" lon="0.91838">
        <ele>132</ele>
        <time>2019-01-10T08:20:06Z</time>
      </trkpt>
      <trkpt lat="49.30362" lon="0.91834">
        <ele>132</ele>
        <time>2019-01-10T08:20:09Z</time>
      </trkpt>
      <trkpt lat="49.30407" lon="0.91822">
        <ele>132</ele>
        <time>2019-01-10T08:20:18Z</time>
      </trkpt>
      <trkpt lat="49.30436" lon="0.91813">
        <ele>132</ele>
        <time>2019-01-10T08:20:24Z</time>
      </trkpt>
      <trkpt lat="49.30441" lon="0.91811">
        <ele>132</ele>
        <time>2019-01-10T08:20:25Z</time>
      </trkpt>
      <trkpt lat="49.30446" lon="0.9181">
        <ele>132</ele>
        <time>2019-01-10T08:20:26Z</time>
      </trkpt>
      <trkpt lat="49.30491" lon="0.91797">
        <ele>131</ele>
        <time>2019-01-10T08:20:35Z</time>
      </trkpt>
      <trkpt lat="49.3051" lon="0.91791">
        <ele>131</ele>
        <time>2019-01-10T08:20:39Z</time>
      </trkpt>
      <trkpt lat="49.30556" lon="0.91778">
        <ele>130</ele>
        <time>2019-01-10T08:20:48Z</time>
      </trkpt>
      <trkpt lat="49.30606" lon="0.91764">
        <ele>129</ele>
        <time>2019-01-10T08:20:58Z</time>
      </trkpt>
      <trkpt lat="49.30617" lon="0.91762">
        <ele>129</ele>
        <time>2019-01-10T08:21:01Z</time>
      </trkpt>
      <trkpt lat="49.30621" lon="0.91761">
        <ele>129</ele>
        <time>2019-01-10T08:21:02Z</time>
      </trkpt>
      <trkpt lat="49.30626" lon="0.91759">
        <ele>129</ele>
        <time>2019-01-10T08:21:03Z</time>
      </trkpt>
      <trkpt lat="49.30631" lon="0.91757">
        <ele>129</ele>
        <time>2019-01-10T08:21:04Z</time>
      </trkpt>
      <trkpt lat="49.30636" lon="0.91756">
        <ele>129</ele>
        <time>2019-01-10T08:21:05Z</time>
      </trkpt>
      <trkpt lat="49.3064" lon="0.91755">
        <ele>129</ele>
        <time>2019-01-10T08:21:06Z</time>
      </trkpt>
      <trkpt lat="49.3069" lon="0.91741">
        <ele>128</ele>
        <time>2019-01-10T08:21:16Z</time>
      </trkpt>
      <trkpt lat="49.30742" lon="0.91725">
        <ele>127</ele>
        <time>2019-01-10T08:21:26Z</time>
      </trkpt>
      <trkpt lat="49.30796" lon="0.91709">
        <ele>127</ele>
        <time>2019-01-10T08:21:36Z</time>
      </trkpt>
      <trkpt lat="49.30844" lon="0.91696">
        <ele>125</ele>
        <time>2019-01-10T08:21:45Z</time>
      </trkpt>
      <trkpt lat="49.30849" lon="0.91695">
        <ele>125</ele>
        <time>2019-01-10T08:21:46Z</time>
      </trkpt>
      <trkpt lat="49.30873" lon="0.91687">
        <ele>124</ele>
        <time>2019-01-10T08:21:51Z</time>
      </trkpt>
      <trkpt lat="49.30912" lon="0.91678">
        <ele>122</ele>
        <time>2019-01-10T08:21:58Z</time>
      </trkpt>
      <trkpt lat="49.30965" lon="0.91663">
        <ele>119</ele>
        <time>2019-01-10T08:22:07Z</time>
      </trkpt>
      <trkpt lat="49.31004" lon="0.91651">
        <ele>118</ele>
        <time>2019-01-10T08:22:14Z</time>
      </trkpt>
      <trkpt lat="49.31016" lon="0.91647">
        <ele>118</ele>
        <time>2019-01-10T08:22:16Z</time>
      </trkpt>
      <trkpt lat="49.3102" lon="0.91645">
        <ele>118</ele>
        <time>2019-01-10T08:22:17Z</time>
      </trkpt>
      <trkpt lat="49.31024" lon="0.91642">
        <ele>118</ele>
        <time>2019-01-10T08:22:18Z</time>
      </trkpt>
      <trkpt lat="49.31026" lon="0.91638">
        <ele>118</ele>
        <time>2019-01-10T08:22:19Z</time>
      </trkpt>
      <trkpt lat="49.31028" lon="0.91634">
        <ele>118</ele>
        <time>2019-01-10T08:22:20Z</time>
      </trkpt>
      <trkpt lat="49.3103" lon="0.9163">
        <ele>119</ele>
        <time>2019-01-10T08:22:21Z</time>
      </trkpt>
      <trkpt lat="49.31033" lon="0.91627">
        <ele>119</ele>
        <time>2019-01-10T08:22:22Z</time>
      </trkpt>
      <trkpt lat="49.31036" lon="0.91624">
        <ele>119</ele>
        <time>2019-01-10T08:22:23Z</time>
      </trkpt>
      <trkpt lat="49.31037" lon="0.91621">
        <ele>119</ele>
        <time>2019-01-10T08:22:24Z</time>
      </trkpt>
      <trkpt lat="49.31038" lon="0.91617">
        <ele>119</ele>
        <time>2019-01-10T08:22:25Z</time>
      </trkpt>
      <trkpt lat="49.31037" lon="0.91612">
        <ele>119</ele>
        <time>2019-01-10T08:22:26Z</time>
      </trkpt>
      <trkpt lat="49.31034" lon="0.91605">
        <ele>119</ele>
        <time>2019-01-10T08:22:27Z</time>
      </trkpt>
      <trkpt lat="49.31033" lon="0.91601">
        <ele>119</ele>
        <time>2019-01-10T08:22:28Z</time>
      </trkpt>
      <trkpt lat="49.3103" lon="0.91595">
        <ele>119</ele>
        <time>2019-01-10T08:22:29Z</time>
      </trkpt>
      <trkpt lat="49.31028" lon="0.91589">
        <ele>120</ele>
        <time>2019-01-10T08:22:30Z</time>
      </trkpt>
      <trkpt lat="49.31026" lon="0.91582">
        <ele>120</ele>
        <time>2019-01-10T08:22:31Z</time>
      </trkpt>
      <trkpt lat="49.31023" lon="0.91568">
        <ele>120</ele>
        <time>2019-01-10T08:22:33Z</time>
      </trkpt>
      <trkpt lat="49.31015" lon="0.91546">
        <ele>121</ele>
        <time>2019-01-10T08:22:36Z</time>
      </trkpt>
      <trkpt lat="49.31014" lon="0.91539">
        <ele>121</ele>
        <time>2019-01-10T08:22:37Z</time>
      </trkpt>
      <trkpt lat="49.31012" lon="0.91533">
        <ele>121</ele>
        <time>2019-01-10T08:22:38Z</time>
      </trkpt>
      <trkpt lat="49.31009" lon="0.91526">
        <ele>121</ele>
        <time>2019-01-10T08:22:39Z</time>
      </trkpt>
      <trkpt lat="49.31006" lon="0.9152">
        <ele>121</ele>
        <time>2019-01-10T08:22:40Z</time>
      </trkpt>
      <trkpt lat="49.31004" lon="0.91514">
        <ele>122</ele>
        <time>2019-01-10T08:22:41Z</time>
      </trkpt>
      <trkpt lat="49.30997" lon="0.91485">
        <ele>122</ele>
        <time>2019-01-10T08:22:46Z</time>
      </trkpt>
      <trkpt lat="49.3099" lon="0.91453">
        <ele>123</ele>
        <time>2019-01-10T08:22:52Z</time>
      </trkpt>
      <trkpt lat="49.30978" lon="0.91409">
        <ele>125</ele>
        <time>2019-01-10T08:22:59Z</time>
      </trkpt>
      <trkpt lat="49.30962" lon="0.91369">
        <ele>126</ele>
        <time>2019-01-10T08:23:06Z</time>
      </trkpt>
      <trkpt lat="49.30955" lon="0.91347">
        <ele>126</ele>
        <time>2019-01-10T08:23:10Z</time>
      </trkpt>
      <trkpt lat="49.30953" lon="0.91341">
        <ele>126</ele>
        <time>2019-01-10T08:23:11Z</time>
      </trkpt>
      <trkpt lat="49.30938" lon="0.913">
        <ele>126</ele>
        <time>2019-01-10T08:23:18Z</time>
      </trkpt>
      <trkpt lat="49.30933" lon="0.91271">
        <ele>127</ele>
        <time>2019-01-10T08:23:23Z</time>
      </trkpt>
      <trkpt lat="49.30929" lon="0.91237">
        <ele>128</ele>
        <time>2019-01-10T08:23:29Z</time>
      </trkpt>
      <trkpt lat="49.30925" lon="0.91215">
        <ele>128</ele>
        <time>2019-01-10T08:23:33Z</time>
      </trkpt>
      <trkpt lat="49.30922" lon="0.91209">
        <ele>128</ele>
        <time>2019-01-10T08:23:34Z</time>
      </trkpt>
      <trkpt lat="49.30914" lon="0.91192">
        <ele>128</ele>
        <time>2019-01-10T08:23:37Z</time>
      </trkpt>
      <trkpt lat="49.30913" lon="0.91187">
        <ele>128</ele>
        <time>2019-01-10T08:23:38Z</time>
      </trkpt>
      <trkpt lat="49.30901" lon="0.91152">
        <ele>128</ele>
        <time>2019-01-10T08:23:45Z</time>
      </trkpt>
      <trkpt lat="49.30891" lon="0.91115">
        <ele>129</ele>
        <time>2019-01-10T08:23:52Z</time>
      </trkpt>
      <trkpt lat="49.30889" lon="0.9111">
        <ele>129</ele>
        <time>2019-01-10T08:23:53Z</time>
      </trkpt>
      <trkpt lat="49.3088" lon="0.91076">
        <ele>129</ele>
        <time>2019-01-10T08:23:59Z</time>
      </trkpt>
      <trkpt lat="49.30876" lon="0.91058">
        <ele>129</ele>
        <time>2019-01-10T08:24:03Z</time>
      </trkpt>
      <trkpt lat="49.30865" lon="0.91024">
        <ele>130</ele>
        <time>2019-01-10T08:24:09Z</time>
      </trkpt>
      <trkpt lat="49.30861" lon="0.91004">
        <ele>130</ele>
        <time>2019-01-10T08:24:13Z</time>
      </trkpt>
      <trkpt lat="49.30853" lon="0.90972">
        <ele>131</ele>
        <time>2019-01-10T08:24:19Z</time>
      </trkpt>
      <trkpt lat="49.30842" lon="0.90939">
        <ele>131</ele>
        <time>2019-01-10T08:24:25Z</time>
      </trkpt>
      <trkpt lat="49.30832" lon="0.90919">
        <ele>131</ele>
        <time>2019-01-10T08:24:29Z</time>
      </trkpt>
      <trkpt lat="49.30831" lon="0.90912">
        <ele>131</ele>
        <time>2019-01-10T08:24:31Z</time>
      </trkpt>
      <trkpt lat="49.30831" lon="0.90905">
        <ele>131</ele>
        <time>2019-01-10T08:24:32Z</time>
      </trkpt>
      <trkpt lat="49.30831" lon="0.909">
        <ele>131</ele>
        <time>2019-01-10T08:24:33Z</time>
      </trkpt>
      <trkpt lat="49.3083" lon="0.90895">
        <ele>131</ele>
        <time>2019-01-10T08:24:34Z</time>
      </trkpt>
      <trkpt lat="49.30829" lon="0.9089">
        <ele>131</ele>
        <time>2019-01-10T08:24:35Z</time>
      </trkpt>
      <trkpt lat="49.30827" lon="0.90886">
        <ele>131</ele>
        <time>2019-01-10T08:24:36Z</time>
      </trkpt>
      <trkpt lat="49.30824" lon="0.90883">
        <ele>131</ele>
        <time>2019-01-10T08:24:37Z</time>
      </trkpt>
      <trkpt lat="49.30821" lon="0.9088">
        <ele>131</ele>
        <time>2019-01-10T08:24:38Z</time>
      </trkpt>
      <trkpt lat="49.30819" lon="0.90876">
        <ele>131</ele>
        <time>2019-01-10T08:24:39Z</time>
      </trkpt>
      <trkpt lat="49.30817" lon="0.90872">
        <ele>131</ele>
        <time>2019-01-10T08:24:40Z</time>
      </trkpt>
      <trkpt lat="49.30815" lon="0.90868">
        <ele>131</ele>
        <time>2019-01-10T08:24:41Z</time>
      </trkpt>
      <trkpt lat="49.30813" lon="0.90864">
        <ele>131</ele>
        <time>2019-01-10T08:24:42Z</time>
      </trkpt>
      <trkpt lat="49.30811" lon="0.9086">
        <ele>131</ele>
        <time>2019-01-10T08:24:43Z</time>
      </trkpt>
      <trkpt lat="49.3081" lon="0.90855">
        <ele>131</ele>
        <time>2019-01-10T08:24:44Z</time>
      </trkpt>
      <trkpt lat="49.30808" lon="0.9085">
        <ele>131</ele>
        <time>2019-01-10T08:24:45Z</time>
      </trkpt>
      <trkpt lat="49.30805" lon="0.90844">
        <ele>131</ele>
        <time>2019-01-10T08:24:46Z</time>
      </trkpt>
      <trkpt lat="49.30803" lon="0.90839">
        <ele>131</ele>
        <time>2019-01-10T08:24:47Z</time>
      </trkpt>
      <trkpt lat="49.308" lon="0.90835">
        <ele>131</ele>
        <time>2019-01-10T08:24:48Z</time>
      </trkpt>
      <trkpt lat="49.30798" lon="0.9083">
        <ele>131</ele>
        <time>2019-01-10T08:24:49Z</time>
      </trkpt>
      <trkpt lat="49.30796" lon="0.90824">
        <ele>131</ele>
        <time>2019-01-10T08:24:50Z</time>
      </trkpt>
      <trkpt lat="49.30794" lon="0.90819">
        <ele>131</ele>
        <time>2019-01-10T08:24:51Z</time>
      </trkpt>
      <trkpt lat="49.30793" lon="0.90814">
        <ele>131</ele>
        <time>2019-01-10T08:24:52Z</time>
      </trkpt>
      <trkpt lat="49.3078" lon="0.90778">
        <ele>130</ele>
        <time>2019-01-10T08:24:58Z</time>
      </trkpt>
      <trkpt lat="49.30768" lon="0.90735">
        <ele>130</ele>
        <time>2019-01-10T08:25:05Z</time>
      </trkpt>
      <trkpt lat="49.30765" lon="0.90722">
        <ele>129</ele>
        <time>2019-01-10T08:25:07Z</time>
      </trkpt>
      <trkpt lat="49.30763" lon="0.90716">
        <ele>129</ele>
        <time>2019-01-10T08:25:08Z</time>
      </trkpt>
      <trkpt lat="49.30762" lon="0.9071">
        <ele>129</ele>
        <time>2019-01-10T08:25:09Z</time>
      </trkpt>
      <trkpt lat="49.30762" lon="0.90705">
        <ele>129</ele>
        <time>2019-01-10T08:25:10Z</time>
      </trkpt>
      <trkpt lat="49.30763" lon="0.90699">
        <ele>129</ele>
        <time>2019-01-10T08:25:11Z</time>
      </trkpt>
      <trkpt lat="49.30764" lon="0.90694">
        <ele>129</ele>
        <time>2019-01-10T08:25:12Z</time>
      </trkpt>
      <trkpt lat="49.30765" lon="0.90688">
        <ele>129</ele>
        <time>2019-01-10T08:25:13Z</time>
      </trkpt>
      <trkpt lat="49.30766" lon="0.90682">
        <ele>129</ele>
        <time>2019-01-10T08:25:14Z</time>
      </trkpt>
      <trkpt lat="49.30774" lon="0.90651">
        <ele>129</ele>
        <time>2019-01-10T08:25:19Z</time>
      </trkpt>
      <trkpt lat="49.30776" lon="0.90644">
        <ele>129</ele>
        <time>2019-01-10T08:25:20Z</time>
      </trkpt>
      <trkpt lat="49.30784" lon="0.9062">
        <ele>129</ele>
        <time>2019-01-10T08:25:24Z</time>
      </trkpt>
      <trkpt lat="49.30786" lon="0.90614">
        <ele>129</ele>
        <time>2019-01-10T08:25:25Z</time>
      </trkpt>
      <trkpt lat="49.30797" lon="0.9058">
        <ele>130</ele>
        <time>2019-01-10T08:25:31Z</time>
      </trkpt>
      <trkpt lat="49.308" lon="0.90574">
        <ele>130</ele>
        <time>2019-01-10T08:25:32Z</time>
      </trkpt>
      <trkpt lat="49.30802" lon="0.90567">
        <ele>130</ele>
        <time>2019-01-10T08:25:33Z</time>
      </trkpt>
      <trkpt lat="49.30805" lon="0.90561">
        <ele>130</ele>
        <time>2019-01-10T08:25:34Z</time>
      </trkpt>
      <trkpt lat="49.30814" lon="0.90531">
        <ele>131</ele>
        <time>2019-01-10T08:25:39Z</time>
      </trkpt>
      <trkpt lat="49.30822" lon="0.9051">
        <ele>131</ele>
        <time>2019-01-10T08:25:44Z</time>
      </trkpt>
      <trkpt lat="49.30825" lon="0.90505">
        <ele>131</ele>
        <time>2019-01-10T08:25:45Z</time>
      </trkpt>
      <trkpt lat="49.30826" lon="0.905">
        <ele>131</ele>
        <time>2019-01-10T08:25:46Z</time>
      </trkpt>
      <trkpt lat="49.30829" lon="0.90494">
        <ele>131</ele>
        <time>2019-01-10T08:25:47Z</time>
      </trkpt>
      <trkpt lat="49.30831" lon="0.90488">
        <ele>131</ele>
        <time>2019-01-10T08:25:48Z</time>
      </trkpt>
      <trkpt lat="49.30833" lon="0.90483">
        <ele>131</ele>
        <time>2019-01-10T08:25:49Z</time>
      </trkpt>
      <trkpt lat="49.30836" lon="0.90477">
        <ele>131</ele>
        <time>2019-01-10T08:25:50Z</time>
      </trkpt>
      <trkpt lat="49.30851" lon="0.90442">
        <ele>132</ele>
        <time>2019-01-10T08:25:56Z</time>
      </trkpt>
      <trkpt lat="49.30865" lon="0.90407">
        <ele>133</ele>
        <time>2019-01-10T08:26:02Z</time>
      </trkpt>
      <trkpt lat="49.30883" lon="0.90358">
        <ele>133</ele>
        <time>2019-01-10T08:26:10Z</time>
      </trkpt>
      <trkpt lat="49.30891" lon="0.9034">
        <ele>134</ele>
        <time>2019-01-10T08:26:14Z</time>
      </trkpt>
      <trkpt lat="49.309" lon="0.90317">
        <ele>134</ele>
        <time>2019-01-10T08:26:18Z</time>
      </trkpt>
      <trkpt lat="49.30902" lon="0.90311">
        <ele>134</ele>
        <time>2019-01-10T08:26:19Z</time>
      </trkpt>
      <trkpt lat="49.30903" lon="0.90304">
        <ele>134</ele>
        <time>2019-01-10T08:26:20Z</time>
      </trkpt>
      <trkpt lat="49.30905" lon="0.90298">
        <ele>135</ele>
        <time>2019-01-10T08:26:21Z</time>
      </trkpt>
      <trkpt lat="49.30908" lon="0.90293">
        <ele>135</ele>
        <time>2019-01-10T08:26:22Z</time>
      </trkpt>
      <trkpt lat="49.30911" lon="0.90288">
        <ele>135</ele>
        <time>2019-01-10T08:26:23Z</time>
      </trkpt>
      <trkpt lat="49.30913" lon="0.90282">
        <ele>135</ele>
        <time>2019-01-10T08:26:24Z</time>
      </trkpt>
      <trkpt lat="49.30916" lon="0.90277">
        <ele>135</ele>
        <time>2019-01-10T08:26:25Z</time>
      </trkpt>
      <trkpt lat="49.30932" lon="0.90242">
        <ele>135</ele>
        <time>2019-01-10T08:26:31Z</time>
      </trkpt>
      <trkpt lat="49.30936" lon="0.90238">
        <ele>135</ele>
        <time>2019-01-10T08:26:32Z</time>
      </trkpt>
      <trkpt lat="49.30942" lon="0.90235">
        <ele>135</ele>
        <time>2019-01-10T08:26:33Z</time>
      </trkpt>
      <trkpt lat="49.30946" lon="0.90234">
        <ele>135</ele>
        <time>2019-01-10T08:26:34Z</time>
      </trkpt>
      <trkpt lat="49.30952" lon="0.90234">
        <ele>134</ele>
        <time>2019-01-10T08:26:35Z</time>
      </trkpt>
      <trkpt lat="49.30957" lon="0.90235">
        <ele>134</ele>
        <time>2019-01-10T08:26:36Z</time>
      </trkpt>
      <trkpt lat="49.31006" lon="0.90229">
        <ele>133</ele>
        <time>2019-01-10T08:26:44Z</time>
      </trkpt>
      <trkpt lat="49.31073" lon="0.90221">
        <ele>131</ele>
        <time>2019-01-10T08:26:55Z</time>
      </trkpt>
      <trkpt lat="49.31114" lon="0.90216">
        <ele>130</ele>
        <time>2019-01-10T08:27:02Z</time>
      </trkpt>
      <trkpt lat="49.31125" lon="0.90215">
        <ele>130</ele>
        <time>2019-01-10T08:27:04Z</time>
      </trkpt>
      <trkpt lat="49.3113" lon="0.90214">
        <ele>130</ele>
        <time>2019-01-10T08:27:05Z</time>
      </trkpt>
      <trkpt lat="49.31136" lon="0.90213">
        <ele>130</ele>
        <time>2019-01-10T08:27:06Z</time>
      </trkpt>
      <trkpt lat="49.31142" lon="0.90212">
        <ele>131</ele>
        <time>2019-01-10T08:27:07Z</time>
      </trkpt>
      <trkpt lat="49.31148" lon="0.90211">
        <ele>131</ele>
        <time>2019-01-10T08:27:08Z</time>
      </trkpt>
      <trkpt lat="49.31186" lon="0.90206">
        <ele>131</ele>
        <time>2019-01-10T08:27:15Z</time>
      </trkpt>
      <trkpt lat="49.31223" lon="0.90202">
        <ele>132</ele>
        <time>2019-01-10T08:27:23Z</time>
      </trkpt>
      <trkpt lat="49.31247" lon="0.90199">
        <ele>132</ele>
        <time>2019-01-10T08:27:29Z</time>
      </trkpt>
      <trkpt lat="49.31276" lon="0.90198">
        <ele>132</ele>
        <time>2019-01-10T08:27:36Z</time>
      </trkpt>
      <trkpt lat="49.31306" lon="0.90197">
        <ele>132</ele>
        <time>2019-01-10T08:27:42Z</time>
      </trkpt>
      <trkpt lat="49.31351" lon="0.90194">
        <ele>131</ele>
        <time>2019-01-10T08:27:51Z</time>
      </trkpt>
      <trkpt lat="49.31397" lon="0.9019">
        <ele>131</ele>
        <time>2019-01-10T08:28:00Z</time>
      </trkpt>
      <trkpt lat="49.31443" lon="0.90186">
        <ele>132</ele>
        <time>2019-01-10T08:28:09Z</time>
      </trkpt>
      <trkpt lat="49.31455" lon="0.90185">
        <ele>132</ele>
        <time>2019-01-10T08:28:11Z</time>
      </trkpt>
      <trkpt lat="49.31466" lon="0.90183">
        <ele>132</ele>
        <time>2019-01-10T08:28:13Z</time>
      </trkpt>
      <trkpt lat="49.31472" lon="0.90183">
        <ele>132</ele>
        <time>2019-01-10T08:28:14Z</time>
      </trkpt>
      <trkpt lat="49.31507" lon="0.90181">
        <ele>132</ele>
        <time>2019-01-10T08:28:20Z</time>
      </trkpt>
      <trkpt lat="49.31554" lon="0.90177">
        <ele>132</ele>
        <time>2019-01-10T08:28:28Z</time>
      </trkpt>
      <trkpt lat="49.31588" lon="0.90175">
        <ele>131</ele>
        <time>2019-01-10T08:28:35Z</time>
      </trkpt>
      <trkpt lat="49.31617" lon="0.90171">
        <ele>131</ele>
        <time>2019-01-10T08:28:41Z</time>
      </trkpt>
      <trkpt lat="49.31629" lon="0.90169">
        <ele>131</ele>
        <time>2019-01-10T08:28:45Z</time>
      </trkpt>
      <trkpt lat="49.31632" lon="0.90171">
        <ele>131</ele>
        <time>2019-01-10T08:28:46Z</time>
      </trkpt>
      <trkpt lat="49.31633" lon="0.90174">
        <ele>131</ele>
        <time>2019-01-10T08:28:47Z</time>
      </trkpt>
      <trkpt lat="49.31634" lon="0.90177">
        <ele>131</ele>
        <time>2019-01-10T08:28:48Z</time>
      </trkpt>
      <trkpt lat="49.31635" lon="0.9018">
        <ele>131</ele>
        <time>2019-01-10T08:28:49Z</time>
      </trkpt>
      <trkpt lat="49.31635" lon="0.90184">
        <ele>131</ele>
        <time>2019-01-10T08:28:50Z</time>
      </trkpt>
      <trkpt lat="49.31635" lon="0.90189">
        <ele>131</ele>
        <time>2019-01-10T08:28:51Z</time>
      </trkpt>
      <trkpt lat="49.31635" lon="0.90194">
        <ele>130</ele>
        <time>2019-01-10T08:28:52Z</time>
      </trkpt>
      <trkpt lat="49.31634" lon="0.90198">
        <ele>130</ele>
        <time>2019-01-10T08:28:53Z</time>
      </trkpt>
      <trkpt lat="49.31633" lon="0.90203">
        <ele>130</ele>
        <time>2019-01-10T08:28:54Z</time>
      </trkpt>
      <trkpt lat="49.31632" lon="0.90209">
        <ele>130</ele>
        <time>2019-01-10T08:28:55Z</time>
      </trkpt>
      <trkpt lat="49.31631" lon="0.90215">
        <ele>130</ele>
        <time>2019-01-10T08:28:56Z</time>
      </trkpt>
      <trkpt lat="49.3163" lon="0.90227">
        <ele>130</ele>
        <time>2019-01-10T08:28:58Z</time>
      </trkpt>
      <trkpt lat="49.31625" lon="0.90251">
        <ele>130</ele>
        <time>2019-01-10T08:29:03Z</time>
      </trkpt>
      <trkpt lat="49.31623" lon="0.90274">
        <ele>130</ele>
        <time>2019-01-10T08:29:08Z</time>
      </trkpt>
      <trkpt lat="49.31618" lon="0.90304">
        <ele>129</ele>
        <time>2019-01-10T08:29:13Z</time>
      </trkpt>
      <trkpt lat="49.31613" lon="0.90336">
        <ele>129</ele>
        <time>2019-01-10T08:29:19Z</time>
      </trkpt>
      <trkpt lat="49.31611" lon="0.90365">
        <ele>129</ele>
        <time>2019-01-10T08:29:26Z</time>
      </trkpt>
      <trkpt lat="49.31607" lon="0.90391">
        <ele>129</ele>
        <time>2019-01-10T08:29:31Z</time>
      </trkpt>
      <trkpt lat="49.31599" lon="0.90423">
        <ele>130</ele>
        <time>2019-01-10T08:29:37Z</time>
      </trkpt>
      <trkpt lat="49.31596" lon="0.90448">
        <ele>130</ele>
        <time>2019-01-10T08:29:44Z</time>
      </trkpt>
      <trkpt lat="49.31592" lon="0.90472">
        <ele>130</ele>
        <time>2019-01-10T08:29:50Z</time>
      </trkpt>
      <trkpt lat="49.31589" lon="0.90501">
        <ele>130</ele>
        <time>2019-01-10T08:29:57Z</time>
      </trkpt>
      <trkpt lat="49.31591" lon="0.90509">
        <ele>130</ele>
        <time>2019-01-10T08:30:00Z</time>
      </trkpt>
      <trkpt lat="49.316" lon="0.90517">
        <ele>130</ele>
        <time>2019-01-10T08:30:06Z</time>
      </trkpt>
      <trkpt lat="49.3162" lon="0.90523">
        <ele>129</ele>
        <time>2019-01-10T08:30:12Z</time>
      </trkpt>
      <trkpt lat="49.31636" lon="0.90528">
        <ele>129</ele>
        <time>2019-01-10T08:30:18Z</time>
      </trkpt>
      <trkpt lat="49.31648" lon="0.90534">
        <ele>129</ele>
        <time>2019-01-10T08:30:23Z</time>
      </trkpt>
      <trkpt lat="49.31661" lon="0.90536">
        <ele>129</ele>
        <time>2019-01-10T08:30:28Z</time>
      </trkpt>
      <trkpt lat="49.3167" lon="0.90544">
        <ele>129</ele>
        <time>2019-01-10T08:30:33Z</time>
      </trkpt>
      <trkpt lat="49.31672" lon="0.90551">
        <ele>129</ele>
        <time>2019-01-10T08:30:37Z</time>
      </trkpt>
      <trkpt lat="49.31674" lon="0.90553">
        <ele>129</ele>
        <time>2019-01-10T08:30:38Z</time>
      </trkpt>
      <trkpt lat="49.31678" lon="0.90556">
        <ele>129</ele>
        <time>2019-01-10T08:30:41Z</time>
      </trkpt>
      <trkpt lat="49.3168" lon="0.90556">
        <ele>129</ele>
        <time>2019-01-10T08:30:42Z</time>
      </trkpt>
      <trkpt lat="49.31682" lon="0.90555">
        <ele>129</ele>
        <time>2019-01-10T08:30:43Z</time>
      </trkpt>
      <trkpt lat="49.31683" lon="0.90554">
        <ele>129</ele>
        <time>2019-01-10T08:30:44Z</time>
      </trkpt>
      <trkpt lat="49.31685" lon="0.90552">
        <ele>129</ele>
        <time>2019-01-10T08:30:45Z</time>
      </trkpt>
      <trkpt lat="49.31686" lon="0.90551">
        <ele>129</ele>
        <time>2019-01-10T08:30:46Z</time>
      </trkpt>
      <trkpt lat="49.31688" lon="0.9055">
        <ele>129</ele>
        <time>2019-01-10T08:30:47Z</time>
      </trkpt>
      <trkpt lat="49.3169" lon="0.9055">
        <ele>129</ele>
        <time>2019-01-10T08:30:48Z</time>
      </trkpt>
      <trkpt lat="49.31693" lon="0.90551">
        <ele>129</ele>
        <time>2019-01-10T08:30:49Z</time>
      </trkpt>
      <trkpt lat="49.31696" lon="0.90551">
        <ele>129</ele>
        <time>2019-01-10T08:30:50Z</time>
      </trkpt>
      <trkpt lat="49.31704" lon="0.90554">
        <ele>129</ele>
        <time>2019-01-10T08:30:52Z</time>
      </trkpt>
      <trkpt lat="49.31709" lon="0.90555">
        <ele>129</ele>
        <time>2019-01-10T08:30:53Z</time>
      </trkpt>
      <trkpt lat="49.31712" lon="0.90556">
        <ele>129</ele>
        <time>2019-01-10T08:30:54Z</time>
      </trkpt>
      <trkpt lat="49.31727" lon="0.90561">
        <ele>128</ele>
        <time>2019-01-10T08:30:59Z</time>
      </trkpt>
      <trkpt lat="49.3174" lon="0.90565">
        <ele>128</ele>
        <time>2019-01-10T08:31:05Z</time>
      </trkpt>
      <trkpt lat="49.31755" lon="0.90567">
        <ele>128</ele>
        <time>2019-01-10T08:31:11Z</time>
      </trkpt>
      <trkpt lat="49.31772" lon="0.90577">
        <ele>128</ele>
        <time>2019-01-10T08:31:18Z</time>
      </trkpt>
      <trkpt lat="49.31777" lon="0.90583">
        <ele>128</ele>
        <time>2019-01-10T08:31:21Z</time>
      </trkpt>
      <trkpt lat="49.31778" lon="0.90584">
        <ele>128</ele>
        <time>2019-01-10T08:31:22Z</time>
      </trkpt>
      <trkpt lat="49.31779" lon="0.90585">
        <ele>128</ele>
        <time>2019-01-10T08:31:23Z</time>
      </trkpt>
      <trkpt lat="49.3178" lon="0.90587">
        <ele>128</ele>
        <time>2019-01-10T08:31:24Z</time>
      </trkpt>
      <trkpt lat="49.31781" lon="0.90589">
        <ele>128</ele>
        <time>2019-01-10T08:31:25Z</time>
      </trkpt>
      <trkpt lat="49.31782" lon="0.90591">
        <ele>128</ele>
        <time>2019-01-10T08:31:26Z</time>
      </trkpt>
      <trkpt lat="49.31784" lon="0.90592">
        <ele>128</ele>
        <time>2019-01-10T08:31:27Z</time>
      </trkpt>
      <trkpt lat="49.31786" lon="0.90593">
        <ele>128</ele>
        <time>2019-01-10T08:31:28Z</time>
      </trkpt>
      <trkpt lat="49.3179" lon="0.90595">
        <ele>128</ele>
        <time>2019-01-10T08:31:30Z</time>
      </trkpt>
      <trkpt lat="49.31795" lon="0.90597">
        <ele>128</ele>
        <time>2019-01-10T08:31:32Z</time>
      </trkpt>
      <trkpt lat="49.31806" lon="0.90604">
        <ele>128</ele>
        <time>2019-01-10T08:31:38Z</time>
      </trkpt>
      <trkpt lat="49.31819" lon="0.9061">
        <ele>128</ele>
        <time>2019-01-10T08:31:44Z</time>
      </trkpt>
      <trkpt lat="49.3182" lon="0.9061">
        <ele>128</ele>
        <time>2019-01-10T08:31:45Z</time>
      </trkpt>
      <trkpt lat="49.31823" lon="0.90609">
        <ele>128</ele>
        <time>2019-01-10T08:31:46Z</time>
      </trkpt>
      <trkpt lat="49.31826" lon="0.90608">
        <ele>128</ele>
        <time>2019-01-10T08:31:47Z</time>
      </trkpt>
      <trkpt lat="49.31829" lon="0.90608">
        <ele>128</ele>
        <time>2019-01-10T08:31:48Z</time>
      </trkpt>
      <trkpt lat="49.31831" lon="0.90607">
        <ele>128</ele>
        <time>2019-01-10T08:31:49Z</time>
      </trkpt>
      <trkpt lat="49.31833" lon="0.90607">
        <ele>128</ele>
        <time>2019-01-10T08:31:50Z</time>
      </trkpt>
      <trkpt lat="49.31838" lon="0.90606">
        <ele>128</ele>
        <time>2019-01-10T08:31:52Z</time>
      </trkpt>
      <trkpt lat="49.3184" lon="0.90605">
        <ele>128</ele>
        <time>2019-01-10T08:31:53Z</time>
      </trkpt>
      <trkpt lat="49.31842" lon="0.90605">
        <ele>128</ele>
        <time>2019-01-10T08:31:54Z</time>
      </trkpt>
      <trkpt lat="49.31844" lon="0.90604">
        <ele>128</ele>
        <time>2019-01-10T08:31:55Z</time>
      </trkpt>
      <trkpt lat="49.31847" lon="0.90604">
        <ele>128</ele>
        <time>2019-01-10T08:31:56Z</time>
      </trkpt>
      <trkpt lat="49.31849" lon="0.90604">
        <ele>128</ele>
        <time>2019-01-10T08:31:57Z</time>
      </trkpt>
      <trkpt lat="49.31858" lon="0.90606">
        <ele>128</ele>
        <time>2019-01-10T08:32:02Z</time>
      </trkpt>
      <trkpt lat="49.31868" lon="0.90612">
        <ele>128</ele>
        <time>2019-01-10T08:32:08Z</time>
      </trkpt>
      <trkpt lat="49.31878" lon="0.90617">
        <ele>129</ele>
        <time>2019-01-10T08:32:13Z</time>
      </trkpt>
      <trkpt lat="49.31886" lon="0.9062">
        <ele>129</ele>
        <time>2019-01-10T08:32:18Z</time>
      </trkpt>
      <trkpt lat="49.31888" lon="0.90619">
        <ele>129</ele>
        <time>2019-01-10T08:32:19Z</time>
      </trkpt>
      <trkpt lat="49.31891" lon="0.90619">
        <ele>129</ele>
        <time>2019-01-10T08:32:20Z</time>
      </trkpt>
      <trkpt lat="49.31905" lon="0.90622">
        <ele>129</ele>
        <time>2019-01-10T08:32:26Z</time>
      </trkpt>
      <trkpt lat="49.31923" lon="0.90631">
        <ele>129</ele>
        <time>2019-01-10T08:32:32Z</time>
      </trkpt>
      <trkpt lat="49.31931" lon="0.90634">
        <ele>129</ele>
        <time>2019-01-10T08:32:37Z</time>
      </trkpt>
      <trkpt lat="49.31941" lon="0.90638">
        <ele>129</ele>
        <time>2019-01-10T08:32:45Z</time>
      </trkpt>
      <trkpt lat="49.31944" lon="0.90639">
        <ele>129</ele>
        <time>2019-01-10T08:32:47Z</time>
      </trkpt>
      <trkpt lat="49.31945" lon="0.9064">
        <ele>129</ele>
        <time>2019-01-10T08:32:48Z</time>
      </trkpt>
      <trkpt lat="49.31947" lon="0.90641">
        <ele>129</ele>
        <time>2019-01-10T08:32:49Z</time>
      </trkpt>
      <trkpt lat="49.31948" lon="0.90643">
        <ele>129</ele>
        <time>2019-01-10T08:32:50Z</time>
      </trkpt>
      <trkpt lat="49.3195" lon="0.90645">
        <ele>129</ele>
        <time>2019-01-10T08:32:51Z</time>
      </trkpt>
      <trkpt lat="49.31952" lon="0.90647">
        <ele>129</ele>
        <time>2019-01-10T08:32:52Z</time>
      </trkpt>
      <trkpt lat="49.31954" lon="0.90648">
        <ele>129</ele>
        <time>2019-01-10T08:32:53Z</time>
      </trkpt>
      <trkpt lat="49.31958" lon="0.90649">
        <ele>129</ele>
        <time>2019-01-10T08:32:58Z</time>
      </trkpt>
      <trkpt lat="49.31963" lon="0.90652">
        <ele>129</ele>
        <time>2019-01-10T08:33:06Z</time>
      </trkpt>
      <trkpt lat="49.31966" lon="0.90653">
        <ele>129</ele>
        <time>2019-01-10T08:33:11Z</time>
      </trkpt>
      <trkpt lat="49.31968" lon="0.9065">
        <ele>129</ele>
        <time>2019-01-10T08:33:14Z</time>
      </trkpt>
      <trkpt lat="49.31974" lon="0.90637">
        <ele>129</ele>
        <time>2019-01-10T08:33:19Z</time>
      </trkpt>
      <trkpt lat="49.31975" lon="0.90636">
        <ele>129</ele>
        <time>2019-01-10T08:33:20Z</time>
      </trkpt>
      <trkpt lat="49.31977" lon="0.90636">
        <ele>129</ele>
        <time>2019-01-10T08:33:21Z</time>
      </trkpt>
      <trkpt lat="49.31979" lon="0.90637">
        <ele>129</ele>
        <time>2019-01-10T08:33:22Z</time>
      </trkpt>
      <trkpt lat="49.3198" lon="0.90637">
        <ele>129</ele>
        <time>2019-01-10T08:33:23Z</time>
      </trkpt>
      <trkpt lat="49.31983" lon="0.90638">
        <ele>129</ele>
        <time>2019-01-10T08:33:24Z</time>
      </trkpt>
      <trkpt lat="49.32003" lon="0.90641">
        <ele>129</ele>
        <time>2019-01-10T08:33:29Z</time>
      </trkpt>
      <trkpt lat="49.32041" lon="0.90651">
        <ele>130</ele>
        <time>2019-01-10T08:33:36Z</time>
      </trkpt>
      <trkpt lat="49.3207" lon="0.9066">
        <ele>130</ele>
        <time>2019-01-10T08:33:41Z</time>
      </trkpt>
      <trkpt lat="49.32113" lon="0.90671">
        <ele>131</ele>
        <time>2019-01-10T08:33:49Z</time>
      </trkpt>
      <trkpt lat="49.32118" lon="0.90673">
        <ele>131</ele>
        <time>2019-01-10T08:33:50Z</time>
      </trkpt>
      <trkpt lat="49.32127" lon="0.90677">
        <ele>131</ele>
        <time>2019-01-10T08:33:52Z</time>
      </trkpt>
      <trkpt lat="49.32153" lon="0.90686">
        <ele>131</ele>
        <time>2019-01-10T08:33:59Z</time>
      </trkpt>
      <trkpt lat="49.32175" lon="0.90693">
        <ele>131</ele>
        <time>2019-01-10T08:34:05Z</time>
      </trkpt>
      <trkpt lat="49.32196" lon="0.90703">
        <ele>131</ele>
        <time>2019-01-10T08:34:11Z</time>
      </trkpt>
      <trkpt lat="49.32219" lon="0.9071">
        <ele>131</ele>
        <time>2019-01-10T08:34:17Z</time>
      </trkpt>
      <trkpt lat="49.32247" lon="0.90718">
        <ele>131</ele>
        <time>2019-01-10T08:34:24Z</time>
      </trkpt>
      <trkpt lat="49.32255" lon="0.9072">
        <ele>131</ele>
        <time>2019-01-10T08:34:26Z</time>
      </trkpt>
      <trkpt lat="49.3228" lon="0.90727">
        <ele>131</ele>
        <time>2019-01-10T08:34:32Z</time>
      </trkpt>
      <trkpt lat="49.3231" lon="0.9074">
        <ele>131</ele>
        <time>2019-01-10T08:34:39Z</time>
      </trkpt>
      <trkpt lat="49.32342" lon="0.90751">
        <ele>131</ele>
        <time>2019-01-10T08:34:47Z</time>
      </trkpt>
      <trkpt lat="49.32344" lon="0.90753">
        <ele>131</ele>
        <time>2019-01-10T08:34:48Z</time>
      </trkpt>
      <trkpt lat="49.32345" lon="0.90756">
        <ele>131</ele>
        <time>2019-01-10T08:34:49Z</time>
      </trkpt>
      <trkpt lat="49.32348" lon="0.90778">
        <ele>131</ele>
        <time>2019-01-10T08:34:55Z</time>
      </trkpt>
      <trkpt lat="49.32345" lon="0.90805">
        <ele>131</ele>
        <time>2019-01-10T08:35:00Z</time>
      </trkpt>
      <trkpt lat="49.32343" lon="0.90825">
        <ele>131</ele>
        <time>2019-01-10T08:35:03Z</time>
      </trkpt>
      <trkpt lat="49.32343" lon="0.90832">
        <ele>131</ele>
        <time>2019-01-10T08:35:04Z</time>
      </trkpt>
      <trkpt lat="49.32344" lon="0.90839">
        <ele>131</ele>
        <time>2019-01-10T08:35:05Z</time>
      </trkpt>
      <trkpt lat="49.32344" lon="0.90844">
        <ele>131</ele>
        <time>2019-01-10T08:35:06Z</time>
      </trkpt>
      <trkpt lat="49.32345" lon="0.90849">
        <ele>131</ele>
        <time>2019-01-10T08:35:07Z</time>
      </trkpt>
      <trkpt lat="49.32344" lon="0.90852">
        <ele>131</ele>
        <time>2019-01-10T08:35:08Z</time>
      </trkpt>
      <trkpt lat="49.32344" lon="0.90856">
        <ele>131</ele>
        <time>2019-01-10T08:35:09Z</time>
      </trkpt>
      <trkpt lat="49.32343" lon="0.9086">
        <ele>131</ele>
        <time>2019-01-10T08:35:10Z</time>
      </trkpt>
      <trkpt lat="49.32343" lon="0.90866">
        <ele>131</ele>
        <time>2019-01-10T08:35:11Z</time>
      </trkpt>
      <trkpt lat="49.32343" lon="0.90871">
        <ele>131</ele>
        <time>2019-01-10T08:35:12Z</time>
      </trkpt>
      <trkpt lat="49.32343" lon="0.90876">
        <ele>131</ele>
        <time>2019-01-10T08:35:13Z</time>
      </trkpt>
      <trkpt lat="49.32338" lon="0.909">
        <ele>130</ele>
        <time>2019-01-10T08:35:17Z</time>
      </trkpt>
      <trkpt lat="49.32337" lon="0.90913">
        <ele>130</ele>
        <time>2019-01-10T08:35:19Z</time>
      </trkpt>
      <trkpt lat="49.32334" lon="0.9096">
        <ele>130</ele>
        <time>2019-01-10T08:35:26Z</time>
      </trkpt>
      <trkpt lat="49.32336" lon="0.90965">
        <ele>130</ele>
        <time>2019-01-10T08:35:27Z</time>
      </trkpt>
      <trkpt lat="49.32335" lon="0.90971">
        <ele>129</ele>
        <time>2019-01-10T08:35:28Z</time>
      </trkpt>
      <trkpt lat="49.32334" lon="0.90977">
        <ele>129</ele>
        <time>2019-01-10T08:35:29Z</time>
      </trkpt>
      <trkpt lat="49.32334" lon="0.90981">
        <ele>129</ele>
        <time>2019-01-10T08:35:30Z</time>
      </trkpt>
      <trkpt lat="49.32333" lon="0.90985">
        <ele>129</ele>
        <time>2019-01-10T08:35:31Z</time>
      </trkpt>
      <trkpt lat="49.32334" lon="0.90988">
        <ele>129</ele>
        <time>2019-01-10T08:35:32Z</time>
      </trkpt>
      <trkpt lat="49.32334" lon="0.90992">
        <ele>129</ele>
        <time>2019-01-10T08:35:33Z</time>
      </trkpt>
      <trkpt lat="49.32335" lon="0.90995">
        <ele>129</ele>
        <time>2019-01-10T08:35:34Z</time>
      </trkpt>
      <trkpt lat="49.32341" lon="0.91005">
        <ele>129</ele>
        <time>2019-01-10T08:35:37Z</time>
      </trkpt>
      <trkpt lat="49.32344" lon="0.91008">
        <ele>129</ele>
        <time>2019-01-10T08:35:38Z</time>
      </trkpt>
      <trkpt lat="49.32371" lon="0.91021">
        <ele>128</ele>
        <time>2019-01-10T08:35:43Z</time>
      </trkpt>
      <trkpt lat="49.32409" lon="0.91039">
        <ele>127</ele>
        <time>2019-01-10T08:35:49Z</time>
      </trkpt>
      <trkpt lat="49.3246" lon="0.91059">
        <ele>126</ele>
        <time>2019-01-10T08:35:57Z</time>
      </trkpt>
      <trkpt lat="49.32512" lon="0.91079">
        <ele>125</ele>
        <time>2019-01-10T08:36:05Z</time>
      </trkpt>
      <trkpt lat="49.32537" lon="0.91089">
        <ele>124</ele>
        <time>2019-01-10T08:36:10Z</time>
      </trkpt>
      <trkpt lat="49.32545" lon="0.91093">
        <ele>123</ele>
        <time>2019-01-10T08:36:12Z</time>
      </trkpt>
      <trkpt lat="49.3255" lon="0.91094">
        <ele>123</ele>
        <time>2019-01-10T08:36:13Z</time>
      </trkpt>
      <trkpt lat="49.32554" lon="0.91095">
        <ele>123</ele>
        <time>2019-01-10T08:36:14Z</time>
      </trkpt>
      <trkpt lat="49.32558" lon="0.91097">
        <ele>123</ele>
        <time>2019-01-10T08:36:15Z</time>
      </trkpt>
      <trkpt lat="49.32561" lon="0.911">
        <ele>122</ele>
        <time>2019-01-10T08:36:16Z</time>
      </trkpt>
      <trkpt lat="49.32581" lon="0.91109">
        <ele>121</ele>
        <time>2019-01-10T08:36:20Z</time>
      </trkpt>
      <trkpt lat="49.32594" lon="0.91113">
        <ele>121</ele>
        <time>2019-01-10T08:36:22Z</time>
      </trkpt>
      <trkpt lat="49.32605" lon="0.91118">
        <ele>120</ele>
        <time>2019-01-10T08:36:24Z</time>
      </trkpt>
      <trkpt lat="49.3264" lon="0.9113">
        <ele>119</ele>
        <time>2019-01-10T08:36:30Z</time>
      </trkpt>
      <trkpt lat="49.3266" lon="0.9114">
        <ele>119</ele>
        <time>2019-01-10T08:36:35Z</time>
      </trkpt>
      <trkpt lat="49.32669" lon="0.91147">
        <ele>118</ele>
        <time>2019-01-10T08:36:37Z</time>
      </trkpt>
      <trkpt lat="49.32681" lon="0.9116">
        <ele>118</ele>
        <time>2019-01-10T08:36:40Z</time>
      </trkpt>
      <trkpt lat="49.32685" lon="0.91164">
        <ele>118</ele>
        <time>2019-01-10T08:36:41Z</time>
      </trkpt>
      <trkpt lat="49.32701" lon="0.9118">
        <ele>118</ele>
        <time>2019-01-10T08:36:46Z</time>
      </trkpt>
      <trkpt lat="49.32709" lon="0.91189">
        <ele>118</ele>
        <time>2019-01-10T08:36:48Z</time>
      </trkpt>
      <trkpt lat="49.32712" lon="0.91194">
        <ele>117</ele>
        <time>2019-01-10T08:36:49Z</time>
      </trkpt>
      <trkpt lat="49.32716" lon="0.91207">
        <ele>117</ele>
        <time>2019-01-10T08:36:51Z</time>
      </trkpt>
      <trkpt lat="49.32721" lon="0.91229">
        <ele>117</ele>
        <time>2019-01-10T08:36:54Z</time>
      </trkpt>
      <trkpt lat="49.32737" lon="0.91251">
        <ele>116</ele>
        <time>2019-01-10T08:36:59Z</time>
      </trkpt>
      <trkpt lat="49.32747" lon="0.91274">
        <ele>115</ele>
        <time>2019-01-10T08:37:03Z</time>
      </trkpt>
      <trkpt lat="49.32758" lon="0.91288">
        <ele>115</ele>
        <time>2019-01-10T08:37:06Z</time>
      </trkpt>
      <trkpt lat="49.32771" lon="0.91296">
        <ele>114</ele>
        <time>2019-01-10T08:37:09Z</time>
      </trkpt>
      <trkpt lat="49.32787" lon="0.91311">
        <ele>113</ele>
        <time>2019-01-10T08:37:13Z</time>
      </trkpt>
      <trkpt lat="49.32797" lon="0.91318">
        <ele>112</ele>
        <time>2019-01-10T08:37:16Z</time>
      </trkpt>
      <trkpt lat="49.32837" lon="0.91328">
        <ele>108</ele>
        <time>2019-01-10T08:37:23Z</time>
      </trkpt>
      <trkpt lat="49.3285" lon="0.91336">
        <ele>107</ele>
        <time>2019-01-10T08:37:26Z</time>
      </trkpt>
      <trkpt lat="49.32864" lon="0.91359">
        <ele>106</ele>
        <time>2019-01-10T08:37:31Z</time>
      </trkpt>
      <trkpt lat="49.32867" lon="0.91378">
        <ele>106</ele>
        <time>2019-01-10T08:37:34Z</time>
      </trkpt>
      <trkpt lat="49.32872" lon="0.91418">
        <ele>107</ele>
        <time>2019-01-10T08:37:40Z</time>
      </trkpt>
      <trkpt lat="49.32869" lon="0.91438">
        <ele>107</ele>
        <time>2019-01-10T08:37:44Z</time>
      </trkpt>
      <trkpt lat="49.32854" lon="0.91461">
        <ele>109</ele>
        <time>2019-01-10T08:37:50Z</time>
      </trkpt>
      <trkpt lat="49.32832" lon="0.91477">
        <ele>110</ele>
        <time>2019-01-10T08:37:56Z</time>
      </trkpt>
      <trkpt lat="49.32818" lon="0.91492">
        <ele>111</ele>
        <time>2019-01-10T08:38:00Z</time>
      </trkpt>
      <trkpt lat="49.32814" lon="0.91507">
        <ele>111</ele>
        <time>2019-01-10T08:38:03Z</time>
      </trkpt>
      <trkpt lat="49.32815" lon="0.91513">
        <ele>111</ele>
        <time>2019-01-10T08:38:04Z</time>
      </trkpt>
      <trkpt lat="49.32818" lon="0.91527">
        <ele>111</ele>
        <time>2019-01-10T08:38:07Z</time>
      </trkpt>
      <trkpt lat="49.32832" lon="0.91533">
        <ele>110</ele>
        <time>2019-01-10T08:38:12Z</time>
      </trkpt>
      <trkpt lat="49.32847" lon="0.91538">
        <ele>110</ele>
        <time>2019-01-10T08:38:16Z</time>
      </trkpt>
      <trkpt lat="49.32851" lon="0.9154">
        <ele>110</ele>
        <time>2019-01-10T08:38:17Z</time>
      </trkpt>
      <trkpt lat="49.32854" lon="0.91541">
        <ele>110</ele>
        <time>2019-01-10T08:38:18Z</time>
      </trkpt>
      <trkpt lat="49.32869" lon="0.91542">
        <ele>109</ele>
        <time>2019-01-10T08:38:23Z</time>
      </trkpt>
      <trkpt lat="49.3289" lon="0.91555">
        <ele>107</ele>
        <time>2019-01-10T08:38:29Z</time>
      </trkpt>
      <trkpt lat="49.32915" lon="0.91567">
        <ele>105</ele>
        <time>2019-01-10T08:38:35Z</time>
      </trkpt>
      <trkpt lat="49.3294" lon="0.91577">
        <ele>103</ele>
        <time>2019-01-10T08:38:41Z</time>
      </trkpt>
      <trkpt lat="49.32956" lon="0.91586">
        <ele>101</ele>
        <time>2019-01-10T08:38:44Z</time>
      </trkpt>
      <trkpt lat="49.32961" lon="0.9159">
        <ele>101</ele>
        <time>2019-01-10T08:38:45Z</time>
      </trkpt>
      <trkpt lat="49.32966" lon="0.91593">
        <ele>100</ele>
        <time>2019-01-10T08:38:46Z</time>
      </trkpt>
      <trkpt lat="49.32971" lon="0.91592">
        <ele>99</ele>
        <time>2019-01-10T08:38:47Z</time>
      </trkpt>
      <trkpt lat="49.32976" lon="0.9159">
        <ele>99</ele>
        <time>2019-01-10T08:38:48Z</time>
      </trkpt>
      <trkpt lat="49.32996" lon="0.91584">
        <ele>96</ele>
        <time>2019-01-10T08:38:51Z</time>
      </trkpt>
      <trkpt lat="49.33004" lon="0.91584">
        <ele>95</ele>
        <time>2019-01-10T08:38:52Z</time>
      </trkpt>
      <trkpt lat="49.33024" lon="0.91586">
        <ele>92</ele>
        <time>2019-01-10T08:38:55Z</time>
      </trkpt>
      <trkpt lat="49.33039" lon="0.91585">
        <ele>91</ele>
        <time>2019-01-10T08:38:57Z</time>
      </trkpt>
      <trkpt lat="49.3305" lon="0.91587">
        <ele>90</ele>
        <time>2019-01-10T08:38:59Z</time>
      </trkpt>
      <trkpt lat="49.33063" lon="0.91588">
        <ele>89</ele>
        <time>2019-01-10T08:39:01Z</time>
      </trkpt>
      <trkpt lat="49.33075" lon="0.91596">
        <ele>88</ele>
        <time>2019-01-10T08:39:04Z</time>
      </trkpt>
      <trkpt lat="49.33086" lon="0.91612">
        <ele>88</ele>
        <time>2019-01-10T08:39:07Z</time>
      </trkpt>
      <trkpt lat="49.33107" lon="0.91626">
        <ele>87</ele>
        <time>2019-01-10T08:39:11Z</time>
      </trkpt>
      <trkpt lat="49.3312" lon="0.91636">
        <ele>85</ele>
        <time>2019-01-10T08:39:14Z</time>
      </trkpt>
      <trkpt lat="49.3314" lon="0.91662">
        <ele>84</ele>
        <time>2019-01-10T08:39:20Z</time>
      </trkpt>
      <trkpt lat="49.33147" lon="0.9167">
        <ele>83</ele>
        <time>2019-01-10T08:39:22Z</time>
      </trkpt>
      <trkpt lat="49.33155" lon="0.91694">
        <ele>83</ele>
        <time>2019-01-10T08:39:27Z</time>
      </trkpt>
      <trkpt lat="49.33158" lon="0.91714">
        <ele>83</ele>
        <time>2019-01-10T08:39:30Z</time>
      </trkpt>
      <trkpt lat="49.33162" lon="0.91728">
        <ele>82</ele>
        <time>2019-01-10T08:39:32Z</time>
      </trkpt>
      <trkpt lat="49.33166" lon="0.91751">
        <ele>81</ele>
        <time>2019-01-10T08:39:35Z</time>
      </trkpt>
      <trkpt lat="49.33169" lon="0.91786">
        <ele>81</ele>
        <time>2019-01-10T08:39:40Z</time>
      </trkpt>
      <trkpt lat="49.33172" lon="0.91797">
        <ele>80</ele>
        <time>2019-01-10T08:39:42Z</time>
      </trkpt>
      <trkpt lat="49.33174" lon="0.91807">
        <ele>79</ele>
        <time>2019-01-10T08:39:44Z</time>
      </trkpt>
      <trkpt lat="49.3317" lon="0.91829">
        <ele>78</ele>
        <time>2019-01-10T08:39:49Z</time>
      </trkpt>
      <trkpt lat="49.33177" lon="0.91857">
        <ele>76</ele>
        <time>2019-01-10T08:39:53Z</time>
      </trkpt>
      <trkpt lat="49.33193" lon="0.91888">
        <ele>73</ele>
        <time>2019-01-10T08:39:58Z</time>
      </trkpt>
      <trkpt lat="49.33208" lon="0.91943">
        <ele>69</ele>
        <time>2019-01-10T08:40:05Z</time>
      </trkpt>
      <trkpt lat="49.33212" lon="0.91949">
        <ele>69</ele>
        <time>2019-01-10T08:40:06Z</time>
      </trkpt>
      <trkpt lat="49.33224" lon="0.91965">
        <ele>68</ele>
        <time>2019-01-10T08:40:09Z</time>
      </trkpt>
      <trkpt lat="49.33238" lon="0.91976">
        <ele>67</ele>
        <time>2019-01-10T08:40:13Z</time>
      </trkpt>
      <trkpt lat="49.33257" lon="0.91993">
        <ele>66</ele>
        <time>2019-01-10T08:40:18Z</time>
      </trkpt>
      <trkpt lat="49.33268" lon="0.92006">
        <ele>65</ele>
        <time>2019-01-10T08:40:22Z</time>
      </trkpt>
      <trkpt lat="49.33275" lon="0.92012">
        <ele>64</ele>
        <time>2019-01-10T08:40:24Z</time>
      </trkpt>
      <trkpt lat="49.33294" lon="0.9204">
        <ele>62</ele>
        <time>2019-01-10T08:40:30Z</time>
      </trkpt>
      <trkpt lat="49.33298" lon="0.92043">
        <ele>62</ele>
        <time>2019-01-10T08:40:31Z</time>
      </trkpt>
      <trkpt lat="49.3332" lon="0.92063">
        <ele>60</ele>
        <time>2019-01-10T08:40:36Z</time>
      </trkpt>
      <trkpt lat="49.33336" lon="0.92078">
        <ele>58</ele>
        <time>2019-01-10T08:40:41Z</time>
      </trkpt>
      <trkpt lat="49.33362" lon="0.92083">
        <ele>56</ele>
        <time>2019-01-10T08:40:48Z</time>
      </trkpt>
      <trkpt lat="49.33373" lon="0.92085">
        <ele>55</ele>
        <time>2019-01-10T08:40:53Z</time>
      </trkpt>
      <trkpt lat="49.3339" lon="0.92113">
        <ele>54</ele>
        <time>2019-01-10T08:42:56Z</time>
      </trkpt>
      <trkpt lat="49.33392" lon="0.92129">
        <ele>53</ele>
        <time>2019-01-10T08:42:59Z</time>
      </trkpt>
      <trkpt lat="49.33393" lon="0.92171">
        <ele>54</ele>
        <time>2019-01-10T08:43:05Z</time>
      </trkpt>
      <trkpt lat="49.33392" lon="0.92188">
        <ele>54</ele>
        <time>2019-01-10T08:43:07Z</time>
      </trkpt>
      <trkpt lat="49.33389" lon="0.92204">
        <ele>55</ele>
        <time>2019-01-10T08:43:09Z</time>
      </trkpt>
      <trkpt lat="49.33386" lon="0.92211">
        <ele>55</ele>
        <time>2019-01-10T08:43:10Z</time>
      </trkpt>
      <trkpt lat="49.33383" lon="0.92218">
        <ele>55</ele>
        <time>2019-01-10T08:43:11Z</time>
      </trkpt>
      <trkpt lat="49.3338" lon="0.92225">
        <ele>55</ele>
        <time>2019-01-10T08:43:12Z</time>
      </trkpt>
      <trkpt lat="49.33376" lon="0.92232">
        <ele>55</ele>
        <time>2019-01-10T08:43:13Z</time>
      </trkpt>
      <trkpt lat="49.33372" lon="0.92237">
        <ele>55</ele>
        <time>2019-01-10T08:43:14Z</time>
      </trkpt>
      <trkpt lat="49.33356" lon="0.92261">
        <ele>53</ele>
        <time>2019-01-10T08:43:18Z</time>
      </trkpt>
      <trkpt lat="49.33338" lon="0.92305">
        <ele>52</ele>
        <time>2019-01-10T08:43:24Z</time>
      </trkpt>
      <trkpt lat="49.33324" lon="0.92363">
        <ele>51</ele>
        <time>2019-01-10T08:43:31Z</time>
      </trkpt>
      <trkpt lat="49.3332" lon="0.92408">
        <ele>50</ele>
        <time>2019-01-10T08:43:36Z</time>
      </trkpt>
      <trkpt lat="49.33326" lon="0.92485">
        <ele>49</ele>
        <time>2019-01-10T08:43:45Z</time>
      </trkpt>
      <trkpt lat="49.33326" lon="0.92492">
        <ele>49</ele>
        <time>2019-01-10T08:43:46Z</time>
      </trkpt>
      <trkpt lat="49.33328" lon="0.92507">
        <ele>49</ele>
        <time>2019-01-10T08:43:48Z</time>
      </trkpt>
      <trkpt lat="49.3333" lon="0.92514">
        <ele>49</ele>
        <time>2019-01-10T08:43:49Z</time>
      </trkpt>
      <trkpt lat="49.33332" lon="0.92521">
        <ele>49</ele>
        <time>2019-01-10T08:43:50Z</time>
      </trkpt>
      <trkpt lat="49.33335" lon="0.92528">
        <ele>49</ele>
        <time>2019-01-10T08:43:51Z</time>
      </trkpt>
      <trkpt lat="49.33338" lon="0.92534">
        <ele>49</ele>
        <time>2019-01-10T08:43:52Z</time>
      </trkpt>
      <trkpt lat="49.33342" lon="0.9254">
        <ele>49</ele>
        <time>2019-01-10T08:43:53Z</time>
      </trkpt>
      <trkpt lat="49.33354" lon="0.92558">
        <ele>50</ele>
        <time>2019-01-10T08:43:56Z</time>
      </trkpt>
      <trkpt lat="49.33359" lon="0.92563">
        <ele>50</ele>
        <time>2019-01-10T08:43:57Z</time>
      </trkpt>
      <trkpt lat="49.33368" lon="0.9257">
        <ele>50</ele>
        <time>2019-01-10T08:43:59Z</time>
      </trkpt>
      <trkpt lat="49.33406" lon="0.92593">
        <ele>49</ele>
        <time>2019-01-10T08:44:06Z</time>
      </trkpt>
      <trkpt lat="49.33445" lon="0.92614">
        <ele>49</ele>
        <time>2019-01-10T08:44:13Z</time>
      </trkpt>
      <trkpt lat="49.3345" lon="0.92615">
        <ele>48</ele>
        <time>2019-01-10T08:44:14Z</time>
      </trkpt>
      <trkpt lat="49.33456" lon="0.92615">
        <ele>48</ele>
        <time>2019-01-10T08:44:15Z</time>
      </trkpt>
      <trkpt lat="49.33462" lon="0.92614">
        <ele>48</ele>
        <time>2019-01-10T08:44:16Z</time>
      </trkpt>
      <trkpt lat="49.33468" lon="0.92612">
        <ele>48</ele>
        <time>2019-01-10T08:44:17Z</time>
      </trkpt>
      <trkpt lat="49.33478" lon="0.92607">
        <ele>48</ele>
        <time>2019-01-10T08:44:19Z</time>
      </trkpt>
      <trkpt lat="49.33483" lon="0.92604">
        <ele>48</ele>
        <time>2019-01-10T08:44:20Z</time>
      </trkpt>
      <trkpt lat="49.33487" lon="0.92601">
        <ele>48</ele>
        <time>2019-01-10T08:44:21Z</time>
      </trkpt>
      <trkpt lat="49.33491" lon="0.92598">
        <ele>48</ele>
        <time>2019-01-10T08:44:22Z</time>
      </trkpt>
      <trkpt lat="49.33494" lon="0.92594">
        <ele>48</ele>
        <time>2019-01-10T08:44:23Z</time>
      </trkpt>
      <trkpt lat="49.33498" lon="0.92588">
        <ele>48</ele>
        <time>2019-01-10T08:44:24Z</time>
      </trkpt>
      <trkpt lat="49.33501" lon="0.92583">
        <ele>49</ele>
        <time>2019-01-10T08:44:25Z</time>
      </trkpt>
      <trkpt lat="49.33504" lon="0.92579">
        <ele>49</ele>
        <time>2019-01-10T08:44:26Z</time>
      </trkpt>
      <trkpt lat="49.33507" lon="0.92576">
        <ele>50</ele>
        <time>2019-01-10T08:44:27Z</time>
      </trkpt>
      <trkpt lat="49.33511" lon="0.92575">
        <ele>50</ele>
        <time>2019-01-10T08:44:28Z</time>
      </trkpt>
      <trkpt lat="49.33514" lon="0.92576">
        <ele>50</ele>
        <time>2019-01-10T08:44:29Z</time>
      </trkpt>
      <trkpt lat="49.33518" lon="0.92579">
        <ele>50</ele>
        <time>2019-01-10T08:44:30Z</time>
      </trkpt>
      <trkpt lat="49.33521" lon="0.92583">
        <ele>50</ele>
        <time>2019-01-10T08:44:31Z</time>
      </trkpt>
      <trkpt lat="49.33524" lon="0.92587">
        <ele>50</ele>
        <time>2019-01-10T08:44:32Z</time>
      </trkpt>
      <trkpt lat="49.33528" lon="0.92592">
        <ele>49</ele>
        <time>2019-01-10T08:44:33Z</time>
      </trkpt>
      <trkpt lat="49.33531" lon="0.92596">
        <ele>49</ele>
        <time>2019-01-10T08:44:34Z</time>
      </trkpt>
      <trkpt lat="49.33557" lon="0.92622">
        <ele>52</ele>
        <time>2019-01-10T08:44:42Z</time>
      </trkpt>
      <trkpt lat="49.33579" lon="0.92631">
        <ele>56</ele>
        <time>2019-01-10T08:44:47Z</time>
      </trkpt>
      <trkpt lat="49.33605" lon="0.92639">
        <ele>62</ele>
        <time>2019-01-10T08:44:55Z</time>
      </trkpt>
      <trkpt lat="49.33631" lon="0.9266">
        <ele>66</ele>
        <time>2019-01-10T08:45:03Z</time>
      </trkpt>
      <trkpt lat="49.33654" lon="0.92689">
        <ele>70</ele>
        <time>2019-01-10T08:45:11Z</time>
      </trkpt>
      <trkpt lat="49.33674" lon="0.92718">
        <ele>72</ele>
        <time>2019-01-10T08:45:18Z</time>
      </trkpt>
      <trkpt lat="49.33688" lon="0.9274">
        <ele>74</ele>
        <time>2019-01-10T08:45:24Z</time>
      </trkpt>
      <trkpt lat="49.33708" lon="0.9276">
        <ele>78</ele>
        <time>2019-01-10T08:45:31Z</time>
      </trkpt>
      <trkpt lat="49.33725" lon="0.92774">
        <ele>81</ele>
        <time>2019-01-10T08:45:38Z</time>
      </trkpt>
      <trkpt lat="49.33736" lon="0.92787">
        <ele>84</ele>
        <time>2019-01-10T08:45:44Z</time>
      </trkpt>
      <trkpt lat="49.33752" lon="0.92804">
        <ele>88</ele>
        <time>2019-01-10T08:45:51Z</time>
      </trkpt>
      <trkpt lat="49.33767" lon="0.92818">
        <ele>92</ele>
        <time>2019-01-10T08:45:58Z</time>
      </trkpt>
      <trkpt lat="49.33779" lon="0.92829">
        <ele>93</ele>
        <time>2019-01-10T08:46:04Z</time>
      </trkpt>
      <trkpt lat="49.33791" lon="0.92841">
        <ele>95</ele>
        <time>2019-01-10T08:46:11Z</time>
      </trkpt>
      <trkpt lat="49.33792" lon="0.92843">
        <ele>96</ele>
        <time>2019-01-10T08:46:12Z</time>
      </trkpt>
      <trkpt lat="49.33806" lon="0.92856">
        <ele>99</ele>
        <time>2019-01-10T08:46:19Z</time>
      </trkpt>
      <trkpt lat="49.33818" lon="0.92867">
        <ele>101</ele>
        <time>2019-01-10T08:46:25Z</time>
      </trkpt>
      <trkpt lat="49.3382" lon="0.92869">
        <ele>101</ele>
        <time>2019-01-10T08:46:26Z</time>
      </trkpt>
      <trkpt lat="49.33822" lon="0.92871">
        <ele>101</ele>
        <time>2019-01-10T08:46:27Z</time>
      </trkpt>
      <trkpt lat="49.33828" lon="0.92878">
        <ele>102</ele>
        <time>2019-01-10T08:46:31Z</time>
      </trkpt>
      <trkpt lat="49.3383" lon="0.9288">
        <ele>102</ele>
        <time>2019-01-10T08:46:32Z</time>
      </trkpt>
      <trkpt lat="49.33831" lon="0.92882">
        <ele>102</ele>
        <time>2019-01-10T08:46:33Z</time>
      </trkpt>
      <trkpt lat="49.33835" lon="0.92888">
        <ele>103</ele>
        <time>2019-01-10T08:46:40Z</time>
      </trkpt>
      <trkpt lat="49.3384" lon="0.92888">
        <ele>104</ele>
        <time>2019-01-10T08:46:53Z</time>
      </trkpt>
      <trkpt lat="49.33841" lon="0.92892">
        <ele>104</ele>
        <time>2019-01-10T08:47:07Z</time>
      </trkpt>
      <trkpt lat="49.33841" lon="0.92894">
        <ele>104</ele>
        <time>2019-01-10T08:47:20Z</time>
      </trkpt>
      <trkpt lat="49.33843" lon="0.92899">
        <ele>104</ele>
        <time>2019-01-10T08:47:33Z</time>
      </trkpt>
      <trkpt lat="49.33851" lon="0.92907">
        <ele>105</ele>
        <time>2019-01-10T08:47:40Z</time>
      </trkpt>
      <trkpt lat="49.33857" lon="0.92916">
        <ele>107</ele>
        <time>2019-01-10T08:47:44Z</time>
      </trkpt>
      <trkpt lat="49.33859" lon="0.92918">
        <ele>107</ele>
        <time>2019-01-10T08:47:45Z</time>
      </trkpt>
      <trkpt lat="49.33861" lon="0.92921">
        <ele>107</ele>
        <time>2019-01-10T08:47:46Z</time>
      </trkpt>
      <trkpt lat="49.33863" lon="0.92924">
        <ele>107</ele>
        <time>2019-01-10T08:47:47Z</time>
      </trkpt>
      <trkpt lat="49.33865" lon="0.92927">
        <ele>107</ele>
        <time>2019-01-10T08:47:48Z</time>
      </trkpt>
      <trkpt lat="49.33867" lon="0.92932">
        <ele>107</ele>
        <time>2019-01-10T08:47:49Z</time>
      </trkpt>
      <trkpt lat="49.3387" lon="0.92936">
        <ele>108</ele>
        <time>2019-01-10T08:47:50Z</time>
      </trkpt>
      <trkpt lat="49.33886" lon="0.9296">
        <ele>109</ele>
        <time>2019-01-10T08:47:56Z</time>
      </trkpt>
      <trkpt lat="49.33893" lon="0.92966">
        <ele>110</ele>
        <time>2019-01-10T08:47:59Z</time>
      </trkpt>
      <trkpt lat="49.33894" lon="0.92969">
        <ele>110</ele>
        <time>2019-01-10T08:48:00Z</time>
      </trkpt>
      <trkpt lat="49.33894" lon="0.92989">
        <ele>109</ele>
        <time>2019-01-10T08:48:05Z</time>
      </trkpt>
      <trkpt lat="49.33898" lon="0.93013">
        <ele>108</ele>
        <time>2019-01-10T08:48:09Z</time>
      </trkpt>
      <trkpt lat="49.33903" lon="0.93021">
        <ele>108</ele>
        <time>2019-01-10T08:48:11Z</time>
      </trkpt>
      <trkpt lat="49.33906" lon="0.93045">
        <ele>106</ele>
        <time>2019-01-10T08:48:15Z</time>
      </trkpt>
      <trkpt lat="49.33915" lon="0.93068">
        <ele>106</ele>
        <time>2019-01-10T08:48:19Z</time>
      </trkpt>
      <trkpt lat="49.33922" lon="0.93091">
        <ele>105</ele>
        <time>2019-01-10T08:48:23Z</time>
      </trkpt>
      <trkpt lat="49.33924" lon="0.93095">
        <ele>105</ele>
        <time>2019-01-10T08:48:24Z</time>
      </trkpt>
      <trkpt lat="49.33925" lon="0.931">
        <ele>105</ele>
        <time>2019-01-10T08:48:25Z</time>
      </trkpt>
      <trkpt lat="49.33927" lon="0.93105">
        <ele>105</ele>
        <time>2019-01-10T08:48:26Z</time>
      </trkpt>
      <trkpt lat="49.33928" lon="0.9311">
        <ele>105</ele>
        <time>2019-01-10T08:48:27Z</time>
      </trkpt>
      <trkpt lat="49.3393" lon="0.93116">
        <ele>105</ele>
        <time>2019-01-10T08:48:28Z</time>
      </trkpt>
      <trkpt lat="49.33932" lon="0.93122">
        <ele>105</ele>
        <time>2019-01-10T08:48:29Z</time>
      </trkpt>
      <trkpt lat="49.33939" lon="0.9315">
        <ele>106</ele>
        <time>2019-01-10T08:48:34Z</time>
      </trkpt>
      <trkpt lat="49.33948" lon="0.93178">
        <ele>107</ele>
        <time>2019-01-10T08:48:40Z</time>
      </trkpt>
      <trkpt lat="49.33957" lon="0.93196">
        <ele>109</ele>
        <time>2019-01-10T08:48:45Z</time>
      </trkpt>
      <trkpt lat="49.33964" lon="0.93203">
        <ele>110</ele>
        <time>2019-01-10T08:48:48Z</time>
      </trkpt>
      <trkpt lat="49.33971" lon="0.93224">
        <ele>111</ele>
        <time>2019-01-10T08:48:54Z</time>
      </trkpt>
      <trkpt lat="49.33969" lon="0.93249">
        <ele>111</ele>
        <time>2019-01-10T08:49:00Z</time>
      </trkpt>
      <trkpt lat="49.33967" lon="0.93272">
        <ele>110</ele>
        <time>2019-01-10T08:49:07Z</time>
      </trkpt>
      <trkpt lat="49.33968" lon="0.9328">
        <ele>111</ele>
        <time>2019-01-10T08:49:13Z</time>
      </trkpt>
      <trkpt lat="49.33967" lon="0.93286">
        <ele>111</ele>
        <time>2019-01-10T08:49:28Z</time>
      </trkpt>
      <trkpt lat="49.33967" lon="0.93287">
        <ele>111</ele>
        <time>2019-01-10T08:49:30Z</time>
      </trkpt>
      <trkpt lat="49.33964" lon="0.93296">
        <ele>110</ele>
        <time>2019-01-10T08:49:34Z</time>
      </trkpt>
      <trkpt lat="49.33961" lon="0.93317">
        <ele>110</ele>
        <time>2019-01-10T08:49:40Z</time>
      </trkpt>
      <trkpt lat="49.33958" lon="0.93329">
        <ele>110</ele>
        <time>2019-01-10T08:49:43Z</time>
      </trkpt>
      <trkpt lat="49.33957" lon="0.93336">
        <ele>110</ele>
        <time>2019-01-10T08:49:45Z</time>
      </trkpt>
      <trkpt lat="49.33955" lon="0.93345">
        <ele>110</ele>
        <time>2019-01-10T08:49:47Z</time>
      </trkpt>
      <trkpt lat="49.33951" lon="0.93355">
        <ele>110</ele>
        <time>2019-01-10T08:49:49Z</time>
      </trkpt>
      <trkpt lat="49.33949" lon="0.93386">
        <ele>110</ele>
        <time>2019-01-10T08:49:55Z</time>
      </trkpt>
      <trkpt lat="49.33943" lon="0.93424">
        <ele>109</ele>
        <time>2019-01-10T08:50:02Z</time>
      </trkpt>
      <trkpt lat="49.33937" lon="0.9346">
        <ele>108</ele>
        <time>2019-01-10T08:50:08Z</time>
      </trkpt>
      <trkpt lat="49.3393" lon="0.93489">
        <ele>108</ele>
        <time>2019-01-10T08:50:13Z</time>
      </trkpt>
      <trkpt lat="49.33926" lon="0.93513">
        <ele>108</ele>
        <time>2019-01-10T08:50:18Z</time>
      </trkpt>
      <trkpt lat="49.33918" lon="0.93547">
        <ele>108</ele>
        <time>2019-01-10T08:50:24Z</time>
      </trkpt>
      <trkpt lat="49.33912" lon="0.93569">
        <ele>108</ele>
        <time>2019-01-10T08:50:28Z</time>
      </trkpt>
      <trkpt lat="49.33904" lon="0.936">
        <ele>109</ele>
        <time>2019-01-10T08:50:34Z</time>
      </trkpt>
      <trkpt lat="49.339" lon="0.93636">
        <ele>111</ele>
        <time>2019-01-10T08:50:40Z</time>
      </trkpt>
      <trkpt lat="49.33893" lon="0.93667">
        <ele>112</ele>
        <time>2019-01-10T08:50:46Z</time>
      </trkpt>
      <trkpt lat="49.33887" lon="0.93694">
        <ele>114</ele>
        <time>2019-01-10T08:50:51Z</time>
      </trkpt>
      <trkpt lat="49.33876" lon="0.93704">
        <ele>113</ele>
        <time>2019-01-10T08:50:56Z</time>
      </trkpt>
      <trkpt lat="49.33866" lon="0.93715">
        <ele>113</ele>
        <time>2019-01-10T08:51:00Z</time>
      </trkpt>
      <trkpt lat="49.33844" lon="0.93726">
        <ele>112</ele>
        <time>2019-01-10T08:51:06Z</time>
      </trkpt>
      <trkpt lat="49.33829" lon="0.93726">
        <ele>111</ele>
        <time>2019-01-10T08:51:10Z</time>
      </trkpt>
      <trkpt lat="49.33816" lon="0.93722">
        <ele>109</ele>
        <time>2019-01-10T08:51:13Z</time>
      </trkpt>
      <trkpt lat="49.33801" lon="0.93719">
        <ele>107</ele>
        <time>2019-01-10T08:51:16Z</time>
      </trkpt>
      <trkpt lat="49.33771" lon="0.93712">
        <ele>104</ele>
        <time>2019-01-10T08:51:23Z</time>
      </trkpt>
      <trkpt lat="49.33766" lon="0.9371">
        <ele>103</ele>
        <time>2019-01-10T08:51:24Z</time>
      </trkpt>
      <trkpt lat="49.33757" lon="0.93708">
        <ele>103</ele>
        <time>2019-01-10T08:51:26Z</time>
      </trkpt>
      <trkpt lat="49.33732" lon="0.937">
        <ele>100</ele>
        <time>2019-01-10T08:51:31Z</time>
      </trkpt>
      <trkpt lat="49.33711" lon="0.93693">
        <ele>99</ele>
        <time>2019-01-10T08:51:37Z</time>
      </trkpt>
      <trkpt lat="49.33683" lon="0.9368">
        <ele>96</ele>
        <time>2019-01-10T08:51:45Z</time>
      </trkpt>
      <trkpt lat="49.33665" lon="0.93676">
        <ele>95</ele>
        <time>2019-01-10T08:51:50Z</time>
      </trkpt>
      <trkpt lat="49.33644" lon="0.93668">
        <ele>94</ele>
        <time>2019-01-10T08:51:56Z</time>
      </trkpt>
      <trkpt lat="49.33629" lon="0.93675">
        <ele>95</ele>
        <time>2019-01-10T08:52:01Z</time>
      </trkpt>
      <trkpt lat="49.33617" lon="0.93698">
        <ele>98</ele>
        <time>2019-01-10T08:52:07Z</time>
      </trkpt>
      <trkpt lat="49.33609" lon="0.93723">
        <ele>99</ele>
        <time>2019-01-10T08:52:13Z</time>
      </trkpt>
      <trkpt lat="49.33605" lon="0.93729">
        <ele>99</ele>
        <time>2019-01-10T08:52:15Z</time>
      </trkpt>
      <trkpt lat="49.33605" lon="0.93734">
        <ele>99</ele>
        <time>2019-01-10T08:52:16Z</time>
      </trkpt>
      <trkpt lat="49.33605" lon="0.93738">
        <ele>99</ele>
        <time>2019-01-10T08:52:17Z</time>
      </trkpt>
      <trkpt lat="49.33611" lon="0.93756">
        <ele>101</ele>
        <time>2019-01-10T08:52:22Z</time>
      </trkpt>
      <trkpt lat="49.33615" lon="0.93769">
        <ele>102</ele>
        <time>2019-01-10T08:52:27Z</time>
      </trkpt>
      <trkpt lat="49.33618" lon="0.93798">
        <ele>102</ele>
        <time>2019-01-10T08:52:33Z</time>
      </trkpt>
      <trkpt lat="49.33623" lon="0.93813">
        <ele>103</ele>
        <time>2019-01-10T08:52:37Z</time>
      </trkpt>
      <trkpt lat="49.33629" lon="0.93821">
        <ele>104</ele>
        <time>2019-01-10T08:52:42Z</time>
      </trkpt>
      <trkpt lat="49.3364" lon="0.9384">
        <ele>107</ele>
        <time>2019-01-10T08:52:50Z</time>
      </trkpt>
      <trkpt lat="49.33652" lon="0.9386">
        <ele>108</ele>
        <time>2019-01-10T08:52:58Z</time>
      </trkpt>
      <trkpt lat="49.3366" lon="0.93877">
        <ele>109</ele>
        <time>2019-01-10T08:53:04Z</time>
      </trkpt>
      <trkpt lat="49.33662" lon="0.9388">
        <ele>110</ele>
        <time>2019-01-10T08:53:05Z</time>
      </trkpt>
      <trkpt lat="49.33673" lon="0.93894">
        <ele>111</ele>
        <time>2019-01-10T08:53:11Z</time>
      </trkpt>
      <trkpt lat="49.33669" lon="0.93914">
        <ele>110</ele>
        <time>2019-01-10T08:53:20Z</time>
      </trkpt>
      <trkpt lat="49.33667" lon="0.93922">
        <ele>110</ele>
        <time>2019-01-10T08:53:24Z</time>
      </trkpt>
      <trkpt lat="49.33673" lon="0.93945">
        <ele>110</ele>
        <time>2019-01-10T08:53:30Z</time>
      </trkpt>
      <trkpt lat="49.33675" lon="0.93949">
        <ele>110</ele>
        <time>2019-01-10T08:53:31Z</time>
      </trkpt>
      <trkpt lat="49.3368" lon="0.93966">
        <ele>111</ele>
        <time>2019-01-10T08:53:34Z</time>
      </trkpt>
      <trkpt lat="49.33691" lon="0.93994">
        <ele>112</ele>
        <time>2019-01-10T08:53:40Z</time>
      </trkpt>
      <trkpt lat="49.33697" lon="0.9402">
        <ele>113</ele>
        <time>2019-01-10T08:53:46Z</time>
      </trkpt>
      <trkpt lat="49.33697" lon="0.94025">
        <ele>113</ele>
        <time>2019-01-10T08:53:47Z</time>
      </trkpt>
      <trkpt lat="49.33695" lon="0.94038">
        <ele>112</ele>
        <time>2019-01-10T08:53:50Z</time>
      </trkpt>
      <trkpt lat="49.33688" lon="0.94073">
        <ele>112</ele>
        <time>2019-01-10T08:53:57Z</time>
      </trkpt>
      <trkpt lat="49.33683" lon="0.94107">
        <ele>110</ele>
        <time>2019-01-10T08:54:03Z</time>
      </trkpt>
      <trkpt lat="49.33679" lon="0.94138">
        <ele>109</ele>
        <time>2019-01-10T08:54:08Z</time>
      </trkpt>
      <trkpt lat="49.33673" lon="0.942">
        <ele>107</ele>
        <time>2019-01-10T08:54:16Z</time>
      </trkpt>
      <trkpt lat="49.33672" lon="0.94216">
        <ele>107</ele>
        <time>2019-01-10T08:54:18Z</time>
      </trkpt>
      <trkpt lat="49.33672" lon="0.94232">
        <ele>106</ele>
        <time>2019-01-10T08:54:20Z</time>
      </trkpt>
      <trkpt lat="49.33672" lon="0.94272">
        <ele>105</ele>
        <time>2019-01-10T08:54:25Z</time>
      </trkpt>
      <trkpt lat="49.3367" lon="0.94291">
        <ele>104</ele>
        <time>2019-01-10T08:54:27Z</time>
      </trkpt>
      <trkpt lat="49.3367" lon="0.94329">
        <ele>102</ele>
        <time>2019-01-10T08:54:32Z</time>
      </trkpt>
      <trkpt lat="49.33668" lon="0.94342">
        <ele>101</ele>
        <time>2019-01-10T08:54:37Z</time>
      </trkpt>
      <trkpt lat="49.33666" lon="0.94364">
        <ele>99</ele>
        <time>2019-01-10T08:54:43Z</time>
      </trkpt>
      <trkpt lat="49.33665" lon="0.94383">
        <ele>98</ele>
        <time>2019-01-10T08:54:46Z</time>
      </trkpt>
      <trkpt lat="49.33662" lon="0.9442">
        <ele>95</ele>
        <time>2019-01-10T08:54:51Z</time>
      </trkpt>
      <trkpt lat="49.33659" lon="0.9446">
        <ele>92</ele>
        <time>2019-01-10T08:54:56Z</time>
      </trkpt>
      <trkpt lat="49.33659" lon="0.94481">
        <ele>92</ele>
        <time>2019-01-10T08:54:59Z</time>
      </trkpt>
      <trkpt lat="49.33647" lon="0.94522">
        <ele>89</ele>
        <time>2019-01-10T08:55:05Z</time>
      </trkpt>
      <trkpt lat="49.33638" lon="0.94549">
        <ele>86</ele>
        <time>2019-01-10T08:55:10Z</time>
      </trkpt>
      <trkpt lat="49.33631" lon="0.94567">
        <ele>83</ele>
        <time>2019-01-10T08:55:13Z</time>
      </trkpt>
      <trkpt lat="49.3362" lon="0.94612">
        <ele>79</ele>
        <time>2019-01-10T08:55:20Z</time>
      </trkpt>
      <trkpt lat="49.33619" lon="0.94619">
        <ele>78</ele>
        <time>2019-01-10T08:55:26Z</time>
      </trkpt>
      <trkpt lat="49.33616" lon="0.94628">
        <ele>77</ele>
        <time>2019-01-10T08:55:41Z</time>
      </trkpt>
      <trkpt lat="49.33615" lon="0.94634">
        <ele>76</ele>
        <time>2019-01-10T08:55:54Z</time>
      </trkpt>
      <trkpt lat="49.33614" lon="0.94634">
        <ele>76</ele>
        <time>2019-01-10T08:56:05Z</time>
      </trkpt>
      <trkpt lat="49.33614" lon="0.94637">
        <ele>76</ele>
        <time>2019-01-10T08:56:07Z</time>
      </trkpt>
      <trkpt lat="49.33615" lon="0.94643">
        <ele>76</ele>
        <time>2019-01-10T08:56:10Z</time>
      </trkpt>
      <trkpt lat="49.33615" lon="0.94671">
        <ele>74</ele>
        <time>2019-01-10T08:56:16Z</time>
      </trkpt>
      <trkpt lat="49.33616" lon="0.94675">
        <ele>74</ele>
        <time>2019-01-10T08:56:17Z</time>
      </trkpt>
      <trkpt lat="49.33621" lon="0.94703">
        <ele>74</ele>
        <time>2019-01-10T08:56:23Z</time>
      </trkpt>
      <trkpt lat="49.33625" lon="0.94718">
        <ele>73</ele>
        <time>2019-01-10T08:56:26Z</time>
      </trkpt>
      <trkpt lat="49.33635" lon="0.94744">
        <ele>73</ele>
        <time>2019-01-10T08:56:32Z</time>
      </trkpt>
      <trkpt lat="49.33643" lon="0.94766">
        <ele>72</ele>
        <time>2019-01-10T08:56:37Z</time>
      </trkpt>
      <trkpt lat="49.33649" lon="0.94789">
        <ele>70</ele>
        <time>2019-01-10T08:56:43Z</time>
      </trkpt>
      <trkpt lat="49.33658" lon="0.94814">
        <ele>69</ele>
        <time>2019-01-10T08:56:48Z</time>
      </trkpt>
      <trkpt lat="49.33668" lon="0.94835">
        <ele>68</ele>
        <time>2019-01-10T08:56:52Z</time>
      </trkpt>
      <trkpt lat="49.33684" lon="0.94865">
        <ele>66</ele>
        <time>2019-01-10T08:56:58Z</time>
      </trkpt>
      <trkpt lat="49.33703" lon="0.94905">
        <ele>61</ele>
        <time>2019-01-10T08:57:06Z</time>
      </trkpt>
      <trkpt lat="49.33712" lon="0.94912">
        <ele>61</ele>
        <time>2019-01-10T08:57:10Z</time>
      </trkpt>
      <trkpt lat="49.33724" lon="0.9494">
        <ele>59</ele>
        <time>2019-01-10T08:57:15Z</time>
      </trkpt>
      <trkpt lat="49.33722" lon="0.94952">
        <ele>59</ele>
        <time>2019-01-10T08:57:19Z</time>
      </trkpt>
      <trkpt lat="49.33709" lon="0.94966">
        <ele>56</ele>
        <time>2019-01-10T08:57:23Z</time>
      </trkpt>
      <trkpt lat="49.33692" lon="0.9499">
        <ele>50</ele>
        <time>2019-01-10T08:57:28Z</time>
      </trkpt>
      <trkpt lat="49.3369" lon="0.94993">
        <ele>49</ele>
        <time>2019-01-10T08:57:29Z</time>
      </trkpt>
      <trkpt lat="49.33674" lon="0.95014">
        <ele>45</ele>
        <time>2019-01-10T08:57:35Z</time>
      </trkpt>
      <trkpt lat="49.33671" lon="0.95017">
        <ele>44</ele>
        <time>2019-01-10T08:57:36Z</time>
      </trkpt>
      <trkpt lat="49.33669" lon="0.9502">
        <ele>43</ele>
        <time>2019-01-10T08:57:37Z</time>
      </trkpt>
      <trkpt lat="49.33667" lon="0.95022">
        <ele>43</ele>
        <time>2019-01-10T08:57:38Z</time>
      </trkpt>
      <trkpt lat="49.33661" lon="0.9503">
        <ele>41</ele>
        <time>2019-01-10T08:57:41Z</time>
      </trkpt>
      <trkpt lat="49.33659" lon="0.95035">
        <ele>41</ele>
        <time>2019-01-10T08:57:42Z</time>
      </trkpt>
      <trkpt lat="49.33655" lon="0.95062">
        <ele>40</ele>
        <time>2019-01-10T08:57:48Z</time>
      </trkpt>
      <trkpt lat="49.33655" lon="0.95066">
        <ele>40</ele>
        <time>2019-01-10T08:57:49Z</time>
      </trkpt>
      <trkpt lat="49.33658" lon="0.95084">
        <ele>40</ele>
        <time>2019-01-10T08:57:54Z</time>
      </trkpt>
      <trkpt lat="49.3367" lon="0.95117">
        <ele>42</ele>
        <time>2019-01-10T08:58:01Z</time>
      </trkpt>
      <trkpt lat="49.33671" lon="0.95122">
        <ele>43</ele>
        <time>2019-01-10T08:58:02Z</time>
      </trkpt>
      <trkpt lat="49.33673" lon="0.95147">
        <ele>42</ele>
        <time>2019-01-10T08:58:08Z</time>
      </trkpt>
      <trkpt lat="49.33674" lon="0.95152">
        <ele>43</ele>
        <time>2019-01-10T08:58:09Z</time>
      </trkpt>
      <trkpt lat="49.33677" lon="0.95161">
        <ele>43</ele>
        <time>2019-01-10T08:58:11Z</time>
      </trkpt>
      <trkpt lat="49.33677" lon="0.95185">
        <ele>42</ele>
        <time>2019-01-10T08:58:17Z</time>
      </trkpt>
      <trkpt lat="49.33677" lon="0.9519">
        <ele>42</ele>
        <time>2019-01-10T08:58:18Z</time>
      </trkpt>
      <trkpt lat="49.33681" lon="0.9522">
        <ele>43</ele>
        <time>2019-01-10T08:58:24Z</time>
      </trkpt>
      <trkpt lat="49.33688" lon="0.95245">
        <ele>44</ele>
        <time>2019-01-10T08:58:29Z</time>
      </trkpt>
      <trkpt lat="49.33691" lon="0.95274">
        <ele>44</ele>
        <time>2019-01-10T08:58:35Z</time>
      </trkpt>
      <trkpt lat="49.33692" lon="0.95279">
        <ele>44</ele>
        <time>2019-01-10T08:58:36Z</time>
      </trkpt>
      <trkpt lat="49.33699" lon="0.95309">
        <ele>46</ele>
        <time>2019-01-10T08:58:42Z</time>
      </trkpt>
      <trkpt lat="49.337" lon="0.95324">
        <ele>46</ele>
        <time>2019-01-10T08:58:46Z</time>
      </trkpt>
      <trkpt lat="49.33699" lon="0.95335">
        <ele>46</ele>
        <time>2019-01-10T08:58:52Z</time>
      </trkpt>
      <trkpt lat="49.33699" lon="0.95344">
        <ele>46</ele>
        <time>2019-01-10T08:58:58Z</time>
      </trkpt>
      <trkpt lat="49.33698" lon="0.95349">
        <ele>46</ele>
        <time>2019-01-10T08:59:00Z</time>
      </trkpt>
      <trkpt lat="49.33698" lon="0.95364">
        <ele>46</ele>
        <time>2019-01-10T08:59:04Z</time>
      </trkpt>
      <trkpt lat="49.33695" lon="0.95385">
        <ele>46</ele>
        <time>2019-01-10T08:59:09Z</time>
      </trkpt>
      <trkpt lat="49.33691" lon="0.95401">
        <ele>45</ele>
        <time>2019-01-10T08:59:14Z</time>
      </trkpt>
      <trkpt lat="49.3369" lon="0.95413">
        <ele>45</ele>
        <time>2019-01-10T08:59:19Z</time>
      </trkpt>
      <trkpt lat="49.33689" lon="0.95415">
        <ele>45</ele>
        <time>2019-01-10T08:59:20Z</time>
      </trkpt>
      <trkpt lat="49.33684" lon="0.95437">
        <ele>45</ele>
        <time>2019-01-10T08:59:25Z</time>
      </trkpt>
      <trkpt lat="49.33682" lon="0.95461">
        <ele>46</ele>
        <time>2019-01-10T08:59:29Z</time>
      </trkpt>
      <trkpt lat="49.33678" lon="0.95474">
        <ele>46</ele>
        <time>2019-01-10T08:59:33Z</time>
      </trkpt>
      <trkpt lat="49.33676" lon="0.95494">
        <ele>47</ele>
        <time>2019-01-10T08:59:37Z</time>
      </trkpt>
      <trkpt lat="49.33667" lon="0.95528">
        <ele>46</ele>
        <time>2019-01-10T08:59:43Z</time>
      </trkpt>
      <trkpt lat="49.33658" lon="0.9556">
        <ele>46</ele>
        <time>2019-01-10T08:59:49Z</time>
      </trkpt>
      <trkpt lat="49.33652" lon="0.95596">
        <ele>45</ele>
        <time>2019-01-10T08:59:55Z</time>
      </trkpt>
      <trkpt lat="49.33648" lon="0.9565">
        <ele>45</ele>
        <time>2019-01-10T09:00:03Z</time>
      </trkpt>
      <trkpt lat="49.33647" lon="0.95656">
        <ele>45</ele>
        <time>2019-01-10T09:00:04Z</time>
      </trkpt>
      <trkpt lat="49.33646" lon="0.95713">
        <ele>45</ele>
        <time>2019-01-10T09:00:12Z</time>
      </trkpt>
      <trkpt lat="49.33645" lon="0.95749">
        <ele>44</ele>
        <time>2019-01-10T09:00:18Z</time>
      </trkpt>
      <trkpt lat="49.33644" lon="0.95786">
        <ele>44</ele>
        <time>2019-01-10T09:00:24Z</time>
      </trkpt>
      <trkpt lat="49.33644" lon="0.95801">
        <ele>44</ele>
        <time>2019-01-10T09:00:27Z</time>
      </trkpt>
      <trkpt lat="49.33653" lon="0.9582">
        <ele>45</ele>
        <time>2019-01-10T09:00:33Z</time>
      </trkpt>
      <trkpt lat="49.33663" lon="0.95831">
        <ele>47</ele>
        <time>2019-01-10T09:00:39Z</time>
      </trkpt>
      <trkpt lat="49.33672" lon="0.95836">
        <ele>48</ele>
        <time>2019-01-10T09:00:44Z</time>
      </trkpt>
      <trkpt lat="49.33673" lon="0.95836">
        <ele>48</ele>
        <time>2019-01-10T09:00:45Z</time>
      </trkpt>
      <trkpt lat="49.33685" lon="0.95848">
        <ele>49</ele>
        <time>2019-01-10T09:00:53Z</time>
      </trkpt>
      <trkpt lat="49.33686" lon="0.95858">
        <ele>49</ele>
        <time>2019-01-10T09:00:58Z</time>
      </trkpt>
      <trkpt lat="49.33684" lon="0.95892">
        <ele>49</ele>
      </trkpt>
      <trkpt lat="49.33732" lon="0.95949">
        <ele>54</ele>
      </trkpt>
      <trkpt lat="49.33744" lon="0.95987">
        <ele>56</ele>
      </trkpt>
      <trkpt lat="49.33746" lon="0.96046">
        <ele>57</ele>
      </trkpt>
      <trkpt lat="49.3373" lon="0.96097">
        <ele>60</ele>
      </trkpt>
      <trkpt lat="49.33721" lon="0.96129">
        <ele>62</ele>
      </trkpt>
      <trkpt lat="49.33726" lon="0.96162">
        <ele>65</ele>
      </trkpt>
      <trkpt lat="49.3376" lon="0.96235">
        <ele>74</ele>
      </trkpt>
      <trkpt lat="49.33835" lon="0.96233">
        <ele>81</ele>
        <time>2019-01-10T09:05:56Z</time>
      </trkpt>
      <trkpt lat="49.33831" lon="0.96254">
        <ele>84</ele>
        <time>2019-01-10T09:06:03Z</time>
      </trkpt>
      <trkpt lat="49.33819" lon="0.96278">
        <ele>86</ele>
        <time>2019-01-10T09:06:10Z</time>
      </trkpt>
      <trkpt lat="49.33831" lon="0.96294">
        <ele>90</ele>
        <time>2019-01-10T09:06:16Z</time>
      </trkpt>
      <trkpt lat="49.33841" lon="0.96299">
        <ele>91</ele>
        <time>2019-01-10T09:06:22Z</time>
      </trkpt>
      <trkpt lat="49.33854" lon="0.96296">
        <ele>92</ele>
        <time>2019-01-10T09:06:29Z</time>
      </trkpt>
      <trkpt lat="49.33865" lon="0.96292">
        <ele>92</ele>
        <time>2019-01-10T09:06:35Z</time>
      </trkpt>
      <trkpt lat="49.33877" lon="0.96294">
        <ele>93</ele>
        <time>2019-01-10T09:06:41Z</time>
      </trkpt>
      <trkpt lat="49.33882" lon="0.96295">
        <ele>94</ele>
        <time>2019-01-10T09:06:45Z</time>
      </trkpt>
      <trkpt lat="49.33879" lon="0.96327">
        <ele>98</ele>
        <time>2019-01-10T09:06:57Z</time>
      </trkpt>
      <trkpt lat="49.33878" lon="0.9633">
        <ele>99</ele>
        <time>2019-01-10T09:06:58Z</time>
      </trkpt>
      <trkpt lat="49.33878" lon="0.96339">
        <ele>100</ele>
        <time>2019-01-10T09:07:01Z</time>
      </trkpt>
      <trkpt lat="49.33876" lon="0.96352">
        <ele>102</ele>
        <time>2019-01-10T09:07:05Z</time>
      </trkpt>
      <trkpt lat="49.3388" lon="0.96367">
        <ele>105</ele>
        <time>2019-01-10T09:07:11Z</time>
      </trkpt>
      <trkpt lat="49.3388" lon="0.96381">
        <ele>106</ele>
        <time>2019-01-10T09:07:15Z</time>
      </trkpt>
      <trkpt lat="49.33875" lon="0.96403">
        <ele>109</ele>
        <time>2019-01-10T09:07:22Z</time>
      </trkpt>
      <trkpt lat="49.33872" lon="0.9643">
        <ele>112</ele>
        <time>2019-01-10T09:07:30Z</time>
      </trkpt>
      <trkpt lat="49.33863" lon="0.96443">
        <ele>113</ele>
        <time>2019-01-10T09:07:36Z</time>
      </trkpt>
      <trkpt lat="49.33862" lon="0.96445">
        <ele>113</ele>
        <time>2019-01-10T09:07:37Z</time>
      </trkpt>
      <trkpt lat="49.33857" lon="0.96459">
        <ele>113</ele>
        <time>2019-01-10T09:07:42Z</time>
      </trkpt>
      <trkpt lat="49.33852" lon="0.96485">
        <ele>115</ele>
        <time>2019-01-10T09:07:50Z</time>
      </trkpt>
      <trkpt lat="49.33851" lon="0.96507">
        <ele>116</ele>
        <time>2019-01-10T09:07:56Z</time>
      </trkpt>
      <trkpt lat="49.33845" lon="0.96524">
        <ele>115</ele>
        <time>2019-01-10T09:08:02Z</time>
      </trkpt>
      <trkpt lat="49.33848" lon="0.96537">
        <ele>115</ele>
        <time>2019-01-10T09:08:06Z</time>
      </trkpt>
      <trkpt lat="49.33851" lon="0.96549">
        <ele>115</ele>
        <time>2019-01-10T09:08:11Z</time>
      </trkpt>
      <trkpt lat="49.33847" lon="0.96566">
        <ele>115</ele>
        <time>2019-01-10T09:08:16Z</time>
      </trkpt>
      <trkpt lat="49.33847" lon="0.96573">
        <ele>115</ele>
        <time>2019-01-10T09:08:18Z</time>
      </trkpt>
      <trkpt lat="49.33848" lon="0.96589">
        <ele>114</ele>
        <time>2019-01-10T09:08:21Z</time>
      </trkpt>
      <trkpt lat="49.33842" lon="0.96609">
        <ele>114</ele>
        <time>2019-01-10T09:08:26Z</time>
      </trkpt>
      <trkpt lat="49.33841" lon="0.96629">
        <ele>113</ele>
        <time>2019-01-10T09:08:30Z</time>
      </trkpt>
      <trkpt lat="49.3384" lon="0.96655">
        <ele>112</ele>
        <time>2019-01-10T09:08:36Z</time>
      </trkpt>
      <trkpt lat="49.33833" lon="0.96688">
        <ele>112</ele>
        <time>2019-01-10T09:08:42Z</time>
      </trkpt>
      <trkpt lat="49.33832" lon="0.96698">
        <ele>111</ele>
        <time>2019-01-10T09:08:44Z</time>
      </trkpt>
      <trkpt lat="49.33831" lon="0.96708">
        <ele>111</ele>
        <time>2019-01-10T09:08:46Z</time>
      </trkpt>
      <trkpt lat="49.33826" lon="0.96714">
        <ele>112</ele>
        <time>2019-01-10T09:08:51Z</time>
      </trkpt>
      <trkpt lat="49.33816" lon="0.96706">
        <ele>113</ele>
        <time>2019-01-10T09:08:55Z</time>
      </trkpt>
      <trkpt lat="49.33814" lon="0.96701">
        <ele>113</ele>
        <time>2019-01-10T09:08:56Z</time>
      </trkpt>
      <trkpt lat="49.33812" lon="0.96697">
        <ele>113</ele>
        <time>2019-01-10T09:08:57Z</time>
      </trkpt>
      <trkpt lat="49.33812" lon="0.96693">
        <ele>113</ele>
        <time>2019-01-10T09:08:58Z</time>
      </trkpt>
      <trkpt lat="49.33813" lon="0.96684">
        <ele>113</ele>
        <time>2019-01-10T09:09:00Z</time>
      </trkpt>
      <trkpt lat="49.33813" lon="0.96655">
        <ele>114</ele>
        <time>2019-01-10T09:09:06Z</time>
      </trkpt>
      <trkpt lat="49.33813" lon="0.96651">
        <ele>114</ele>
        <time>2019-01-10T09:09:07Z</time>
      </trkpt>
      <trkpt lat="49.33806" lon="0.9663">
        <ele>113</ele>
        <time>2019-01-10T09:09:12Z</time>
      </trkpt>
      <trkpt lat="49.33809" lon="0.96619">
        <ele>114</ele>
        <time>2019-01-10T09:09:15Z</time>
      </trkpt>
      <trkpt lat="49.33812" lon="0.9659">
        <ele>114</ele>
        <time>2019-01-10T09:09:22Z</time>
      </trkpt>
      <trkpt lat="49.33811" lon="0.96585">
        <ele>114</ele>
        <time>2019-01-10T09:09:23Z</time>
      </trkpt>
      <trkpt lat="49.33803" lon="0.96582">
        <ele>113</ele>
        <time>2019-01-10T09:09:28Z</time>
      </trkpt>
      <trkpt lat="49.33794" lon="0.96577">
        <ele>111</ele>
        <time>2019-01-10T09:09:32Z</time>
      </trkpt>
      <trkpt lat="49.33794" lon="0.96574">
        <ele>111</ele>
        <time>2019-01-10T09:09:33Z</time>
      </trkpt>
      <trkpt lat="49.33797" lon="0.96549">
        <ele>111</ele>
        <time>2019-01-10T09:09:39Z</time>
      </trkpt>
      <trkpt lat="49.33792" lon="0.96524">
        <ele>109</ele>
        <time>2019-01-10T09:09:45Z</time>
      </trkpt>
      <trkpt lat="49.33791" lon="0.96515">
        <ele>109</ele>
        <time>2019-01-10T09:09:48Z</time>
      </trkpt>
      <trkpt lat="49.33789" lon="0.96516">
        <ele>108</ele>
        <time>2019-01-10T09:09:50Z</time>
      </trkpt>
      <trkpt lat="49.33783" lon="0.96524">
        <ele>108</ele>
        <time>2019-01-10T09:09:55Z</time>
      </trkpt>
      <trkpt lat="49.33779" lon="0.96518">
        <ele>107</ele>
        <time>2019-01-10T09:09:58Z</time>
      </trkpt>
      <trkpt lat="49.33776" lon="0.96481">
        <ele>104</ele>
        <time>2019-01-10T09:10:06Z</time>
      </trkpt>
      <trkpt lat="49.33766" lon="0.96461">
        <ele>101</ele>
        <time>2019-01-10T09:10:11Z</time>
      </trkpt>
      <trkpt lat="49.3375" lon="0.96456">
        <ele>99</ele>
        <time>2019-01-10T09:10:16Z</time>
      </trkpt>
      <trkpt lat="49.33746" lon="0.96457">
        <ele>98</ele>
        <time>2019-01-10T09:10:17Z</time>
      </trkpt>
      <trkpt lat="49.33743" lon="0.96458">
        <ele>98</ele>
        <time>2019-01-10T09:10:18Z</time>
      </trkpt>
      <trkpt lat="49.3374" lon="0.96461">
        <ele>98</ele>
        <time>2019-01-10T09:10:19Z</time>
      </trkpt>
      <trkpt lat="49.33738" lon="0.96464">
        <ele>97</ele>
        <time>2019-01-10T09:10:20Z</time>
      </trkpt>
      <trkpt lat="49.33734" lon="0.96472">
        <ele>97</ele>
        <time>2019-01-10T09:10:22Z</time>
      </trkpt>
      <trkpt lat="49.33734" lon="0.96477">
        <ele>97</ele>
        <time>2019-01-10T09:10:23Z</time>
      </trkpt>
      <trkpt lat="49.33734" lon="0.96481">
        <ele>98</ele>
        <time>2019-01-10T09:10:24Z</time>
      </trkpt>
      <trkpt lat="49.33736" lon="0.96511">
        <ele>99</ele>
        <time>2019-01-10T09:10:29Z</time>
      </trkpt>
      <trkpt lat="49.33735" lon="0.96519">
        <ele>99</ele>
        <time>2019-01-10T09:10:31Z</time>
      </trkpt>
      <trkpt lat="49.33734" lon="0.96523">
        <ele>99</ele>
        <time>2019-01-10T09:10:32Z</time>
      </trkpt>
      <trkpt lat="49.33733" lon="0.96527">
        <ele>99</ele>
        <time>2019-01-10T09:10:33Z</time>
      </trkpt>
      <trkpt lat="49.33733" lon="0.96532">
        <ele>99</ele>
        <time>2019-01-10T09:10:34Z</time>
      </trkpt>
      <trkpt lat="49.33733" lon="0.96538">
        <ele>99</ele>
        <time>2019-01-10T09:10:35Z</time>
      </trkpt>
      <trkpt lat="49.33732" lon="0.96544">
        <ele>99</ele>
        <time>2019-01-10T09:10:36Z</time>
      </trkpt>
      <trkpt lat="49.33732" lon="0.9655">
        <ele>99</ele>
        <time>2019-01-10T09:10:37Z</time>
      </trkpt>
      <trkpt lat="49.33733" lon="0.96556">
        <ele>99</ele>
        <time>2019-01-10T09:10:38Z</time>
      </trkpt>
      <trkpt lat="49.33734" lon="0.96575">
        <ele>100</ele>
        <time>2019-01-10T09:10:43Z</time>
      </trkpt>
      <trkpt lat="49.33725" lon="0.96586">
        <ele>98</ele>
        <time>2019-01-10T09:10:52Z</time>
      </trkpt>
      <trkpt lat="49.33717" lon="0.96612">
        <ele>96</ele>
        <time>2019-01-10T09:20:16Z</time>
      </trkpt>
      <trkpt lat="49.33713" lon="0.96624">
        <ele>95</ele>
        <time>2019-01-10T09:20:23Z</time>
      </trkpt>
      <trkpt lat="49.33715" lon="0.96649">
        <ele>95</ele>
        <time>2019-01-10T09:20:28Z</time>
      </trkpt>
      <trkpt lat="49.33719" lon="0.96675">
        <ele>95</ele>
        <time>2019-01-10T09:20:33Z</time>
      </trkpt>
      <trkpt lat="49.33723" lon="0.9669">
        <ele>96</ele>
        <time>2019-01-10T09:20:36Z</time>
      </trkpt>
      <trkpt lat="49.33724" lon="0.96716">
        <ele>95</ele>
        <time>2019-01-10T09:20:41Z</time>
      </trkpt>
      <trkpt lat="49.33725" lon="0.9673">
        <ele>95</ele>
        <time>2019-01-10T09:20:43Z</time>
      </trkpt>
      <trkpt lat="49.33726" lon="0.96753">
        <ele>95</ele>
        <time>2019-01-10T09:20:46Z</time>
      </trkpt>
      <trkpt lat="49.33724" lon="0.96796">
        <ele>95</ele>
        <time>2019-01-10T09:20:52Z</time>
      </trkpt>
      <trkpt lat="49.33724" lon="0.96835">
        <ele>95</ele>
        <time>2019-01-10T09:20:58Z</time>
      </trkpt>
      <trkpt lat="49.33725" lon="0.96872">
        <ele>96</ele>
        <time>2019-01-10T09:21:03Z</time>
      </trkpt>
      <trkpt lat="49.33723" lon="0.96908">
        <ele>97</ele>
        <time>2019-01-10T09:21:10Z</time>
      </trkpt>
      <trkpt lat="49.33722" lon="0.96931">
        <ele>97</ele>
        <time>2019-01-10T09:21:15Z</time>
      </trkpt>
      <trkpt lat="49.3372" lon="0.96955">
        <ele>98</ele>
        <time>2019-01-10T09:21:20Z</time>
      </trkpt>
      <trkpt lat="49.33718" lon="0.96972">
        <ele>99</ele>
        <time>2019-01-10T09:21:23Z</time>
      </trkpt>
      <trkpt lat="49.33709" lon="0.97">
        <ele>98</ele>
        <time>2019-01-10T09:21:29Z</time>
      </trkpt>
      <trkpt lat="49.33708" lon="0.97005">
        <ele>98</ele>
        <time>2019-01-10T09:21:30Z</time>
      </trkpt>
      <trkpt lat="49.33706" lon="0.97034">
        <ele>99</ele>
        <time>2019-01-10T09:21:36Z</time>
      </trkpt>
      <trkpt lat="49.33705" lon="0.97039">
        <ele>99</ele>
        <time>2019-01-10T09:21:37Z</time>
      </trkpt>
      <trkpt lat="49.33697" lon="0.97061">
        <ele>99</ele>
        <time>2019-01-10T09:21:42Z</time>
      </trkpt>
      <trkpt lat="49.3369" lon="0.97095">
        <ele>99</ele>
        <time>2019-01-10T09:21:49Z</time>
      </trkpt>
      <trkpt lat="49.33684" lon="0.97119">
        <ele>99</ele>
        <time>2019-01-10T09:21:55Z</time>
      </trkpt>
      <trkpt lat="49.33683" lon="0.97122">
        <ele>99</ele>
        <time>2019-01-10T09:21:56Z</time>
      </trkpt>
      <trkpt lat="49.33674" lon="0.97154">
        <ele>100</ele>
        <time>2019-01-10T09:22:02Z</time>
      </trkpt>
      <trkpt lat="49.33667" lon="0.97181">
        <ele>100</ele>
        <time>2019-01-10T09:22:07Z</time>
      </trkpt>
      <trkpt lat="49.33664" lon="0.97212">
        <ele>102</ele>
        <time>2019-01-10T09:22:14Z</time>
      </trkpt>
      <trkpt lat="49.33662" lon="0.97235">
        <ele>102</ele>
        <time>2019-01-10T09:22:19Z</time>
      </trkpt>
      <trkpt lat="49.33661" lon="0.97239">
        <ele>102</ele>
        <time>2019-01-10T09:22:20Z</time>
      </trkpt>
      <trkpt lat="49.33661" lon="0.97256">
        <ele>103</ele>
        <time>2019-01-10T09:22:23Z</time>
      </trkpt>
      <trkpt lat="49.33662" lon="0.97277">
        <ele>104</ele>
        <time>2019-01-10T09:22:27Z</time>
      </trkpt>
      <trkpt lat="49.33661" lon="0.97314">
        <ele>105</ele>
        <time>2019-01-10T09:22:35Z</time>
      </trkpt>
      <trkpt lat="49.33663" lon="0.97325">
        <ele>106</ele>
        <time>2019-01-10T09:22:37Z</time>
      </trkpt>
      <trkpt lat="49.33667" lon="0.97368">
        <ele>105</ele>
        <time>2019-01-10T09:22:45Z</time>
      </trkpt>
      <trkpt lat="49.33672" lon="0.97394">
        <ele>104</ele>
        <time>2019-01-10T09:22:50Z</time>
      </trkpt>
      <trkpt lat="49.3368" lon="0.97428">
        <ele>103</ele>
        <time>2019-01-10T09:22:56Z</time>
      </trkpt>
      <trkpt lat="49.33682" lon="0.97458">
        <ele>100</ele>
        <time>2019-01-10T09:23:01Z</time>
      </trkpt>
      <trkpt lat="49.33688" lon="0.97482">
        <ele>100</ele>
        <time>2019-01-10T09:23:05Z</time>
      </trkpt>
      <trkpt lat="49.33689" lon="0.97497">
        <ele>99</ele>
        <time>2019-01-10T09:23:07Z</time>
      </trkpt>
      <trkpt lat="49.33694" lon="0.97547">
        <ele>98</ele>
        <time>2019-01-10T09:23:14Z</time>
      </trkpt>
      <trkpt lat="49.33697" lon="0.97564">
        <ele>98</ele>
        <time>2019-01-10T09:23:17Z</time>
      </trkpt>
      <trkpt lat="49.33699" lon="0.97586">
        <ele>98</ele>
        <time>2019-01-10T09:23:21Z</time>
      </trkpt>
      <trkpt lat="49.33702" lon="0.97611">
        <ele>97</ele>
        <time>2019-01-10T09:23:27Z</time>
      </trkpt>
      <trkpt lat="49.33702" lon="0.97615">
        <ele>97</ele>
        <time>2019-01-10T09:23:28Z</time>
      </trkpt>
      <trkpt lat="49.33709" lon="0.97635">
        <ele>97</ele>
        <time>2019-01-10T09:23:34Z</time>
      </trkpt>
      <trkpt lat="49.33712" lon="0.97642">
        <ele>97</ele>
        <time>2019-01-10T09:23:36Z</time>
      </trkpt>
      <trkpt lat="49.33715" lon="0.97648">
        <ele>98</ele>
        <time>2019-01-10T09:23:37Z</time>
      </trkpt>
      <trkpt lat="49.33718" lon="0.97652">
        <ele>98</ele>
        <time>2019-01-10T09:23:38Z</time>
      </trkpt>
      <trkpt lat="49.33721" lon="0.97655">
        <ele>98</ele>
        <time>2019-01-10T09:23:39Z</time>
      </trkpt>
      <trkpt lat="49.33737" lon="0.97672">
        <ele>99</ele>
        <time>2019-01-10T09:23:44Z</time>
      </trkpt>
      <trkpt lat="49.33749" lon="0.9769">
        <ele>100</ele>
        <time>2019-01-10T09:23:49Z</time>
      </trkpt>
      <trkpt lat="49.33758" lon="0.97714">
        <ele>100</ele>
        <time>2019-01-10T09:23:54Z</time>
      </trkpt>
      <trkpt lat="49.33761" lon="0.97739">
        <ele>99</ele>
        <time>2019-01-10T09:23:59Z</time>
      </trkpt>
      <trkpt lat="49.33763" lon="0.97747">
        <ele>98</ele>
        <time>2019-01-10T09:24:06Z</time>
      </trkpt>
      <trkpt lat="49.33765" lon="0.97756">
        <ele>100</ele>
        <time>2019-01-10T09:24:19Z</time>
      </trkpt>
      <trkpt lat="49.33766" lon="0.97759">
        <ele>100</ele>
        <time>2019-01-10T09:24:20Z</time>
      </trkpt>
      <trkpt lat="49.33767" lon="0.97761">
        <ele>100</ele>
        <time>2019-01-10T09:24:21Z</time>
      </trkpt>
      <trkpt lat="49.33765" lon="0.9777">
        <ele>101</ele>
        <time>2019-01-10T09:24:26Z</time>
      </trkpt>
      <trkpt lat="49.33765" lon="0.97777">
        <ele>102</ele>
        <time>2019-01-10T09:24:27Z</time>
      </trkpt>
      <trkpt lat="49.33764" lon="0.97784">
        <ele>102</ele>
        <time>2019-01-10T09:24:28Z</time>
      </trkpt>
      <trkpt lat="49.33761" lon="0.97794">
        <ele>103</ele>
        <time>2019-01-10T09:24:29Z</time>
      </trkpt>
      <trkpt lat="49.33756" lon="0.97803">
        <ele>104</ele>
        <time>2019-01-10T09:24:30Z</time>
      </trkpt>
      <trkpt lat="49.33734" lon="0.97833">
        <ele>106</ele>
        <time>2019-01-10T09:24:31Z</time>
      </trkpt>
      <trkpt lat="49.33704" lon="0.97827">
        <ele>107</ele>
        <time>2019-01-10T09:24:32Z</time>
      </trkpt>
      <trkpt lat="49.33674" lon="0.97819">
        <ele>107</ele>
        <time>2019-01-10T09:24:39Z</time>
      </trkpt>
      <trkpt lat="49.33639" lon="0.97815">
        <ele>109</ele>
        <time>2019-01-10T09:24:44Z</time>
      </trkpt>
      <trkpt lat="49.33609" lon="0.97826">
        <ele>108</ele>
        <time>2019-01-10T09:24:50Z</time>
      </trkpt>
      <trkpt lat="49.3359" lon="0.97857">
        <ele>109</ele>
        <time>2019-01-10T09:24:58Z</time>
      </trkpt>
      <trkpt lat="49.33593" lon="0.97898">
        <ele>114</ele>
        <time>2019-01-10T09:25:04Z</time>
      </trkpt>
      <trkpt lat="49.33599" lon="0.97915">
        <ele>115</ele>
        <time>2019-01-10T09:25:10Z</time>
      </trkpt>
      <trkpt lat="49.33606" lon="0.97931">
        <ele>116</ele>
        <time>2019-01-10T09:25:17Z</time>
      </trkpt>
      <trkpt lat="49.3361" lon="0.97946">
        <ele>117</ele>
        <time>2019-01-10T09:25:22Z</time>
      </trkpt>
      <trkpt lat="49.33628" lon="0.97998">
        <ele>121</ele>
        <time>2019-01-10T09:26:12Z</time>
      </trkpt>
      <trkpt lat="49.33625" lon="0.97997">
        <ele>121</ele>
        <time>2019-01-10T09:26:13Z</time>
      </trkpt>
      <trkpt lat="49.33622" lon="0.97998">
        <ele>120</ele>
        <time>2019-01-10T09:26:14Z</time>
      </trkpt>
      <trkpt lat="49.33619" lon="0.97999">
        <ele>120</ele>
        <time>2019-01-10T09:26:15Z</time>
      </trkpt>
      <trkpt lat="49.33615" lon="0.98">
        <ele>120</ele>
        <time>2019-01-10T09:26:16Z</time>
      </trkpt>
      <trkpt lat="49.3361" lon="0.98003">
        <ele>120</ele>
        <time>2019-01-10T09:26:17Z</time>
      </trkpt>
      <trkpt lat="49.33567" lon="0.98033">
        <ele>116</ele>
        <time>2019-01-10T09:26:24Z</time>
      </trkpt>
      <trkpt lat="49.33531" lon="0.98059">
        <ele>112</ele>
        <time>2019-01-10T09:26:30Z</time>
      </trkpt>
      <trkpt lat="49.33527" lon="0.98063">
        <ele>111</ele>
        <time>2019-01-10T09:26:31Z</time>
      </trkpt>
      <trkpt lat="49.33524" lon="0.98069">
        <ele>111</ele>
        <time>2019-01-10T09:26:32Z</time>
      </trkpt>
      <trkpt lat="49.33523" lon="0.98075">
        <ele>111</ele>
        <time>2019-01-10T09:26:33Z</time>
      </trkpt>
      <trkpt lat="49.33525" lon="0.98094">
        <ele>112</ele>
        <time>2019-01-10T09:26:36Z</time>
      </trkpt>
      <trkpt lat="49.33526" lon="0.98102">
        <ele>113</ele>
        <time>2019-01-10T09:26:37Z</time>
      </trkpt>
      <trkpt lat="49.33528" lon="0.98124">
        <ele>113</ele>
        <time>2019-01-10T09:26:40Z</time>
      </trkpt>
      <trkpt lat="49.33529" lon="0.98167">
        <ele>114</ele>
        <time>2019-01-10T09:26:47Z</time>
      </trkpt>
      <trkpt lat="49.33531" lon="0.98191">
        <ele>112</ele>
        <time>2019-01-10T09:26:51Z</time>
      </trkpt>
      <trkpt lat="49.33543" lon="0.9821">
        <ele>112</ele>
        <time>2019-01-10T09:26:55Z</time>
      </trkpt>
      <trkpt lat="49.33564" lon="0.98235">
        <ele>114</ele>
        <time>2019-01-10T09:27:01Z</time>
      </trkpt>
      <trkpt lat="49.33566" lon="0.98238">
        <ele>114</ele>
        <time>2019-01-10T09:27:02Z</time>
      </trkpt>
      <trkpt lat="49.33581" lon="0.98262">
        <ele>113</ele>
        <time>2019-01-10T09:27:08Z</time>
      </trkpt>
      <trkpt lat="49.33591" lon="0.98294">
        <ele>111</ele>
        <time>2019-01-10T09:27:14Z</time>
      </trkpt>
      <trkpt lat="49.3359" lon="0.98314">
        <ele>108</ele>
        <time>2019-01-10T09:27:19Z</time>
      </trkpt>
      <trkpt lat="49.3359" lon="0.9832">
        <ele>108</ele>
        <time>2019-01-10T09:27:20Z</time>
      </trkpt>
      <trkpt lat="49.33597" lon="0.9835">
        <ele>105</ele>
        <time>2019-01-10T09:27:25Z</time>
      </trkpt>
      <trkpt lat="49.33596" lon="0.98354">
        <ele>105</ele>
        <time>2019-01-10T09:27:26Z</time>
      </trkpt>
      <trkpt lat="49.33594" lon="0.98359">
        <ele>104</ele>
        <time>2019-01-10T09:27:27Z</time>
      </trkpt>
      <trkpt lat="49.33594" lon="0.98365">
        <ele>103</ele>
        <time>2019-01-10T09:27:28Z</time>
      </trkpt>
      <trkpt lat="49.33594" lon="0.9837">
        <ele>102</ele>
        <time>2019-01-10T09:27:29Z</time>
      </trkpt>
      <trkpt lat="49.33597" lon="0.98379">
        <ele>103</ele>
        <time>2019-01-10T09:27:31Z</time>
      </trkpt>
      <trkpt lat="49.336" lon="0.98383">
        <ele>104</ele>
        <time>2019-01-10T09:27:32Z</time>
      </trkpt>
      <trkpt lat="49.33618" lon="0.98404">
        <ele>108</ele>
        <time>2019-01-10T09:27:39Z</time>
      </trkpt>
      <trkpt lat="49.33629" lon="0.98422">
        <ele>109</ele>
        <time>2019-01-10T09:27:45Z</time>
      </trkpt>
      <trkpt lat="49.33632" lon="0.98443">
        <ele>109</ele>
        <time>2019-01-10T09:27:50Z</time>
      </trkpt>
      <trkpt lat="49.33632" lon="0.98465">
        <ele>111</ele>
        <time>2019-01-10T09:27:56Z</time>
      </trkpt>
      <trkpt lat="49.33631" lon="0.98491">
        <ele>113</ele>
        <time>2019-01-10T09:28:03Z</time>
      </trkpt>
      <trkpt lat="49.33631" lon="0.98498">
        <ele>113</ele>
        <time>2019-01-10T09:28:05Z</time>
      </trkpt>
      <trkpt lat="49.33634" lon="0.9851">
        <ele>114</ele>
        <time>2019-01-10T09:28:09Z</time>
      </trkpt>
      <trkpt lat="49.33636" lon="0.98519">
        <ele>115</ele>
        <time>2019-01-10T09:28:13Z</time>
      </trkpt>
      <trkpt lat="49.33647" lon="0.98531">
        <ele>116</ele>
        <time>2019-01-10T09:28:20Z</time>
      </trkpt>
      <trkpt lat="49.33648" lon="0.98539">
        <ele>117</ele>
        <time>2019-01-10T09:28:24Z</time>
      </trkpt>
      <trkpt lat="49.33652" lon="0.98558">
        <ele>119</ele>
        <time>2019-01-10T09:28:29Z</time>
      </trkpt>
      <trkpt lat="49.33659" lon="0.98579">
        <ele>121</ele>
        <time>2019-01-10T09:28:35Z</time>
      </trkpt>
      <trkpt lat="49.33668" lon="0.98597">
        <ele>123</ele>
        <time>2019-01-10T09:28:41Z</time>
      </trkpt>
      <trkpt lat="49.33677" lon="0.9862">
        <ele>126</ele>
        <time>2019-01-10T09:28:47Z</time>
      </trkpt>
      <trkpt lat="49.33682" lon="0.98641">
        <ele>127</ele>
        <time>2019-01-10T09:28:52Z</time>
      </trkpt>
      <trkpt lat="49.33681" lon="0.98645">
        <ele>128</ele>
        <time>2019-01-10T09:28:53Z</time>
      </trkpt>
      <trkpt lat="49.33682" lon="0.98675">
        <ele>129</ele>
        <time>2019-01-10T09:29:00Z</time>
      </trkpt>
      <trkpt lat="49.33685" lon="0.98691">
        <ele>130</ele>
        <time>2019-01-10T09:30:08Z</time>
      </trkpt>
      <trkpt lat="49.3367" lon="0.98699">
        <ele>130</ele>
        <time>2019-01-10T09:30:14Z</time>
      </trkpt>
      <trkpt lat="49.33652" lon="0.98709">
        <ele>131</ele>
        <time>2019-01-10T09:30:19Z</time>
      </trkpt>
      <trkpt lat="49.33631" lon="0.98722">
        <ele>131</ele>
        <time>2019-01-10T09:30:24Z</time>
      </trkpt>
      <trkpt lat="49.33607" lon="0.98738">
        <ele>130</ele>
        <time>2019-01-10T09:30:30Z</time>
      </trkpt>
      <trkpt lat="49.33599" lon="0.98745">
        <ele>130</ele>
        <time>2019-01-10T09:30:32Z</time>
      </trkpt>
      <trkpt lat="49.33595" lon="0.98748">
        <ele>130</ele>
        <time>2019-01-10T09:30:33Z</time>
      </trkpt>
      <trkpt lat="49.3359" lon="0.9875">
        <ele>130</ele>
        <time>2019-01-10T09:30:34Z</time>
      </trkpt>
      <trkpt lat="49.33586" lon="0.98752">
        <ele>130</ele>
        <time>2019-01-10T09:30:35Z</time>
      </trkpt>
      <trkpt lat="49.33583" lon="0.98754">
        <ele>130</ele>
        <time>2019-01-10T09:30:36Z</time>
      </trkpt>
      <trkpt lat="49.33558" lon="0.98771">
        <ele>130</ele>
        <time>2019-01-10T09:30:42Z</time>
      </trkpt>
      <trkpt lat="49.3353" lon="0.98791">
        <ele>129</ele>
        <time>2019-01-10T09:30:48Z</time>
      </trkpt>
      <trkpt lat="49.33501" lon="0.98813">
        <ele>129</ele>
        <time>2019-01-10T09:30:54Z</time>
      </trkpt>
      <trkpt lat="49.33482" lon="0.98828">
        <ele>129</ele>
        <time>2019-01-10T09:30:58Z</time>
      </trkpt>
      <trkpt lat="49.3346" lon="0.98844">
        <ele>129</ele>
        <time>2019-01-10T09:31:03Z</time>
      </trkpt>
      <trkpt lat="49.33444" lon="0.98846">
        <ele>128</ele>
        <time>2019-01-10T09:31:07Z</time>
      </trkpt>
      <trkpt lat="49.33441" lon="0.98842">
        <ele>128</ele>
        <time>2019-01-10T09:31:08Z</time>
      </trkpt>
      <trkpt lat="49.33436" lon="0.98835">
        <ele>128</ele>
        <time>2019-01-10T09:31:10Z</time>
      </trkpt>
      <trkpt lat="49.33432" lon="0.98835">
        <ele>128</ele>
        <time>2019-01-10T09:31:11Z</time>
      </trkpt>
      <trkpt lat="49.3343" lon="0.98836">
        <ele>128</ele>
        <time>2019-01-10T09:31:12Z</time>
      </trkpt>
      <trkpt lat="49.33427" lon="0.98839">
        <ele>128</ele>
        <time>2019-01-10T09:31:13Z</time>
      </trkpt>
      <trkpt lat="49.33426" lon="0.98842">
        <ele>128</ele>
        <time>2019-01-10T09:31:14Z</time>
      </trkpt>
      <trkpt lat="49.33425" lon="0.98846">
        <ele>128</ele>
        <time>2019-01-10T09:31:15Z</time>
      </trkpt>
      <trkpt lat="49.33424" lon="0.9885">
        <ele>128</ele>
        <time>2019-01-10T09:31:16Z</time>
      </trkpt>
      <trkpt lat="49.33419" lon="0.98871">
        <ele>128</ele>
        <time>2019-01-10T09:31:20Z</time>
      </trkpt>
      <trkpt lat="49.33408" lon="0.98928">
        <ele>129</ele>
        <time>2019-01-10T09:31:28Z</time>
      </trkpt>
      <trkpt lat="49.33398" lon="0.98975">
        <ele>128</ele>
        <time>2019-01-10T09:31:35Z</time>
      </trkpt>
      <trkpt lat="49.33397" lon="0.98982">
        <ele>128</ele>
        <time>2019-01-10T09:31:36Z</time>
      </trkpt>
      <trkpt lat="49.33395" lon="0.9899">
        <ele>128</ele>
        <time>2019-01-10T09:31:37Z</time>
      </trkpt>
      <trkpt lat="49.33386" lon="0.99035">
        <ele>129</ele>
        <time>2019-01-10T09:31:43Z</time>
      </trkpt>
      <trkpt lat="49.33384" lon="0.99042">
        <ele>129</ele>
        <time>2019-01-10T09:31:44Z</time>
      </trkpt>
      <trkpt lat="49.33383" lon="0.99049">
        <ele>129</ele>
        <time>2019-01-10T09:31:45Z</time>
      </trkpt>
      <trkpt lat="49.3338" lon="0.99063">
        <ele>129</ele>
        <time>2019-01-10T09:31:47Z</time>
      </trkpt>
      <trkpt lat="49.33379" lon="0.99071">
        <ele>129</ele>
        <time>2019-01-10T09:31:48Z</time>
      </trkpt>
      <trkpt lat="49.33377" lon="0.99078">
        <ele>129</ele>
        <time>2019-01-10T09:31:49Z</time>
      </trkpt>
      <trkpt lat="49.33375" lon="0.99086">
        <ele>129</ele>
        <time>2019-01-10T09:31:50Z</time>
      </trkpt>
      <trkpt lat="49.33374" lon="0.99093">
        <ele>129</ele>
        <time>2019-01-10T09:31:51Z</time>
      </trkpt>
      <trkpt lat="49.33363" lon="0.99147">
        <ele>129</ele>
        <time>2019-01-10T09:31:58Z</time>
      </trkpt>
      <trkpt lat="49.33362" lon="0.99153">
        <ele>129</ele>
        <time>2019-01-10T09:31:59Z</time>
      </trkpt>
      <trkpt lat="49.33362" lon="0.99161">
        <ele>129</ele>
        <time>2019-01-10T09:32:00Z</time>
      </trkpt>
      <trkpt lat="49.33347" lon="0.99227">
        <ele>129</ele>
        <time>2019-01-10T09:32:07Z</time>
      </trkpt>
      <trkpt lat="49.33324" lon="0.99328">
        <ele>129</ele>
        <time>2019-01-10T09:32:18Z</time>
      </trkpt>
      <trkpt lat="49.33316" lon="0.99372">
        <ele>129</ele>
        <time>2019-01-10T09:32:23Z</time>
      </trkpt>
      <trkpt lat="49.33301" lon="0.99439">
        <ele>129</ele>
        <time>2019-01-10T09:32:31Z</time>
      </trkpt>
      <trkpt lat="49.33289" lon="0.99498">
        <ele>127</ele>
        <time>2019-01-10T09:32:38Z</time>
      </trkpt>
      <trkpt lat="49.33276" lon="0.99562">
        <ele>126</ele>
        <time>2019-01-10T09:32:46Z</time>
      </trkpt>
      <trkpt lat="49.3327" lon="0.99594">
        <ele>126</ele>
        <time>2019-01-10T09:32:50Z</time>
      </trkpt>
      <trkpt lat="49.33269" lon="0.99601">
        <ele>125</ele>
        <time>2019-01-10T09:32:51Z</time>
      </trkpt>
      <trkpt lat="49.33264" lon="0.99624">
        <ele>125</ele>
        <time>2019-01-10T09:32:54Z</time>
      </trkpt>
      <trkpt lat="49.33257" lon="0.99664">
        <ele>124</ele>
        <time>2019-01-10T09:32:59Z</time>
      </trkpt>
      <trkpt lat="49.33255" lon="0.99671">
        <ele>124</ele>
        <time>2019-01-10T09:33:00Z</time>
      </trkpt>
      <trkpt lat="49.33253" lon="0.99678">
        <ele>124</ele>
        <time>2019-01-10T09:33:01Z</time>
      </trkpt>
      <trkpt lat="49.33252" lon="0.99681">
        <ele>124</ele>
        <time>2019-01-10T09:33:02Z</time>
      </trkpt>
      <trkpt lat="49.33251" lon="0.99684">
        <ele>124</ele>
        <time>2019-01-10T09:33:03Z</time>
      </trkpt>
      <trkpt lat="49.3325" lon="0.99686">
        <ele>124</ele>
        <time>2019-01-10T09:33:04Z</time>
      </trkpt>
      <trkpt lat="49.33248" lon="0.99689">
        <ele>124</ele>
        <time>2019-01-10T09:33:05Z</time>
      </trkpt>
      <trkpt lat="49.33241" lon="0.99698">
        <ele>123</ele>
        <time>2019-01-10T09:33:13Z</time>
      </trkpt>
      <trkpt lat="49.3324" lon="0.99698">
        <ele>123</ele>
        <time>2019-01-10T09:33:21Z</time>
      </trkpt>
      <trkpt lat="49.3324" lon="0.99699">
        <ele>123</ele>
        <time>2019-01-10T09:33:34Z</time>
      </trkpt>
      <trkpt lat="49.33237" lon="0.99702">
        <ele>123</ele>
        <time>2019-01-10T09:33:48Z</time>
      </trkpt>
      <trkpt lat="49.33249" lon="0.99715">
        <ele>123</ele>
        <time>2019-01-21T12:45:11Z</time>
      </trkpt>
      <trkpt lat="49.33512" lon="0.99724">
        <ele>132</ele>
      </trkpt>
      <trkpt lat="49.3369" lon="0.99915">
        <ele>136</ele>
      </trkpt>
      <trkpt lat="49.33706" lon="0.99991">
        <ele>135</ele>
      </trkpt>
      <trkpt lat="49.33667" lon="1.0015">
        <ele>132</ele>
      </trkpt>
      <trkpt lat="49.33631" lon="1.00271">
        <ele>131</ele>
      </trkpt>
      <trkpt lat="49.33691" lon="1.0041">
        <ele>132</ele>
      </trkpt>
      <trkpt lat="49.33701" lon="1.0051">
        <ele>132</ele>
      </trkpt>
      <trkpt lat="49.337" lon="1.00661">
        <ele>131</ele>
      </trkpt>
      <trkpt lat="49.33689" lon="1.00854">
        <ele>131</ele>
      </trkpt>
      <trkpt lat="49.33793" lon="1.01312">
        <ele>129</ele>
      </trkpt>
      <trkpt lat="49.33777" lon="1.01367">
        <ele>128</ele>
      </trkpt>
      <trkpt lat="49.33811" lon="1.01389">
        <ele>128</ele>
      </trkpt>
      <trkpt lat="49.33888" lon="1.01411">
        <ele>129</ele>
      </trkpt>
      <trkpt lat="49.33949" lon="1.01424">
        <ele>129</ele>
      </trkpt>
      <trkpt lat="49.33948" lon="1.01455">
        <ele>129</ele>
      </trkpt>
      <trkpt lat="49.33952" lon="1.015">
        <ele>128</ele>
      </trkpt>
      <trkpt lat="49.34005" lon="1.01547">
        <ele>128</ele>
      </trkpt>
      <trkpt lat="49.34071" lon="1.01588">
        <ele>128</ele>
        <time>2019-01-21T12:45:13Z</time>
      </trkpt>
      <trkpt lat="49.34074" lon="1.0159">
        <ele>128</ele>
        <time>2019-01-21T12:45:14Z</time>
      </trkpt>
      <trkpt lat="49.34117" lon="1.01619">
        <ele>128</ele>
        <time>2019-01-21T12:45:24Z</time>
      </trkpt>
      <trkpt lat="49.34158" lon="1.01646">
        <ele>129</ele>
        <time>2019-01-21T12:45:33Z</time>
      </trkpt>
      <trkpt lat="49.34207" lon="1.01683">
        <ele>129</ele>
        <time>2019-01-21T12:45:44Z</time>
      </trkpt>
      <trkpt lat="49.3421" lon="1.01687">
        <ele>129</ele>
        <time>2019-01-21T12:45:45Z</time>
      </trkpt>
      <trkpt lat="49.34213" lon="1.01692">
        <ele>128</ele>
        <time>2019-01-21T12:45:46Z</time>
      </trkpt>
      <trkpt lat="49.34219" lon="1.01702">
        <ele>128</ele>
        <time>2019-01-21T12:45:48Z</time>
      </trkpt>
      <trkpt lat="49.34223" lon="1.01705">
        <ele>128</ele>
        <time>2019-01-21T12:45:49Z</time>
      </trkpt>
      <trkpt lat="49.34232" lon="1.0171">
        <ele>128</ele>
        <time>2019-01-21T12:45:51Z</time>
      </trkpt>
      <trkpt lat="49.34236" lon="1.01713">
        <ele>128</ele>
        <time>2019-01-21T12:45:52Z</time>
      </trkpt>
      <trkpt lat="49.34275" lon="1.01758">
        <ele>128</ele>
        <time>2019-01-21T12:46:01Z</time>
      </trkpt>
      <trkpt lat="49.34279" lon="1.01763">
        <ele>128</ele>
        <time>2019-01-21T12:46:02Z</time>
      </trkpt>
      <trkpt lat="49.34318" lon="1.0181">
        <ele>128</ele>
        <time>2019-01-21T12:46:11Z</time>
      </trkpt>
      <trkpt lat="49.34362" lon="1.01863">
        <ele>128</ele>
        <time>2019-01-21T12:46:21Z</time>
      </trkpt>
      <trkpt lat="49.34415" lon="1.01926">
        <ele>128</ele>
        <time>2019-01-21T12:46:33Z</time>
      </trkpt>
      <trkpt lat="49.34458" lon="1.01977">
        <ele>127</ele>
        <time>2019-01-21T12:46:43Z</time>
      </trkpt>
      <trkpt lat="49.34507" lon="1.02035">
        <ele>127</ele>
        <time>2019-01-21T12:46:54Z</time>
      </trkpt>
      <trkpt lat="49.34246" lon="1.02393">
        <ele>127</ele>
        <time>2019-01-21T12:47:02Z</time>
      </trkpt>
      <trkpt lat="49.34285" lon="1.02426">
        <ele>127</ele>
        <time>2019-01-21T12:47:11Z</time>
      </trkpt>
      <trkpt lat="49.34371" lon="1.02491">
        <ele>127</ele>
        <time>2019-01-21T12:47:18Z</time>
      </trkpt>
      <trkpt lat="49.3442" lon="1.02516">
        <ele>127</ele>
        <time>2019-01-21T12:47:20Z</time>
      </trkpt>
      <trkpt lat="49.34446" lon="1.02532">
        <ele>126</ele>
        <time>2019-01-21T12:47:26Z</time>
      </trkpt>
      <trkpt lat="49.34488" lon="1.02564">
        <ele>126</ele>
        <time>2019-01-21T12:47:34Z</time>
      </trkpt>
      <trkpt lat="49.34488" lon="1.02591">
        <ele>127</ele>
      </trkpt>
      <trkpt lat="49.34535" lon="1.02611">
        <ele>127</ele>
        <time>2019-01-21T12:49:37Z</time>
      </trkpt>
      <trkpt lat="49.34562" lon="1.02618">
        <ele>127</ele>
        <time>2019-01-21T12:49:43Z</time>
      </trkpt>
      <trkpt lat="49.34586" lon="1.02628">
        <ele>127</ele>
        <time>2019-01-21T12:49:48Z</time>
      </trkpt>
      <trkpt lat="49.3459" lon="1.02632">
        <ele>127</ele>
        <time>2019-01-21T12:49:49Z</time>
      </trkpt>
      <trkpt lat="49.34608" lon="1.02646">
        <ele>127</ele>
        <time>2019-01-21T12:49:53Z</time>
      </trkpt>
      <trkpt lat="49.34625" lon="1.02659">
        <ele>127</ele>
        <time>2019-01-21T12:49:57Z</time>
      </trkpt>
      <trkpt lat="49.3465" lon="1.02685">
        <ele>127</ele>
        <time>2019-01-21T12:50:04Z</time>
      </trkpt>
      <trkpt lat="49.34666" lon="1.02695">
        <ele>127</ele>
        <time>2019-01-21T12:50:09Z</time>
      </trkpt>
      <trkpt lat="49.34704" lon="1.02733">
        <ele>127</ele>
        <time>2019-01-21T12:50:18Z</time>
      </trkpt>
      <trkpt lat="49.34724" lon="1.02745">
        <ele>126</ele>
        <time>2019-01-21T12:50:23Z</time>
      </trkpt>
      <trkpt lat="49.34734" lon="1.02752">
        <ele>126</ele>
        <time>2019-01-21T12:50:26Z</time>
      </trkpt>
      <trkpt lat="49.34756" lon="1.02768">
        <ele>126</ele>
        <time>2019-01-21T12:50:31Z</time>
      </trkpt>
      <trkpt lat="49.34767" lon="1.02788">
        <ele>126</ele>
        <time>2019-01-21T12:50:35Z</time>
      </trkpt>
      <trkpt lat="49.34766" lon="1.02794">
        <ele>126</ele>
        <time>2019-01-21T12:50:36Z</time>
      </trkpt>
      <trkpt lat="49.34765" lon="1.028">
        <ele>126</ele>
        <time>2019-01-21T12:50:37Z</time>
      </trkpt>
      <trkpt lat="49.34764" lon="1.02807">
        <ele>126</ele>
        <time>2019-01-21T12:50:38Z</time>
      </trkpt>
      <trkpt lat="49.34762" lon="1.02813">
        <ele>126</ele>
        <time>2019-01-21T12:50:39Z</time>
      </trkpt>
      <trkpt lat="49.34755" lon="1.0286">
        <ele>126</ele>
        <time>2019-01-21T12:50:46Z</time>
      </trkpt>
      <trkpt lat="49.34748" lon="1.02888">
        <ele>126</ele>
        <time>2019-01-21T12:50:51Z</time>
      </trkpt>
      <trkpt lat="49.34743" lon="1.0293">
        <ele>126</ele>
        <time>2019-01-21T12:50:58Z</time>
      </trkpt>
      <trkpt lat="49.34735" lon="1.0297">
        <ele>126</ele>
        <time>2019-01-21T12:51:06Z</time>
      </trkpt>
      <trkpt lat="49.34732" lon="1.03003">
        <ele>126</ele>
        <time>2019-01-21T12:51:13Z</time>
      </trkpt>
      <trkpt lat="49.34725" lon="1.03041">
        <ele>126</ele>
        <time>2019-01-21T12:51:20Z</time>
      </trkpt>
      <trkpt lat="49.34719" lon="1.0307">
        <ele>126</ele>
        <time>2019-01-21T12:51:26Z</time>
      </trkpt>
      <trkpt lat="49.34714" lon="1.03106">
        <ele>126</ele>
        <time>2019-01-21T12:51:33Z</time>
      </trkpt>
      <trkpt lat="49.34706" lon="1.03143">
        <ele>126</ele>
        <time>2019-01-21T12:51:40Z</time>
      </trkpt>
      <trkpt lat="49.34696" lon="1.03187">
        <ele>126</ele>
        <time>2019-01-21T12:51:47Z</time>
      </trkpt>
      <trkpt lat="49.34686" lon="1.03241">
        <ele>126</ele>
        <time>2019-01-21T12:51:56Z</time>
      </trkpt>
      <trkpt lat="49.34679" lon="1.03282">
        <ele>126</ele>
        <time>2019-01-21T12:52:04Z</time>
      </trkpt>
      <trkpt lat="49.34674" lon="1.03312">
        <ele>126</ele>
        <time>2019-01-21T12:52:10Z</time>
      </trkpt>
      <trkpt lat="49.34668" lon="1.03345">
        <ele>127</ele>
        <time>2019-01-21T12:52:17Z</time>
      </trkpt>
      <trkpt lat="49.34662" lon="1.03379">
        <ele>127</ele>
        <time>2019-01-21T12:52:24Z</time>
      </trkpt>
      <trkpt lat="49.34642" lon="1.03493">
        <ele>126</ele>
        <time>2019-01-21T12:52:55Z</time>
      </trkpt>
      <trkpt lat="49.34633" lon="1.03539">
        <ele>126</ele>
        <time>2019-01-21T12:53:03Z</time>
      </trkpt>
      <trkpt lat="49.34624" lon="1.0358">
        <ele>125</ele>
        <time>2019-01-21T12:53:10Z</time>
      </trkpt>
      <trkpt lat="49.34617" lon="1.03609">
        <ele>125</ele>
        <time>2019-01-21T12:53:16Z</time>
      </trkpt>
      <trkpt lat="49.34611" lon="1.03645">
        <ele>125</ele>
        <time>2019-01-21T12:53:22Z</time>
      </trkpt>
      <trkpt lat="49.34605" lon="1.0367">
        <ele>125</ele>
        <time>2019-01-21T12:53:26Z</time>
      </trkpt>
      <trkpt lat="49.34601" lon="1.03673">
        <ele>124</ele>
        <time>2019-01-21T12:53:27Z</time>
      </trkpt>
      <trkpt lat="49.34597" lon="1.03674">
        <ele>124</ele>
        <time>2019-01-21T12:53:28Z</time>
      </trkpt>
      <trkpt lat="49.34594" lon="1.03673">
        <ele>124</ele>
        <time>2019-01-21T12:53:29Z</time>
      </trkpt>
      <trkpt lat="49.3459" lon="1.03671">
        <ele>125</ele>
        <time>2019-01-21T12:53:30Z</time>
      </trkpt>
      <trkpt lat="49.34585" lon="1.03669">
        <ele>125</ele>
        <time>2019-01-21T12:53:31Z</time>
      </trkpt>
      <trkpt lat="49.34553" lon="1.03654">
        <ele>125</ele>
        <time>2019-01-21T12:53:39Z</time>
      </trkpt>
      <trkpt lat="49.34517" lon="1.03641">
        <ele>126</ele>
        <time>2019-01-21T12:53:47Z</time>
      </trkpt>
      <trkpt lat="49.34479" lon="1.03623">
        <ele>126</ele>
        <time>2019-01-21T12:53:56Z</time>
      </trkpt>
      <trkpt lat="49.34461" lon="1.03615">
        <ele>126</ele>
        <time>2019-01-21T12:54:00Z</time>
      </trkpt>
      <trkpt lat="49.34416" lon="1.03597">
        <ele>127</ele>
        <time>2019-01-21T12:54:10Z</time>
      </trkpt>
      <trkpt lat="49.34381" lon="1.03581">
        <ele>127</ele>
        <time>2019-01-21T12:54:18Z</time>
      </trkpt>
      <trkpt lat="49.3436" lon="1.03572">
        <ele>127</ele>
        <time>2019-01-21T12:54:23Z</time>
      </trkpt>
      <trkpt lat="49.34355" lon="1.0357">
        <ele>127</ele>
        <time>2019-01-21T12:54:24Z</time>
      </trkpt>
      <trkpt lat="49.34322" lon="1.03554">
        <ele>127</ele>
        <time>2019-01-21T12:54:32Z</time>
      </trkpt>
      <trkpt lat="49.34293" lon="1.03542">
        <ele>127</ele>
        <time>2019-01-21T12:54:39Z</time>
      </trkpt>
      <trkpt lat="49.34275" lon="1.03535">
        <ele>127</ele>
        <time>2019-01-21T12:54:43Z</time>
      </trkpt>
      <trkpt lat="49.34243" lon="1.03523">
        <ele>127</ele>
        <time>2019-01-21T12:54:51Z</time>
      </trkpt>
      <trkpt lat="49.34239" lon="1.03522">
        <ele>127</ele>
        <time>2019-01-21T12:54:52Z</time>
      </trkpt>
      <trkpt lat="49.34218" lon="1.03513">
        <ele>127</ele>
        <time>2019-01-21T12:54:57Z</time>
      </trkpt>
      <trkpt lat="49.34185" lon="1.03498">
        <ele>127</ele>
        <time>2019-01-21T12:55:04Z</time>
      </trkpt>
      <trkpt lat="49.34172" lon="1.03492">
        <ele>127</ele>
        <time>2019-01-21T12:55:07Z</time>
      </trkpt>
      <trkpt lat="49.34157" lon="1.03488">
        <ele>127</ele>
        <time>2019-01-21T12:55:11Z</time>
      </trkpt>
      <trkpt lat="49.34155" lon="1.03489">
        <ele>127</ele>
        <time>2019-01-21T12:55:12Z</time>
      </trkpt>
      <trkpt lat="49.34154" lon="1.0349">
        <ele>127</ele>
        <time>2019-01-21T12:55:13Z</time>
      </trkpt>
      <trkpt lat="49.34153" lon="1.03492">
        <ele>127</ele>
        <time>2019-01-21T12:55:14Z</time>
      </trkpt>
      <trkpt lat="49.34152" lon="1.03494">
        <ele>127</ele>
        <time>2019-01-21T12:55:15Z</time>
      </trkpt>
      <trkpt lat="49.34151" lon="1.03496">
        <ele>127</ele>
        <time>2019-01-21T12:55:16Z</time>
      </trkpt>
      <trkpt lat="49.3415" lon="1.03498">
        <ele>127</ele>
        <time>2019-01-21T12:55:17Z</time>
      </trkpt>
      <trkpt lat="49.34144" lon="1.03521">
        <ele>127</ele>
        <time>2019-01-21T12:55:23Z</time>
      </trkpt>
      <trkpt lat="49.34137" lon="1.03554">
        <ele>127</ele>
        <time>2019-01-21T12:55:29Z</time>
      </trkpt>
      <trkpt lat="49.3413" lon="1.03585">
        <ele>127</ele>
        <time>2019-01-21T12:55:35Z</time>
      </trkpt>
      <trkpt lat="49.34125" lon="1.03615">
        <ele>126</ele>
        <time>2019-01-21T12:55:41Z</time>
      </trkpt>
      <trkpt lat="49.34118" lon="1.03647">
        <ele>126</ele>
        <time>2019-01-21T12:55:47Z</time>
      </trkpt>
      <trkpt lat="49.34113" lon="1.03681">
        <ele>126</ele>
        <time>2019-01-21T12:55:53Z</time>
      </trkpt>
      <trkpt lat="49.34107" lon="1.03708">
        <ele>126</ele>
        <time>2019-01-21T12:55:58Z</time>
      </trkpt>
      <trkpt lat="49.34104" lon="1.03734">
        <ele>126</ele>
        <time>2019-01-21T12:56:02Z</time>
      </trkpt>
      <trkpt lat="49.34102" lon="1.03739">
        <ele>126</ele>
        <time>2019-01-21T12:56:03Z</time>
      </trkpt>
      <trkpt lat="49.34099" lon="1.03744">
        <ele>126</ele>
        <time>2019-01-21T12:56:04Z</time>
      </trkpt>
      <trkpt lat="49.34098" lon="1.03749">
        <ele>126</ele>
        <time>2019-01-21T12:56:05Z</time>
      </trkpt>
      <trkpt lat="49.34097" lon="1.03755">
        <ele>126</ele>
        <time>2019-01-21T12:56:06Z</time>
      </trkpt>
      <trkpt lat="49.34096" lon="1.03762">
        <ele>126</ele>
        <time>2019-01-21T12:56:07Z</time>
      </trkpt>
      <trkpt lat="49.34095" lon="1.03768">
        <ele>126</ele>
        <time>2019-01-21T12:56:08Z</time>
      </trkpt>
      <trkpt lat="49.34094" lon="1.03775">
        <ele>126</ele>
        <time>2019-01-21T12:56:09Z</time>
      </trkpt>
      <trkpt lat="49.3409" lon="1.038">
        <ele>126</ele>
        <time>2019-01-21T12:56:14Z</time>
      </trkpt>
      <trkpt lat="49.34084" lon="1.03825">
        <ele>126</ele>
        <time>2019-01-21T12:56:19Z</time>
      </trkpt>
      <trkpt lat="49.34083" lon="1.03857">
        <ele>126</ele>
        <time>2019-01-21T12:56:24Z</time>
      </trkpt>
      <trkpt lat="49.34089" lon="1.03876">
        <ele>126</ele>
        <time>2019-01-21T12:56:29Z</time>
      </trkpt>
      <trkpt lat="49.34102" lon="1.03895">
        <ele>125</ele>
        <time>2019-01-21T12:56:34Z</time>
      </trkpt>
      <trkpt lat="49.3413" lon="1.03921">
        <ele>125</ele>
        <time>2019-01-21T12:56:41Z</time>
      </trkpt>
      <trkpt lat="49.34172" lon="1.03955">
        <ele>125</ele>
        <time>2019-01-21T12:56:51Z</time>
      </trkpt>
      <trkpt lat="49.34217" lon="1.03991">
        <ele>125</ele>
        <time>2019-01-21T12:57:01Z</time>
      </trkpt>
      <trkpt lat="49.34222" lon="1.03994">
        <ele>125</ele>
        <time>2019-01-21T12:57:02Z</time>
      </trkpt>
      <trkpt lat="49.34239" lon="1.04004">
        <ele>125</ele>
        <time>2019-01-21T12:57:06Z</time>
      </trkpt>
      <trkpt lat="49.34258" lon="1.04017">
        <ele>125</ele>
        <time>2019-01-21T12:57:11Z</time>
      </trkpt>
      <trkpt lat="49.34262" lon="1.0402">
        <ele>124</ele>
        <time>2019-01-21T12:57:12Z</time>
      </trkpt>
      <trkpt lat="49.34266" lon="1.04022">
        <ele>124</ele>
        <time>2019-01-21T12:57:13Z</time>
      </trkpt>
      <trkpt lat="49.3429" lon="1.04041">
        <ele>124</ele>
        <time>2019-01-21T12:57:20Z</time>
      </trkpt>
      <trkpt lat="49.34296" lon="1.04049">
        <ele>124</ele>
        <time>2019-01-21T12:57:22Z</time>
      </trkpt>
      <trkpt lat="49.34299" lon="1.04055">
        <ele>124</ele>
        <time>2019-01-21T12:57:23Z</time>
      </trkpt>
      <trkpt lat="49.343" lon="1.04062">
        <ele>124</ele>
        <time>2019-01-21T12:57:24Z</time>
      </trkpt>
      <trkpt lat="49.34301" lon="1.04068">
        <ele>124</ele>
        <time>2019-01-21T12:57:25Z</time>
      </trkpt>
      <trkpt lat="49.34301" lon="1.04075">
        <ele>124</ele>
        <time>2019-01-21T12:57:26Z</time>
      </trkpt>
      <trkpt lat="49.34301" lon="1.04082">
        <ele>124</ele>
        <time>2019-01-21T12:57:27Z</time>
      </trkpt>
      <trkpt lat="49.34304" lon="1.04143">
        <ele>123</ele>
        <time>2019-01-21T12:57:34Z</time>
      </trkpt>
      <trkpt lat="49.34303" lon="1.0421">
        <ele>122</ele>
        <time>2019-01-21T12:57:41Z</time>
      </trkpt>
      <trkpt lat="49.34304" lon="1.04286">
        <ele>121</ele>
        <time>2019-01-21T12:57:49Z</time>
      </trkpt>
      <trkpt lat="49.34305" lon="1.04337">
        <ele>120</ele>
        <time>2019-01-21T12:57:55Z</time>
      </trkpt>
      <trkpt lat="49.34306" lon="1.04381">
        <ele>120</ele>
        <time>2019-01-21T12:58:00Z</time>
      </trkpt>
      <trkpt lat="49.34306" lon="1.04408">
        <ele>120</ele>
        <time>2019-01-21T12:58:05Z</time>
      </trkpt>
      <trkpt lat="49.34307" lon="1.04432">
        <ele>120</ele>
        <time>2019-01-21T12:58:11Z</time>
      </trkpt>
      <trkpt lat="49.34307" lon="1.0447">
        <ele>119</ele>
        <time>2019-01-21T12:58:19Z</time>
      </trkpt>
      <trkpt lat="49.34308" lon="1.04509">
        <ele>119</ele>
        <time>2019-01-21T12:58:26Z</time>
      </trkpt>
      <trkpt lat="49.34308" lon="1.04552">
        <ele>119</ele>
        <time>2019-01-21T12:58:33Z</time>
      </trkpt>
      <trkpt lat="49.34309" lon="1.04607">
        <ele>118</ele>
        <time>2019-01-21T12:58:40Z</time>
      </trkpt>
      <trkpt lat="49.34309" lon="1.04672">
        <ele>118</ele>
        <time>2019-01-21T12:58:47Z</time>
      </trkpt>
      <trkpt lat="49.34308" lon="1.04745">
        <ele>117</ele>
        <time>2019-01-21T12:58:55Z</time>
      </trkpt>
      <trkpt lat="49.34307" lon="1.04807">
        <ele>117</ele>
        <time>2019-01-21T12:59:02Z</time>
      </trkpt>
      <trkpt lat="49.34306" lon="1.04842">
        <ele>117</ele>
        <time>2019-01-21T12:59:06Z</time>
      </trkpt>
      <trkpt lat="49.34305" lon="1.04878">
        <ele>117</ele>
        <time>2019-01-21T12:59:12Z</time>
      </trkpt>
      <trkpt lat="49.34305" lon="1.04912">
        <ele>117</ele>
        <time>2019-01-21T12:59:19Z</time>
      </trkpt>
      <trkpt lat="49.34303" lon="1.04945">
        <ele>116</ele>
        <time>2019-01-21T12:59:25Z</time>
      </trkpt>
      <trkpt lat="49.34301" lon="1.04996">
        <ele>115</ele>
        <time>2019-01-21T12:59:33Z</time>
      </trkpt>
      <trkpt lat="49.34301" lon="1.05003">
        <ele>115</ele>
        <time>2019-01-21T12:59:34Z</time>
      </trkpt>
      <trkpt lat="49.34303" lon="1.05032">
        <ele>115</ele>
        <time>2019-01-21T12:59:38Z</time>
      </trkpt>
      <trkpt lat="49.34302" lon="1.05047">
        <ele>115</ele>
        <time>2019-01-21T12:59:40Z</time>
      </trkpt>
      <trkpt lat="49.34301" lon="1.05054">
        <ele>115</ele>
        <time>2019-01-21T12:59:41Z</time>
      </trkpt>
      <trkpt lat="49.34299" lon="1.05069">
        <ele>114</ele>
        <time>2019-01-21T12:59:43Z</time>
      </trkpt>
      <trkpt lat="49.34298" lon="1.05077">
        <ele>114</ele>
        <time>2019-01-21T12:59:44Z</time>
      </trkpt>
      <trkpt lat="49.34294" lon="1.05118">
        <ele>114</ele>
        <time>2019-01-21T12:59:49Z</time>
      </trkpt>
      <trkpt lat="49.34294" lon="1.05126">
        <ele>114</ele>
        <time>2019-01-21T12:59:50Z</time>
      </trkpt>
      <trkpt lat="49.34296" lon="1.05135">
        <ele>113</ele>
        <time>2019-01-21T12:59:51Z</time>
      </trkpt>
      <trkpt lat="49.34297" lon="1.05143">
        <ele>113</ele>
        <time>2019-01-21T12:59:52Z</time>
      </trkpt>
      <trkpt lat="49.34298" lon="1.05151">
        <ele>113</ele>
        <time>2019-01-21T12:59:53Z</time>
      </trkpt>
      <trkpt lat="49.34298" lon="1.05159">
        <ele>113</ele>
        <time>2019-01-21T12:59:54Z</time>
      </trkpt>
      <trkpt lat="49.34299" lon="1.05168">
        <ele>113</ele>
        <time>2019-01-21T12:59:55Z</time>
      </trkpt>
      <trkpt lat="49.34299" lon="1.05176">
        <ele>113</ele>
        <time>2019-01-21T12:59:56Z</time>
      </trkpt>
      <trkpt lat="49.34298" lon="1.05184">
        <ele>113</ele>
        <time>2019-01-21T12:59:57Z</time>
      </trkpt>
      <trkpt lat="49.34295" lon="1.05191">
        <ele>113</ele>
        <time>2019-01-21T12:59:58Z</time>
      </trkpt>
      <trkpt lat="49.34292" lon="1.05198">
        <ele>112</ele>
        <time>2019-01-21T12:59:59Z</time>
      </trkpt>
      <trkpt lat="49.3429" lon="1.05205">
        <ele>112</ele>
        <time>2019-01-21T13:00:00Z</time>
      </trkpt>
      <trkpt lat="49.34289" lon="1.05214">
        <ele>112</ele>
        <time>2019-01-21T13:00:01Z</time>
      </trkpt>
      <trkpt lat="49.34288" lon="1.05223">
        <ele>112</ele>
        <time>2019-01-21T13:00:02Z</time>
      </trkpt>
      <trkpt lat="49.34285" lon="1.05241">
        <ele>112</ele>
        <time>2019-01-21T13:00:04Z</time>
      </trkpt>
      <trkpt lat="49.3428" lon="1.05266">
        <ele>111</ele>
        <time>2019-01-21T13:00:07Z</time>
      </trkpt>
      <trkpt lat="49.34279" lon="1.05288">
        <ele>111</ele>
        <time>2019-01-21T13:00:10Z</time>
      </trkpt>
      <trkpt lat="49.34279" lon="1.05296">
        <ele>111</ele>
        <time>2019-01-21T13:00:11Z</time>
      </trkpt>
      <trkpt lat="49.3428" lon="1.05303">
        <ele>111</ele>
        <time>2019-01-21T13:00:12Z</time>
      </trkpt>
      <trkpt lat="49.34281" lon="1.05311">
        <ele>111</ele>
        <time>2019-01-21T13:00:13Z</time>
      </trkpt>
      <trkpt lat="49.34282" lon="1.05319">
        <ele>110</ele>
        <time>2019-01-21T13:00:14Z</time>
      </trkpt>
      <trkpt lat="49.34288" lon="1.05387">
        <ele>109</ele>
        <time>2019-01-21T13:00:23Z</time>
      </trkpt>
      <trkpt lat="49.34286" lon="1.05447">
        <ele>108</ele>
        <time>2019-01-21T13:00:30Z</time>
      </trkpt>
      <trkpt lat="49.34286" lon="1.05465">
        <ele>108</ele>
        <time>2019-01-21T13:00:32Z</time>
      </trkpt>
      <trkpt lat="49.34285" lon="1.05474">
        <ele>107</ele>
        <time>2019-01-21T13:00:33Z</time>
      </trkpt>
      <trkpt lat="49.3428" lon="1.05529">
        <ele>105</ele>
        <time>2019-01-21T13:00:39Z</time>
      </trkpt>
      <trkpt lat="49.34281" lon="1.05537">
        <ele>105</ele>
        <time>2019-01-21T13:00:40Z</time>
      </trkpt>
      <trkpt lat="49.34283" lon="1.05545">
        <ele>105</ele>
        <time>2019-01-21T13:00:41Z</time>
      </trkpt>
      <trkpt lat="49.34293" lon="1.05592">
        <ele>103</ele>
        <time>2019-01-21T13:00:48Z</time>
      </trkpt>
      <trkpt lat="49.34295" lon="1.05635">
        <ele>102</ele>
        <time>2019-01-21T13:00:55Z</time>
      </trkpt>
      <trkpt lat="49.34292" lon="1.05677">
        <ele>100</ele>
        <time>2019-01-21T13:01:02Z</time>
      </trkpt>
      <trkpt lat="49.34287" lon="1.05709">
        <ele>99</ele>
        <time>2019-01-21T13:01:07Z</time>
      </trkpt>
      <trkpt lat="49.34288" lon="1.05715">
        <ele>99</ele>
        <time>2019-01-21T13:01:08Z</time>
      </trkpt>
      <trkpt lat="49.3429" lon="1.05721">
        <ele>98</ele>
        <time>2019-01-21T13:01:09Z</time>
      </trkpt>
      <trkpt lat="49.3429" lon="1.05726">
        <ele>98</ele>
        <time>2019-01-21T13:01:10Z</time>
      </trkpt>
      <trkpt lat="49.34291" lon="1.05731">
        <ele>98</ele>
        <time>2019-01-21T13:01:11Z</time>
      </trkpt>
      <trkpt lat="49.34291" lon="1.05737">
        <ele>98</ele>
        <time>2019-01-21T13:01:12Z</time>
      </trkpt>
      <trkpt lat="49.34291" lon="1.05746">
        <ele>98</ele>
        <time>2019-01-21T13:01:14Z</time>
      </trkpt>
      <trkpt lat="49.34291" lon="1.05778">
        <ele>97</ele>
        <time>2019-01-21T13:01:18Z</time>
      </trkpt>
      <trkpt lat="49.34293" lon="1.05791">
        <ele>96</ele>
        <time>2019-01-21T13:01:22Z</time>
      </trkpt>
      <trkpt lat="49.34295" lon="1.05799">
        <ele>96</ele>
        <time>2019-01-21T13:01:29Z</time>
      </trkpt>
      <trkpt lat="49.34296" lon="1.05808">
        <ele>95</ele>
        <time>2019-01-21T13:01:31Z</time>
      </trkpt>
      <trkpt lat="49.34295" lon="1.05812">
        <ele>95</ele>
        <time>2019-01-21T13:01:33Z</time>
      </trkpt>
      <trkpt lat="49.34294" lon="1.05829">
        <ele>94</ele>
        <time>2019-01-21T13:01:38Z</time>
      </trkpt>
      <trkpt lat="49.34292" lon="1.05836">
        <ele>93</ele>
        <time>2019-01-21T13:01:42Z</time>
      </trkpt>
      <trkpt lat="49.34283" lon="1.05849">
        <ele>91</ele>
        <time>2019-01-21T13:01:50Z</time>
      </trkpt>
      <trkpt lat="49.3428" lon="1.05851">
        <ele>90</ele>
        <time>2019-01-21T13:01:52Z</time>
      </trkpt>
      <trkpt lat="49.34273" lon="1.0585">
        <ele>89</ele>
        <time>2019-01-21T13:01:56Z</time>
      </trkpt>
      <trkpt lat="49.34268" lon="1.05853">
        <ele>87</ele>
        <time>2019-01-21T13:02:03Z</time>
      </trkpt>
      <trkpt lat="49.34267" lon="1.05854">
        <ele>87</ele>
        <time>2019-01-21T13:02:16Z</time>
      </trkpt>
      <trkpt lat="49.34268" lon="1.05856">
        <ele>87</ele>
        <time>2019-01-21T13:02:32Z</time>
      </trkpt>
      <trkpt lat="49.34266" lon="1.05855">
        <ele>86</ele>
        <time>2019-01-21T13:02:44Z</time>
      </trkpt>
      <trkpt lat="49.34265" lon="1.05856">
        <ele>86</ele>
        <time>2019-01-21T13:02:56Z</time>
      </trkpt>
      <trkpt lat="49.34262" lon="1.05858">
        <ele>85</ele>
        <time>2019-01-21T13:03:03Z</time>
      </trkpt>
      <trkpt lat="49.3426" lon="1.05857">
        <ele>84</ele>
        <time>2019-01-21T13:03:11Z</time>
      </trkpt>
      <trkpt lat="49.34256" lon="1.05859">
        <ele>82</ele>
        <time>2019-01-21T13:03:19Z</time>
      </trkpt>
      <trkpt lat="49.34244" lon="1.05866">
        <ele>77</ele>
        <time>2019-01-21T13:03:24Z</time>
      </trkpt>
      <trkpt lat="49.34228" lon="1.05882">
        <ele>69</ele>
        <time>2019-01-21T13:03:30Z</time>
      </trkpt>
      <trkpt lat="49.34222" lon="1.05886">
        <ele>67</ele>
        <time>2019-01-21T13:03:33Z</time>
      </trkpt>
      <trkpt lat="49.34204" lon="1.05869">
        <ele>62</ele>
        <time>2019-01-21T13:03:40Z</time>
      </trkpt>
      <trkpt lat="49.34194" lon="1.05875">
        <ele>59</ele>
        <time>2019-01-21T13:05:15Z</time>
      </trkpt>
      <trkpt lat="49.34172" lon="1.05888">
        <ele>54</ele>
        <time>2019-01-21T13:05:22Z</time>
      </trkpt>
      <trkpt lat="49.34184" lon="1.05958">
        <ele>53</ele>
        <time>2019-01-21T13:05:50Z</time>
      </trkpt>
      <trkpt lat="49.34184" lon="1.05977">
        <ele>53</ele>
        <time>2019-01-21T13:05:56Z</time>
      </trkpt>
      <trkpt lat="49.34179" lon="1.0601">
        <ele>52</ele>
        <time>2019-01-21T13:06:03Z</time>
      </trkpt>
      <trkpt lat="49.34176" lon="1.06053">
        <ele>52</ele>
        <time>2019-01-21T13:06:41Z</time>
      </trkpt>
      <trkpt lat="49.34174" lon="1.06054">
        <ele>52</ele>
        <time>2019-01-21T13:06:43Z</time>
      </trkpt>
      <trkpt lat="49.3417" lon="1.06054">
        <ele>52</ele>
        <time>2019-01-21T13:06:46Z</time>
      </trkpt>
      <trkpt lat="49.3416" lon="1.06055">
        <ele>52</ele>
        <time>2019-01-21T13:06:51Z</time>
      </trkpt>
      <trkpt lat="49.34157" lon="1.06058">
        <ele>52</ele>
        <time>2019-01-21T13:06:53Z</time>
      </trkpt>
      <trkpt lat="49.34152" lon="1.06059">
        <ele>52</ele>
        <time>2019-01-21T13:06:56Z</time>
      </trkpt>
      <trkpt lat="49.34142" lon="1.06055">
        <ele>52</ele>
        <time>2019-01-21T13:07:00Z</time>
      </trkpt>
      <trkpt lat="49.34132" lon="1.06059">
        <ele>53</ele>
        <time>2019-01-21T13:07:04Z</time>
      </trkpt>
      <trkpt lat="49.3412" lon="1.06064">
        <ele>54</ele>
        <time>2019-01-21T13:07:10Z</time>
      </trkpt>
      <trkpt lat="49.34119" lon="1.06064">
        <ele>54</ele>
        <time>2019-01-21T13:07:11Z</time>
      </trkpt>
      <trkpt lat="49.34111" lon="1.06064">
        <ele>55</ele>
        <time>2019-01-21T13:07:14Z</time>
      </trkpt>
      <trkpt lat="49.34101" lon="1.06065">
        <ele>56</ele>
        <time>2019-01-21T13:07:18Z</time>
      </trkpt>
      <trkpt lat="49.34086" lon="1.06066">
        <ele>58</ele>
        <time>2019-01-21T13:07:25Z</time>
      </trkpt>
      <trkpt lat="49.34069" lon="1.06056">
        <ele>61</ele>
        <time>2019-01-21T13:07:32Z</time>
      </trkpt>
      <trkpt lat="49.34061" lon="1.06058">
        <ele>62</ele>
        <time>2019-01-21T13:07:35Z</time>
      </trkpt>
      <trkpt lat="49.34051" lon="1.06066">
        <ele>63</ele>
        <time>2019-01-21T13:07:40Z</time>
      </trkpt>
      <trkpt lat="49.34041" lon="1.0608">
        <ele>65</ele>
        <time>2019-01-21T13:07:46Z</time>
      </trkpt>
      <trkpt lat="49.34035" lon="1.06096">
        <ele>66</ele>
        <time>2019-01-21T13:07:51Z</time>
      </trkpt>
      <trkpt lat="49.34029" lon="1.06112">
        <ele>67</ele>
        <time>2019-01-21T13:07:55Z</time>
      </trkpt>
      <trkpt lat="49.34027" lon="1.06123">
        <ele>68</ele>
        <time>2019-01-21T13:07:58Z</time>
      </trkpt>
      <trkpt lat="49.34023" lon="1.06135">
        <ele>68</ele>
        <time>2019-01-21T13:08:03Z</time>
      </trkpt>
      <trkpt lat="49.34019" lon="1.06143">
        <ele>68</ele>
        <time>2019-01-21T13:08:06Z</time>
      </trkpt>
      <trkpt lat="49.34017" lon="1.06154">
        <ele>68</ele>
        <time>2019-01-21T13:08:14Z</time>
      </trkpt>
      <trkpt lat="49.34017" lon="1.06158">
        <ele>68</ele>
        <time>2019-01-21T13:08:28Z</time>
      </trkpt>
      <trkpt lat="49.34014" lon="1.06166">
        <ele>68</ele>
        <time>2019-01-21T13:08:32Z</time>
      </trkpt>
      <trkpt lat="49.34005" lon="1.06175">
        <ele>70</ele>
        <time>2019-01-21T13:08:39Z</time>
      </trkpt>
      <trkpt lat="49.34004" lon="1.06174">
        <ele>70</ele>
        <time>2019-01-21T13:08:41Z</time>
      </trkpt>
      <trkpt lat="49.34006" lon="1.06166">
        <ele>70</ele>
        <time>2019-01-21T13:08:46Z</time>
      </trkpt>
      <trkpt lat="49.34004" lon="1.06152">
        <ele>72</ele>
        <time>2019-01-21T13:08:53Z</time>
      </trkpt>
      <trkpt lat="49.34003" lon="1.06147">
        <ele>72</ele>
        <time>2019-01-21T13:08:55Z</time>
      </trkpt>
      <trkpt lat="49.33994" lon="1.06121">
        <ele>76</ele>
        <time>2019-01-21T13:09:03Z</time>
      </trkpt>
      <trkpt lat="49.33993" lon="1.06118">
        <ele>77</ele>
        <time>2019-01-21T13:09:04Z</time>
      </trkpt>
      <trkpt lat="49.3399" lon="1.06095">
        <ele>79</ele>
        <time>2019-01-21T13:09:11Z</time>
      </trkpt>
      <trkpt lat="49.33988" lon="1.0608">
        <ele>81</ele>
        <time>2019-01-21T13:09:17Z</time>
      </trkpt>
      <trkpt lat="49.33987" lon="1.0606">
        <ele>82</ele>
        <time>2019-01-21T13:09:25Z</time>
      </trkpt>
      <trkpt lat="49.33987" lon="1.06033">
        <ele>84</ele>
        <time>2019-01-21T13:09:33Z</time>
      </trkpt>
      <trkpt lat="49.33988" lon="1.06027">
        <ele>84</ele>
        <time>2019-01-21T13:09:39Z</time>
      </trkpt>
      <trkpt lat="49.3399" lon="1.0602">
        <ele>84</ele>
        <time>2019-01-21T13:09:55Z</time>
      </trkpt>
      <trkpt lat="49.3399" lon="1.06008">
        <ele>85</ele>
        <time>2019-01-21T13:10:04Z</time>
      </trkpt>
      <trkpt lat="49.3399" lon="1.06002">
        <ele>85</ele>
        <time>2019-01-21T13:10:06Z</time>
      </trkpt>
      <trkpt lat="49.33993" lon="1.05992">
        <ele>85</ele>
        <time>2019-01-21T13:10:10Z</time>
      </trkpt>
      <trkpt lat="49.33993" lon="1.05977">
        <ele>86</ele>
        <time>2019-01-21T13:10:19Z</time>
      </trkpt>
      <trkpt lat="49.33991" lon="1.05971">
        <ele>87</ele>
        <time>2019-01-21T13:10:33Z</time>
      </trkpt>
      <trkpt lat="49.33992" lon="1.05963">
        <ele>87</ele>
        <time>2019-01-21T13:11:01Z</time>
      </trkpt>
      <trkpt lat="49.33992" lon="1.0597">
        <ele>87</ele>
        <time>2019-01-21T13:11:20Z</time>
      </trkpt>
      <trkpt lat="49.3399" lon="1.05968">
        <ele>87</ele>
        <time>2019-01-21T13:11:47Z</time>
      </trkpt>
      <trkpt lat="49.33992" lon="1.05967">
        <ele>87</ele>
        <time>2019-01-21T13:12:05Z</time>
      </trkpt>
      <trkpt lat="49.33993" lon="1.05961">
        <ele>87</ele>
        <time>2019-01-21T13:12:13Z</time>
      </trkpt>
      <trkpt lat="49.33992" lon="1.05939">
        <ele>88</ele>
        <time>2019-01-21T13:12:22Z</time>
      </trkpt>
      <trkpt lat="49.33991" lon="1.05922">
        <ele>89</ele>
        <time>2019-01-21T13:12:27Z</time>
      </trkpt>
      <trkpt lat="49.33991" lon="1.05919">
        <ele>89</ele>
        <time>2019-01-21T13:12:28Z</time>
      </trkpt>
      <trkpt lat="49.33987" lon="1.05899">
        <ele>91</ele>
        <time>2019-01-21T13:12:34Z</time>
      </trkpt>
      <trkpt lat="49.33986" lon="1.05884">
        <ele>91</ele>
        <time>2019-01-21T13:12:38Z</time>
      </trkpt>
      <trkpt lat="49.33981" lon="1.05866">
        <ele>93</ele>
        <time>2019-01-21T13:12:42Z</time>
      </trkpt>
      <trkpt lat="49.33979" lon="1.05863">
        <ele>93</ele>
        <time>2019-01-21T13:12:43Z</time>
      </trkpt>
      <trkpt lat="49.33973" lon="1.05846">
        <ele>94</ele>
        <time>2019-01-21T13:12:49Z</time>
      </trkpt>
      <trkpt lat="49.33966" lon="1.05834">
        <ele>95</ele>
        <time>2019-01-21T13:12:54Z</time>
      </trkpt>
      <trkpt lat="49.33965" lon="1.05832">
        <ele>95</ele>
        <time>2019-01-21T13:12:55Z</time>
      </trkpt>
      <trkpt lat="49.33967" lon="1.05819">
        <ele>94</ele>
        <time>2019-01-21T13:13:01Z</time>
      </trkpt>
      <trkpt lat="49.33972" lon="1.05805">
        <ele>94</ele>
        <time>2019-01-21T13:13:06Z</time>
      </trkpt>
      <trkpt lat="49.33975" lon="1.05801">
        <ele>93</ele>
        <time>2019-01-21T13:13:10Z</time>
      </trkpt>
      <trkpt lat="49.33981" lon="1.0579">
        <ele>93</ele>
        <time>2019-01-21T13:13:18Z</time>
      </trkpt>
      <trkpt lat="49.33981" lon="1.05783">
        <ele>92</ele>
        <time>2019-01-21T13:13:25Z</time>
      </trkpt>
      <trkpt lat="49.33984" lon="1.05768">
        <ele>91</ele>
        <time>2019-01-21T13:13:32Z</time>
      </trkpt>
      <trkpt lat="49.33986" lon="1.05761">
        <ele>91</ele>
        <time>2019-01-21T13:13:36Z</time>
      </trkpt>
      <trkpt lat="49.33994" lon="1.05747">
        <ele>89</ele>
        <time>2019-01-21T13:13:42Z</time>
      </trkpt>
      <trkpt lat="49.33995" lon="1.05726">
        <ele>88</ele>
        <time>2019-01-21T13:13:46Z</time>
      </trkpt>
      <trkpt lat="49.33994" lon="1.05722">
        <ele>88</ele>
        <time>2019-01-21T13:13:48Z</time>
      </trkpt>
      <trkpt lat="49.33975" lon="1.05741">
        <ele>91</ele>
        <time>2019-01-21T13:14:01Z</time>
      </trkpt>
      <trkpt lat="49.33962" lon="1.05756">
        <ele>93</ele>
        <time>2019-01-21T13:14:07Z</time>
      </trkpt>
      <trkpt lat="49.33947" lon="1.05767">
        <ele>95</ele>
        <time>2019-01-21T13:14:13Z</time>
      </trkpt>
      <trkpt lat="49.33926" lon="1.05777">
        <ele>97</ele>
        <time>2019-01-21T13:14:20Z</time>
      </trkpt>
      <trkpt lat="49.33909" lon="1.05788">
        <ele>99</ele>
        <time>2019-01-21T13:14:26Z</time>
      </trkpt>
      <trkpt lat="49.33888" lon="1.05796">
        <ele>100</ele>
        <time>2019-01-21T13:14:33Z</time>
      </trkpt>
      <trkpt lat="49.33873" lon="1.0579">
        <ele>101</ele>
        <time>2019-01-21T13:14:38Z</time>
      </trkpt>
      <trkpt lat="49.33855" lon="1.05769">
        <ele>102</ele>
        <time>2019-01-21T13:14:45Z</time>
      </trkpt>
      <trkpt lat="49.33837" lon="1.05744">
        <ele>103</ele>
        <time>2019-01-21T13:14:52Z</time>
      </trkpt>
      <trkpt lat="49.33825" lon="1.05724">
        <ele>104</ele>
        <time>2019-01-21T13:14:58Z</time>
      </trkpt>
      <trkpt lat="49.3381" lon="1.05703">
        <ele>104</ele>
        <time>2019-01-21T13:15:04Z</time>
      </trkpt>
      <trkpt lat="49.33792" lon="1.05673">
        <ele>105</ele>
        <time>2019-01-21T13:15:12Z</time>
      </trkpt>
      <trkpt lat="49.33776" lon="1.05648">
        <ele>106</ele>
        <time>2019-01-21T13:15:19Z</time>
      </trkpt>
      <trkpt lat="49.33764" lon="1.05632">
        <ele>106</ele>
        <time>2019-01-21T13:15:24Z</time>
      </trkpt>
      <trkpt lat="49.33754" lon="1.05614">
        <ele>106</ele>
        <time>2019-01-21T13:15:29Z</time>
      </trkpt>
      <trkpt lat="49.33741" lon="1.05592">
        <ele>106</ele>
        <time>2019-01-21T13:15:36Z</time>
      </trkpt>
      <trkpt lat="49.33726" lon="1.05569">
        <ele>107</ele>
        <time>2019-01-21T13:15:42Z</time>
      </trkpt>
      <trkpt lat="49.33715" lon="1.05549">
        <ele>107</ele>
        <time>2019-01-21T13:15:47Z</time>
      </trkpt>
      <trkpt lat="49.33696" lon="1.0552">
        <ele>109</ele>
        <time>2019-01-21T13:15:54Z</time>
      </trkpt>
      <trkpt lat="49.3368" lon="1.05495">
        <ele>110</ele>
        <time>2019-01-21T13:16:00Z</time>
      </trkpt>
      <trkpt lat="49.33662" lon="1.05465">
        <ele>111</ele>
        <time>2019-01-21T13:16:07Z</time>
      </trkpt>
      <trkpt lat="49.33642" lon="1.05435">
        <ele>112</ele>
        <time>2019-01-21T13:16:14Z</time>
      </trkpt>
      <trkpt lat="49.33635" lon="1.05423">
        <ele>112</ele>
        <time>2019-01-21T13:16:17Z</time>
      </trkpt>
      <trkpt lat="49.33635" lon="1.05419">
        <ele>112</ele>
        <time>2019-01-21T13:16:18Z</time>
      </trkpt>
      <trkpt lat="49.33634" lon="1.05415">
        <ele>112</ele>
        <time>2019-01-21T13:16:19Z</time>
      </trkpt>
      <trkpt lat="49.33634" lon="1.05413">
        <ele>112</ele>
        <time>2019-01-21T13:16:20Z</time>
      </trkpt>
      <trkpt lat="49.33634" lon="1.0541">
        <ele>112</ele>
        <time>2019-01-21T13:16:21Z</time>
      </trkpt>
      <trkpt lat="49.33635" lon="1.05407">
        <ele>112</ele>
        <time>2019-01-21T13:16:22Z</time>
      </trkpt>
      <trkpt lat="49.33637" lon="1.05406">
        <ele>112</ele>
        <time>2019-01-21T13:16:23Z</time>
      </trkpt>
      <trkpt lat="49.3364" lon="1.05405">
        <ele>112</ele>
        <time>2019-01-21T13:16:24Z</time>
      </trkpt>
      <trkpt lat="49.33646" lon="1.05399">
        <ele>111</ele>
        <time>2019-01-21T13:16:26Z</time>
      </trkpt>
      <trkpt lat="49.33657" lon="1.05391">
        <ele>110</ele>
        <time>2019-01-21T13:16:31Z</time>
      </trkpt>
      <trkpt lat="49.33674" lon="1.0538">
        <ele>109</ele>
        <time>2019-01-21T13:16:37Z</time>
      </trkpt>
      <trkpt lat="49.33684" lon="1.05374">
        <ele>108</ele>
        <time>2019-01-21T13:16:41Z</time>
      </trkpt>
      <trkpt lat="49.33692" lon="1.05372">
        <ele>107</ele>
        <time>2019-01-21T13:16:46Z</time>
      </trkpt>
      <trkpt lat="49.33693" lon="1.05374">
        <ele>106</ele>
        <time>2019-01-21T13:16:47Z</time>
      </trkpt>
      <trkpt lat="49.33695" lon="1.0538">
        <ele>106</ele>
        <time>2019-01-21T13:16:49Z</time>
      </trkpt>
      <trkpt lat="49.33707" lon="1.054">
        <ele>105</ele>
        <time>2019-01-21T13:16:55Z</time>
      </trkpt>
      <trkpt lat="49.33708" lon="1.05403">
        <ele>105</ele>
        <time>2019-01-21T13:16:56Z</time>
      </trkpt>
      <trkpt lat="49.3371" lon="1.05406">
        <ele>105</ele>
        <time>2019-01-21T13:16:58Z</time>
      </trkpt>
      <trkpt lat="49.33715" lon="1.0541">
        <ele>105</ele>
        <time>2019-01-21T13:17:03Z</time>
      </trkpt>
      <trkpt lat="49.33717" lon="1.05419">
        <ele>105</ele>
        <time>2019-01-21T13:17:10Z</time>
      </trkpt>
      <trkpt lat="49.33719" lon="1.05425">
        <ele>104</ele>
        <time>2019-01-21T13:17:18Z</time>
      </trkpt>
      <trkpt lat="49.33719" lon="1.05443">
        <ele>105</ele>
        <time>2019-01-21T13:17:24Z</time>
      </trkpt>
      <trkpt lat="49.33728" lon="1.05468">
        <ele>104</ele>
        <time>2019-01-21T13:17:30Z</time>
      </trkpt>
      <trkpt lat="49.33731" lon="1.05476">
        <ele>104</ele>
        <time>2019-01-21T13:17:32Z</time>
      </trkpt>
      <trkpt lat="49.33733" lon="1.0549">
        <ele>105</ele>
        <time>2019-01-21T13:17:36Z</time>
      </trkpt>
      <trkpt lat="49.33732" lon="1.05512">
        <ele>105</ele>
        <time>2019-01-21T13:17:43Z</time>
      </trkpt>
      <trkpt lat="49.33732" lon="1.05517">
        <ele>106</ele>
        <time>2019-01-21T13:17:44Z</time>
      </trkpt>
      <trkpt lat="49.3374" lon="1.05542">
        <ele>105</ele>
        <time>2019-01-21T13:17:48Z</time>
      </trkpt>
      <trkpt lat="49.33753" lon="1.05559">
        <ele>105</ele>
        <time>2019-01-21T13:17:51Z</time>
      </trkpt>
      <trkpt lat="49.33762" lon="1.0557">
        <ele>104</ele>
        <time>2019-01-21T13:17:55Z</time>
      </trkpt>
      <trkpt lat="49.33765" lon="1.05575">
        <ele>104</ele>
        <time>2019-01-21T13:18:02Z</time>
      </trkpt>
      <trkpt lat="49.33766" lon="1.05579">
        <ele>104</ele>
        <time>2019-01-21T13:18:12Z</time>
      </trkpt>
      <trkpt lat="49.33767" lon="1.05577">
        <ele>104</ele>
        <time>2019-01-21T13:18:20Z</time>
      </trkpt>
      <trkpt lat="49.33774" lon="1.05557">
        <ele>103</ele>
        <time>2019-01-21T13:18:26Z</time>
      </trkpt>
      <trkpt lat="49.33777" lon="1.05521">
        <ele>101</ele>
        <time>2019-01-21T13:18:32Z</time>
      </trkpt>
      <trkpt lat="49.33777" lon="1.05511">
        <ele>101</ele>
        <time>2019-01-21T13:18:33Z</time>
      </trkpt>
      <trkpt lat="49.33775" lon="1.05488">
        <ele>100</ele>
        <time>2019-01-21T13:18:35Z</time>
      </trkpt>
      <trkpt lat="49.33776" lon="1.05435">
        <ele>97</ele>
        <time>2019-01-21T13:18:39Z</time>
      </trkpt>
      <trkpt lat="49.33778" lon="1.05422">
        <ele>95</ele>
        <time>2019-01-21T13:18:40Z</time>
      </trkpt>
      <trkpt lat="49.33783" lon="1.05358">
        <ele>88</ele>
        <time>2019-01-21T13:18:45Z</time>
      </trkpt>
      <trkpt lat="49.33784" lon="1.05345">
        <ele>86</ele>
        <time>2019-01-21T13:18:46Z</time>
      </trkpt>
      <trkpt lat="49.33793" lon="1.05279">
        <ele>79</ele>
        <time>2019-01-21T13:18:51Z</time>
      </trkpt>
      <trkpt lat="49.33796" lon="1.05266">
        <ele>77</ele>
        <time>2019-01-21T13:18:52Z</time>
      </trkpt>
      <trkpt lat="49.33804" lon="1.05235">
        <ele>73</ele>
        <time>2019-01-21T13:18:55Z</time>
      </trkpt>
      <trkpt lat="49.33805" lon="1.05227">
        <ele>73</ele>
        <time>2019-01-21T13:18:56Z</time>
      </trkpt>
      <trkpt lat="49.33806" lon="1.05219">
        <ele>73</ele>
        <time>2019-01-21T13:18:57Z</time>
      </trkpt>
      <trkpt lat="49.33808" lon="1.05188">
        <ele>71</ele>
        <time>2019-01-21T13:19:01Z</time>
      </trkpt>
      <trkpt lat="49.33811" lon="1.05174">
        <ele>71</ele>
        <time>2019-01-21T13:19:03Z</time>
      </trkpt>
      <trkpt lat="49.33805" lon="1.05154">
        <ele>72</ele>
        <time>2019-01-21T13:19:04Z</time>
      </trkpt>
      <trkpt lat="49.33811" lon="1.05128">
        <ele>70</ele>
        <time>2019-01-21T13:20:26Z</time>
      </trkpt>
      <trkpt lat="49.3382" lon="1.05159">
        <ele>71</ele>
        <time>2019-01-21T13:20:27Z</time>
      </trkpt>
      <trkpt lat="49.33826" lon="1.05181">
        <ele>71</ele>
        <time>2019-01-21T13:20:34Z</time>
      </trkpt>
      <trkpt lat="49.33831" lon="1.05204">
        <ele>70</ele>
        <time>2019-01-21T13:20:39Z</time>
      </trkpt>
      <trkpt lat="49.33834" lon="1.05215">
        <ele>70</ele>
        <time>2019-01-21T13:20:45Z</time>
      </trkpt>
      <trkpt lat="49.33835" lon="1.05217">
        <ele>70</ele>
        <time>2019-01-21T13:20:56Z</time>
      </trkpt>
      <trkpt lat="49.33839" lon="1.05236">
        <ele>69</ele>
        <time>2019-01-21T13:21:01Z</time>
      </trkpt>
      <trkpt lat="49.33844" lon="1.05276">
        <ele>68</ele>
        <time>2019-01-21T13:21:08Z</time>
      </trkpt>
      <trkpt lat="49.33853" lon="1.05314">
        <ele>67</ele>
        <time>2019-01-21T13:21:15Z</time>
      </trkpt>
      <trkpt lat="49.33853" lon="1.05334">
        <ele>68</ele>
        <time>2019-01-21T13:21:22Z</time>
      </trkpt>
      <trkpt lat="49.33873" lon="1.05404">
        <ele>70</ele>
      </trkpt>
      <trkpt lat="49.33898" lon="1.05456">
        <ele>68</ele>
      </trkpt>
      <trkpt lat="49.33916" lon="1.05466">
        <ele>67</ele>
        <time>2019-01-21T13:23:07Z</time>
      </trkpt>
      <trkpt lat="49.33924" lon="1.05468">
        <ele>67</ele>
        <time>2019-01-21T13:23:08Z</time>
      </trkpt>
      <trkpt lat="49.33948" lon="1.05486">
        <ele>65</ele>
        <time>2019-01-21T13:23:13Z</time>
      </trkpt>
      <trkpt lat="49.33959" lon="1.05486">
        <ele>65</ele>
        <time>2019-01-21T13:23:16Z</time>
      </trkpt>
      <trkpt lat="49.33961" lon="1.0547">
        <ele>65</ele>
        <time>2019-01-21T13:23:20Z</time>
      </trkpt>
      <trkpt lat="49.33958" lon="1.05446">
        <ele>66</ele>
        <time>2019-01-21T13:23:25Z</time>
      </trkpt>
      <trkpt lat="49.33957" lon="1.05438">
        <ele>67</ele>
        <time>2019-01-21T13:23:27Z</time>
      </trkpt>
      <trkpt lat="49.33951" lon="1.05416">
        <ele>69</ele>
        <time>2019-01-21T13:23:33Z</time>
      </trkpt>
      <trkpt lat="49.33944" lon="1.0539">
        <ele>72</ele>
        <time>2019-01-21T13:23:38Z</time>
      </trkpt>
      <trkpt lat="49.33938" lon="1.05346">
        <ele>77</ele>
        <time>2019-01-21T13:23:45Z</time>
      </trkpt>
      <trkpt lat="49.33938" lon="1.05339">
        <ele>77</ele>
        <time>2019-01-21T13:23:46Z</time>
      </trkpt>
      <trkpt lat="49.33936" lon="1.05319">
        <ele>79</ele>
        <time>2019-01-21T13:23:52Z</time>
      </trkpt>
      <trkpt lat="49.3393" lon="1.05316">
        <ele>78</ele>
        <time>2019-01-21T13:24:04Z</time>
      </trkpt>
      <trkpt lat="49.33929" lon="1.05316">
        <ele>78</ele>
        <time>2019-01-21T13:24:13Z</time>
      </trkpt>
      <trkpt lat="49.33933" lon="1.053">
        <ele>81</ele>
        <time>2019-01-21T13:24:19Z</time>
      </trkpt>
      <trkpt lat="49.33938" lon="1.0528">
        <ele>84</ele>
        <time>2019-01-21T13:24:24Z</time>
      </trkpt>
      <trkpt lat="49.33945" lon="1.05249">
        <ele>89</ele>
        <time>2019-01-21T13:24:30Z</time>
      </trkpt>
      <trkpt lat="49.33955" lon="1.05222">
        <ele>93</ele>
        <time>2019-01-21T13:24:36Z</time>
      </trkpt>
      <trkpt lat="49.33964" lon="1.05198">
        <ele>97</ele>
        <time>2019-01-21T13:24:42Z</time>
      </trkpt>
      <trkpt lat="49.33978" lon="1.05171">
        <ele>100</ele>
        <time>2019-01-21T13:24:49Z</time>
      </trkpt>
      <trkpt lat="49.33982" lon="1.05145">
        <ele>102</ele>
        <time>2019-01-21T13:24:55Z</time>
      </trkpt>
      <trkpt lat="49.3399" lon="1.05128">
        <ele>104</ele>
        <time>2019-01-21T13:25:02Z</time>
      </trkpt>
      <trkpt lat="49.33996" lon="1.05112">
        <ele>105</ele>
        <time>2019-01-21T13:25:09Z</time>
      </trkpt>
      <trkpt lat="49.33998" lon="1.05102">
        <ele>106</ele>
        <time>2019-01-21T13:25:15Z</time>
      </trkpt>
      <trkpt lat="49.33997" lon="1.05094">
        <ele>107</ele>
        <time>2019-01-21T13:25:26Z</time>
      </trkpt>
      <trkpt lat="49.33999" lon="1.05087">
        <ele>107</ele>
        <time>2019-01-21T13:25:44Z</time>
      </trkpt>
      <trkpt lat="49.34" lon="1.0509">
        <ele>107</ele>
        <time>2019-01-21T13:26:03Z</time>
      </trkpt>
      <trkpt lat="49.33998" lon="1.05091">
        <ele>107</ele>
        <time>2019-01-21T13:26:20Z</time>
      </trkpt>
      <trkpt lat="49.33997" lon="1.0509">
        <ele>107</ele>
        <time>2019-01-21T13:26:23Z</time>
      </trkpt>
      <trkpt lat="49.33994" lon="1.05088">
        <ele>107</ele>
        <time>2019-01-21T13:26:25Z</time>
      </trkpt>
      <trkpt lat="49.33974" lon="1.05084">
        <ele>105</ele>
        <time>2019-01-21T13:26:31Z</time>
      </trkpt>
      <trkpt lat="49.33961" lon="1.05079">
        <ele>105</ele>
        <time>2019-01-21T13:26:35Z</time>
      </trkpt>
      <trkpt lat="49.33949" lon="1.05054">
        <ele>106</ele>
        <time>2019-01-21T13:26:41Z</time>
      </trkpt>
      <trkpt lat="49.33945" lon="1.05028">
        <ele>108</ele>
        <time>2019-01-21T13:26:47Z</time>
      </trkpt>
      <trkpt lat="49.33942" lon="1.05005">
        <ele>109</ele>
        <time>2019-01-21T13:26:53Z</time>
      </trkpt>
      <trkpt lat="49.33942" lon="1.05001">
        <ele>109</ele>
        <time>2019-01-21T13:26:54Z</time>
      </trkpt>
      <trkpt lat="49.33941" lon="1.04998">
        <ele>109</ele>
        <time>2019-01-21T13:26:55Z</time>
      </trkpt>
      <trkpt lat="49.33938" lon="1.0497">
        <ele>110</ele>
        <time>2019-01-21T13:27:01Z</time>
      </trkpt>
      <trkpt lat="49.33932" lon="1.04936">
        <ele>111</ele>
        <time>2019-01-21T13:27:08Z</time>
      </trkpt>
      <trkpt lat="49.33921" lon="1.049">
        <ele>112</ele>
        <time>2019-01-21T13:27:15Z</time>
      </trkpt>
      <trkpt lat="49.33918" lon="1.04893">
        <ele>112</ele>
        <time>2019-01-21T13:27:16Z</time>
      </trkpt>
      <trkpt lat="49.33915" lon="1.04886">
        <ele>112</ele>
        <time>2019-01-21T13:27:17Z</time>
      </trkpt>
      <trkpt lat="49.33911" lon="1.04878">
        <ele>112</ele>
        <time>2019-01-21T13:27:18Z</time>
      </trkpt>
      <trkpt lat="49.33907" lon="1.0487">
        <ele>112</ele>
        <time>2019-01-21T13:27:19Z</time>
      </trkpt>
      <trkpt lat="49.33903" lon="1.04862">
        <ele>112</ele>
        <time>2019-01-21T13:27:20Z</time>
      </trkpt>
      <trkpt lat="49.33886" lon="1.04821">
        <ele>111</ele>
        <time>2019-01-21T13:27:25Z</time>
      </trkpt>
      <trkpt lat="49.33867" lon="1.04777">
        <ele>111</ele>
        <time>2019-01-21T13:27:31Z</time>
      </trkpt>
      <trkpt lat="49.3386" lon="1.04752">
        <ele>111</ele>
        <time>2019-01-21T13:27:34Z</time>
      </trkpt>
      <trkpt lat="49.33857" lon="1.04745">
        <ele>111</ele>
        <time>2019-01-21T13:27:35Z</time>
      </trkpt>
      <trkpt lat="49.33854" lon="1.04738">
        <ele>111</ele>
        <time>2019-01-21T13:27:36Z</time>
      </trkpt>
      <trkpt lat="49.3385" lon="1.04732">
        <ele>111</ele>
        <time>2019-01-21T13:27:37Z</time>
      </trkpt>
      <trkpt lat="49.33846" lon="1.04726">
        <ele>111</ele>
        <time>2019-01-21T13:27:38Z</time>
      </trkpt>
      <trkpt lat="49.33842" lon="1.0472">
        <ele>110</ele>
        <time>2019-01-21T13:27:39Z</time>
      </trkpt>
      <trkpt lat="49.33832" lon="1.04704">
        <ele>110</ele>
        <time>2019-01-21T13:27:44Z</time>
      </trkpt>
      <trkpt lat="49.33831" lon="1.047">
        <ele>110</ele>
        <time>2019-01-21T13:27:45Z</time>
      </trkpt>
      <trkpt lat="49.3383" lon="1.04698">
        <ele>110</ele>
        <time>2019-01-21T13:27:46Z</time>
      </trkpt>
      <trkpt lat="49.33829" lon="1.04695">
        <ele>110</ele>
        <time>2019-01-21T13:27:47Z</time>
      </trkpt>
      <trkpt lat="49.33826" lon="1.04692">
        <ele>110</ele>
        <time>2019-01-21T13:27:48Z</time>
      </trkpt>
      <trkpt lat="49.33814" lon="1.04671">
        <ele>110</ele>
        <time>2019-01-21T13:27:53Z</time>
      </trkpt>
      <trkpt lat="49.33804" lon="1.04656">
        <ele>111</ele>
        <time>2019-01-21T13:27:56Z</time>
      </trkpt>
      <trkpt lat="49.338" lon="1.04651">
        <ele>111</ele>
        <time>2019-01-21T13:27:57Z</time>
      </trkpt>
      <trkpt lat="49.33784" lon="1.04629">
        <ele>111</ele>
        <time>2019-01-21T13:28:02Z</time>
      </trkpt>
      <trkpt lat="49.33782" lon="1.04625">
        <ele>111</ele>
        <time>2019-01-21T13:28:03Z</time>
      </trkpt>
      <trkpt lat="49.33765" lon="1.04606">
        <ele>112</ele>
        <time>2019-01-21T13:28:07Z</time>
      </trkpt>
      <trkpt lat="49.33729" lon="1.04581">
        <ele>111</ele>
        <time>2019-01-21T13:28:14Z</time>
      </trkpt>
      <trkpt lat="49.33724" lon="1.04578">
        <ele>111</ele>
        <time>2019-01-21T13:28:15Z</time>
      </trkpt>
      <trkpt lat="49.33718" lon="1.04576">
        <ele>111</ele>
        <time>2019-01-21T13:28:16Z</time>
      </trkpt>
      <trkpt lat="49.337" lon="1.04566">
        <ele>110</ele>
        <time>2019-01-21T13:28:20Z</time>
      </trkpt>
      <trkpt lat="49.33683" lon="1.04558">
        <ele>108</ele>
        <time>2019-01-21T13:28:26Z</time>
      </trkpt>
      <trkpt lat="49.33666" lon="1.04546">
        <ele>106</ele>
        <time>2019-01-21T13:28:33Z</time>
      </trkpt>
      <trkpt lat="49.3365" lon="1.04528">
        <ele>104</ele>
        <time>2019-01-21T13:28:38Z</time>
      </trkpt>
      <trkpt lat="49.33646" lon="1.04522">
        <ele>104</ele>
        <time>2019-01-21T13:28:39Z</time>
      </trkpt>
      <trkpt lat="49.33634" lon="1.04491">
        <ele>103</ele>
        <time>2019-01-21T13:28:44Z</time>
      </trkpt>
      <trkpt lat="49.33627" lon="1.04459">
        <ele>103</ele>
        <time>2019-01-21T13:28:49Z</time>
      </trkpt>
      <trkpt lat="49.33625" lon="1.04451">
        <ele>103</ele>
        <time>2019-01-21T13:28:50Z</time>
      </trkpt>
      <trkpt lat="49.33621" lon="1.04401">
        <ele>103</ele>
        <time>2019-01-21T13:28:56Z</time>
      </trkpt>
      <trkpt lat="49.33619" lon="1.04345">
        <ele>105</ele>
        <time>2019-01-21T13:29:03Z</time>
      </trkpt>
      <trkpt lat="49.33618" lon="1.04327">
        <ele>106</ele>
        <time>2019-01-21T13:29:05Z</time>
      </trkpt>
      <trkpt lat="49.33617" lon="1.04317">
        <ele>106</ele>
        <time>2019-01-21T13:29:06Z</time>
      </trkpt>
      <trkpt lat="49.33617" lon="1.04307">
        <ele>107</ele>
        <time>2019-01-21T13:29:07Z</time>
      </trkpt>
      <trkpt lat="49.33617" lon="1.04298">
        <ele>107</ele>
        <time>2019-01-21T13:29:08Z</time>
      </trkpt>
      <trkpt lat="49.33617" lon="1.04288">
        <ele>108</ele>
        <time>2019-01-21T13:29:09Z</time>
      </trkpt>
      <trkpt lat="49.33616" lon="1.04278">
        <ele>108</ele>
        <time>2019-01-21T13:29:10Z</time>
      </trkpt>
      <trkpt lat="49.33615" lon="1.04268">
        <ele>109</ele>
        <time>2019-01-21T13:29:11Z</time>
      </trkpt>
      <trkpt lat="49.3361" lon="1.04213">
        <ele>109</ele>
        <time>2019-01-21T13:29:17Z</time>
      </trkpt>
      <trkpt lat="49.33611" lon="1.04205">
        <ele>109</ele>
        <time>2019-01-21T13:29:18Z</time>
      </trkpt>
      <trkpt lat="49.3361" lon="1.042">
        <ele>109</ele>
        <time>2019-01-21T13:29:19Z</time>
      </trkpt>
      <trkpt lat="49.3361" lon="1.04197">
        <ele>109</ele>
        <time>2019-01-21T13:29:20Z</time>
      </trkpt>
      <trkpt lat="49.33609" lon="1.04192">
        <ele>109</ele>
        <time>2019-01-21T13:29:21Z</time>
      </trkpt>
      <trkpt lat="49.33609" lon="1.04189">
        <ele>109</ele>
        <time>2019-01-21T13:29:22Z</time>
      </trkpt>
      <trkpt lat="49.33609" lon="1.04186">
        <ele>109</ele>
        <time>2019-01-21T13:29:23Z</time>
      </trkpt>
      <trkpt lat="49.33608" lon="1.04183">
        <ele>109</ele>
        <time>2019-01-21T13:29:24Z</time>
      </trkpt>
      <trkpt lat="49.33608" lon="1.0418">
        <ele>109</ele>
        <time>2019-01-21T13:29:25Z</time>
      </trkpt>
      <trkpt lat="49.33608" lon="1.04177">
        <ele>109</ele>
        <time>2019-01-21T13:29:26Z</time>
      </trkpt>
      <trkpt lat="49.33608" lon="1.04152">
        <ele>109</ele>
        <time>2019-01-21T13:29:33Z</time>
      </trkpt>
      <trkpt lat="49.33607" lon="1.04118">
        <ele>109</ele>
        <time>2019-01-21T13:29:39Z</time>
      </trkpt>
      <trkpt lat="49.33601" lon="1.04094">
        <ele>109</ele>
        <time>2019-01-21T13:29:44Z</time>
      </trkpt>
      <trkpt lat="49.33589" lon="1.04058">
        <ele>109</ele>
        <time>2019-01-21T13:29:50Z</time>
      </trkpt>
      <trkpt lat="49.33585" lon="1.04045">
        <ele>109</ele>
        <time>2019-01-21T13:29:52Z</time>
      </trkpt>
      <trkpt lat="49.3357" lon="1.0401">
        <ele>110</ele>
        <time>2019-01-21T13:29:58Z</time>
      </trkpt>
      <trkpt lat="49.33561" lon="1.03988">
        <ele>109</ele>
        <time>2019-01-21T13:30:01Z</time>
      </trkpt>
      <trkpt lat="49.33559" lon="1.03981">
        <ele>109</ele>
        <time>2019-01-21T13:30:02Z</time>
      </trkpt>
      <trkpt lat="49.33556" lon="1.03974">
        <ele>110</ele>
        <time>2019-01-21T13:30:03Z</time>
      </trkpt>
      <trkpt lat="49.33542" lon="1.03924">
        <ele>112</ele>
        <time>2019-01-21T13:30:09Z</time>
      </trkpt>
      <trkpt lat="49.33539" lon="1.03917">
        <ele>112</ele>
        <time>2019-01-21T13:30:10Z</time>
      </trkpt>
      <trkpt lat="49.33536" lon="1.03909">
        <ele>112</ele>
        <time>2019-01-21T13:30:11Z</time>
      </trkpt>
      <trkpt lat="49.33529" lon="1.03894">
        <ele>112</ele>
        <time>2019-01-21T13:30:13Z</time>
      </trkpt>
      <trkpt lat="49.33514" lon="1.03856">
        <ele>113</ele>
        <time>2019-01-21T13:30:19Z</time>
      </trkpt>
      <trkpt lat="49.33508" lon="1.03843">
        <ele>113</ele>
        <time>2019-01-21T13:30:21Z</time>
      </trkpt>
      <trkpt lat="49.33505" lon="1.03838">
        <ele>113</ele>
        <time>2019-01-21T13:30:22Z</time>
      </trkpt>
      <trkpt lat="49.33501" lon="1.03832">
        <ele>113</ele>
        <time>2019-01-21T13:30:23Z</time>
      </trkpt>
      <trkpt lat="49.33498" lon="1.03828">
        <ele>113</ele>
        <time>2019-01-21T13:30:24Z</time>
      </trkpt>
      <trkpt lat="49.33494" lon="1.03822">
        <ele>113</ele>
        <time>2019-01-21T13:30:25Z</time>
      </trkpt>
      <trkpt lat="49.33486" lon="1.03811">
        <ele>113</ele>
        <time>2019-01-21T13:30:27Z</time>
      </trkpt>
      <trkpt lat="49.33483" lon="1.03807">
        <ele>113</ele>
        <time>2019-01-21T13:30:28Z</time>
      </trkpt>
      <trkpt lat="49.33481" lon="1.03804">
        <ele>112</ele>
        <time>2019-01-21T13:30:29Z</time>
      </trkpt>
      <trkpt lat="49.33478" lon="1.038">
        <ele>112</ele>
        <time>2019-01-21T13:30:30Z</time>
      </trkpt>
      <trkpt lat="49.33475" lon="1.03796">
        <ele>112</ele>
        <time>2019-01-21T13:30:31Z</time>
      </trkpt>
      <trkpt lat="49.33472" lon="1.03792">
        <ele>112</ele>
        <time>2019-01-21T13:30:32Z</time>
      </trkpt>
      <trkpt lat="49.33469" lon="1.03788">
        <ele>111</ele>
        <time>2019-01-21T13:30:33Z</time>
      </trkpt>
      <trkpt lat="49.33465" lon="1.03783">
        <ele>111</ele>
        <time>2019-01-21T13:30:34Z</time>
      </trkpt>
      <trkpt lat="49.33446" lon="1.03753">
        <ele>110</ele>
        <time>2019-01-21T13:30:40Z</time>
      </trkpt>
      <trkpt lat="49.33443" lon="1.03748">
        <ele>110</ele>
        <time>2019-01-21T13:30:41Z</time>
      </trkpt>
      <trkpt lat="49.33419" lon="1.03722">
        <ele>107</ele>
        <time>2019-01-21T13:30:47Z</time>
      </trkpt>
      <trkpt lat="49.33415" lon="1.03717">
        <ele>107</ele>
        <time>2019-01-21T13:30:48Z</time>
      </trkpt>
      <trkpt lat="49.33395" lon="1.03703">
        <ele>104</ele>
        <time>2019-01-21T13:30:53Z</time>
      </trkpt>
      <trkpt lat="49.33346" lon="1.0371">
        <ele>93</ele>
        <time>2019-01-21T13:45:15Z</time>
      </trkpt>
      <trkpt lat="49.33339" lon="1.03706">
        <ele>94</ele>
        <time>2019-01-21T13:45:20Z</time>
      </trkpt>
      <trkpt lat="49.3334" lon="1.03694">
        <ele>94</ele>
        <time>2019-01-21T13:45:24Z</time>
      </trkpt>
      <trkpt lat="49.33339" lon="1.03671">
        <ele>94</ele>
        <time>2019-01-21T13:45:29Z</time>
      </trkpt>
      <trkpt lat="49.33345" lon="1.03649">
        <ele>94</ele>
        <time>2019-01-21T13:45:33Z</time>
      </trkpt>
      <trkpt lat="49.33349" lon="1.03636">
        <ele>95</ele>
        <time>2019-01-21T13:45:35Z</time>
      </trkpt>
      <trkpt lat="49.33365" lon="1.03595">
        <ele>100</ele>
        <time>2019-01-21T13:45:42Z</time>
      </trkpt>
      <trkpt lat="49.33368" lon="1.03584">
        <ele>101</ele>
        <time>2019-01-21T13:45:46Z</time>
      </trkpt>
      <trkpt lat="49.33366" lon="1.03579">
        <ele>101</ele>
        <time>2019-01-21T13:45:48Z</time>
      </trkpt>
      <trkpt lat="49.33359" lon="1.03556">
        <ele>102</ele>
        <time>2019-01-21T13:45:54Z</time>
      </trkpt>
      <trkpt lat="49.33361" lon="1.03523">
        <ele>105</ele>
        <time>2019-01-21T13:46:00Z</time>
      </trkpt>
      <trkpt lat="49.3336" lon="1.03509">
        <ele>106</ele>
        <time>2019-01-21T13:46:04Z</time>
      </trkpt>
      <trkpt lat="49.3336" lon="1.03508">
        <ele>106</ele>
        <time>2019-01-21T13:46:14Z</time>
      </trkpt>
      <trkpt lat="49.3336" lon="1.03507">
        <ele>107</ele>
        <time>2019-01-21T13:46:22Z</time>
      </trkpt>
      <trkpt lat="49.33357" lon="1.03499">
        <ele>108</ele>
        <time>2019-01-21T13:46:30Z</time>
      </trkpt>
      <trkpt lat="49.33353" lon="1.03495">
        <ele>108</ele>
        <time>2019-01-21T13:46:37Z</time>
      </trkpt>
      <trkpt lat="49.33348" lon="1.03489">
        <ele>109</ele>
        <time>2019-01-21T13:46:45Z</time>
      </trkpt>
      <trkpt lat="49.33345" lon="1.03483">
        <ele>110</ele>
        <time>2019-01-21T13:46:52Z</time>
      </trkpt>
      <trkpt lat="49.33341" lon="1.0348">
        <ele>110</ele>
        <time>2019-01-21T13:46:59Z</time>
      </trkpt>
      <trkpt lat="49.33335" lon="1.03474">
        <ele>110</ele>
        <time>2019-01-21T13:47:08Z</time>
      </trkpt>
      <trkpt lat="49.33333" lon="1.03471">
        <ele>110</ele>
        <time>2019-01-21T13:47:22Z</time>
      </trkpt>
      <trkpt lat="49.33332" lon="1.03469">
        <ele>111</ele>
        <time>2019-01-21T13:47:35Z</time>
      </trkpt>
      <trkpt lat="49.33331" lon="1.03469">
        <ele>111</ele>
        <time>2019-01-21T13:47:46Z</time>
      </trkpt>
      <trkpt lat="49.33329" lon="1.03468">
        <ele>111</ele>
        <time>2019-01-21T13:47:51Z</time>
      </trkpt>
      <trkpt lat="49.33324" lon="1.03464">
        <ele>111</ele>
        <time>2019-01-21T13:47:58Z</time>
      </trkpt>
      <trkpt lat="49.33318" lon="1.03459">
        <ele>111</ele>
        <time>2019-01-21T13:48:05Z</time>
      </trkpt>
      <trkpt lat="49.33309" lon="1.03445">
        <ele>112</ele>
        <time>2019-01-21T13:48:12Z</time>
      </trkpt>
      <trkpt lat="49.33308" lon="1.03443">
        <ele>112</ele>
        <time>2019-01-21T13:48:13Z</time>
      </trkpt>
      <trkpt lat="49.33296" lon="1.03423">
        <ele>113</ele>
        <time>2019-01-21T13:48:20Z</time>
      </trkpt>
      <trkpt lat="49.33294" lon="1.03419">
        <ele>113</ele>
        <time>2019-01-21T13:48:21Z</time>
      </trkpt>
      <trkpt lat="49.33283" lon="1.03395">
        <ele>115</ele>
        <time>2019-01-21T13:48:26Z</time>
      </trkpt>
      <trkpt lat="49.33272" lon="1.03365">
        <ele>116</ele>
        <time>2019-01-21T13:48:33Z</time>
      </trkpt>
      <trkpt lat="49.3327" lon="1.03362">
        <ele>116</ele>
        <time>2019-01-21T13:48:38Z</time>
      </trkpt>
      <trkpt lat="49.33268" lon="1.03362">
        <ele>116</ele>
        <time>2019-01-21T13:48:40Z</time>
      </trkpt>
      <trkpt lat="49.33264" lon="1.03364">
        <ele>116</ele>
        <time>2019-01-21T13:48:43Z</time>
      </trkpt>
      <trkpt lat="49.33255" lon="1.03361">
        <ele>116</ele>
        <time>2019-01-21T13:48:47Z</time>
      </trkpt>
      <trkpt lat="49.33239" lon="1.03362">
        <ele>115</ele>
        <time>2019-01-21T13:48:54Z</time>
      </trkpt>
      <trkpt lat="49.33226" lon="1.03374">
        <ele>114</ele>
        <time>2019-01-21T13:48:59Z</time>
      </trkpt>
      <trkpt lat="49.33211" lon="1.03384">
        <ele>112</ele>
        <time>2019-01-21T13:49:04Z</time>
      </trkpt>
      <trkpt lat="49.33209" lon="1.03387">
        <ele>112</ele>
        <time>2019-01-21T13:49:05Z</time>
      </trkpt>
      <trkpt lat="49.33197" lon="1.03388">
        <ele>114</ele>
        <time>2019-01-21T13:49:10Z</time>
      </trkpt>
      <trkpt lat="49.33174" lon="1.03374">
        <ele>117</ele>
        <time>2019-01-21T13:49:18Z</time>
      </trkpt>
      <trkpt lat="49.33156" lon="1.03363">
        <ele>118</ele>
        <time>2019-01-21T13:49:24Z</time>
      </trkpt>
      <trkpt lat="49.33138" lon="1.03353">
        <ele>119</ele>
        <time>2019-01-21T13:49:29Z</time>
      </trkpt>
      <trkpt lat="49.33107" lon="1.03341">
        <ele>120</ele>
        <time>2019-01-21T13:49:37Z</time>
      </trkpt>
      <trkpt lat="49.33076" lon="1.03327">
        <ele>121</ele>
        <time>2019-01-21T13:49:45Z</time>
      </trkpt>
      <trkpt lat="49.33051" lon="1.03306">
        <ele>122</ele>
        <time>2019-01-21T13:49:53Z</time>
      </trkpt>
      <trkpt lat="49.33034" lon="1.03284">
        <ele>122</ele>
        <time>2019-01-21T13:50:00Z</time>
      </trkpt>
      <trkpt lat="49.33025" lon="1.03273">
        <ele>122</ele>
        <time>2019-01-21T13:50:05Z</time>
      </trkpt>
      <trkpt lat="49.33026" lon="1.0327">
        <ele>122</ele>
        <time>2019-01-21T13:50:06Z</time>
      </trkpt>
      <trkpt lat="49.33026" lon="1.03268">
        <ele>122</ele>
        <time>2019-01-21T13:50:07Z</time>
      </trkpt>
      <trkpt lat="49.33027" lon="1.03265">
        <ele>122</ele>
        <time>2019-01-21T13:50:08Z</time>
      </trkpt>
      <trkpt lat="49.33028" lon="1.03262">
        <ele>122</ele>
        <time>2019-01-21T13:50:09Z</time>
      </trkpt>
      <trkpt lat="49.33029" lon="1.03257">
        <ele>122</ele>
        <time>2019-01-21T13:50:10Z</time>
      </trkpt>
      <trkpt lat="49.3303" lon="1.03253">
        <ele>122</ele>
        <time>2019-01-21T13:50:11Z</time>
      </trkpt>
      <trkpt lat="49.33032" lon="1.03249">
        <ele>122</ele>
        <time>2019-01-21T13:50:12Z</time>
      </trkpt>
      <trkpt lat="49.33033" lon="1.03245">
        <ele>122</ele>
        <time>2019-01-21T13:50:13Z</time>
      </trkpt>
      <trkpt lat="49.33045" lon="1.03204">
        <ele>123</ele>
        <time>2019-01-21T13:50:20Z</time>
      </trkpt>
      <trkpt lat="49.33047" lon="1.03197">
        <ele>123</ele>
        <time>2019-01-21T13:50:21Z</time>
      </trkpt>
      <trkpt lat="49.33051" lon="1.03159">
        <ele>124</ele>
        <time>2019-01-21T13:51:01Z</time>
      </trkpt>
      <trkpt lat="49.33048" lon="1.03161">
        <ele>124</ele>
        <time>2019-01-21T13:51:03Z</time>
      </trkpt>
      <trkpt lat="49.33044" lon="1.03163">
        <ele>124</ele>
        <time>2019-01-21T13:51:04Z</time>
      </trkpt>
      <trkpt lat="49.33032" lon="1.03158">
        <ele>124</ele>
        <time>2019-01-21T13:51:09Z</time>
      </trkpt>
      <trkpt lat="49.33032" lon="1.03154">
        <ele>124</ele>
        <time>2019-01-21T13:51:10Z</time>
      </trkpt>
      <trkpt lat="49.33033" lon="1.0315">
        <ele>124</ele>
        <time>2019-01-21T13:51:11Z</time>
      </trkpt>
      <trkpt lat="49.33034" lon="1.03145">
        <ele>124</ele>
        <time>2019-01-21T13:51:12Z</time>
      </trkpt>
      <trkpt lat="49.33039" lon="1.03128">
        <ele>124</ele>
        <time>2019-01-21T13:51:15Z</time>
      </trkpt>
      <trkpt lat="49.3304" lon="1.03122">
        <ele>124</ele>
        <time>2019-01-21T13:51:16Z</time>
      </trkpt>
      <trkpt lat="49.33042" lon="1.03117">
        <ele>124</ele>
        <time>2019-01-21T13:51:17Z</time>
      </trkpt>
      <trkpt lat="49.33051" lon="1.03086">
        <ele>124</ele>
        <time>2019-01-21T13:51:23Z</time>
      </trkpt>
      <trkpt lat="49.33056" lon="1.0306">
        <ele>124</ele>
        <time>2019-01-21T13:51:27Z</time>
      </trkpt>
      <trkpt lat="49.33059" lon="1.03047">
        <ele>124</ele>
        <time>2019-01-21T13:51:29Z</time>
      </trkpt>
      <trkpt lat="49.3306" lon="1.0304">
        <ele>124</ele>
        <time>2019-01-21T13:51:30Z</time>
      </trkpt>
      <trkpt lat="49.33062" lon="1.03033">
        <ele>124</ele>
        <time>2019-01-21T13:51:31Z</time>
      </trkpt>
      <trkpt lat="49.33069" lon="1.03013">
        <ele>124</ele>
        <time>2019-01-21T13:51:34Z</time>
      </trkpt>
      <trkpt lat="49.3307" lon="1.03005">
        <ele>124</ele>
        <time>2019-01-21T13:51:35Z</time>
      </trkpt>
      <trkpt lat="49.33076" lon="1.02947">
        <ele>125</ele>
        <time>2019-01-21T13:51:43Z</time>
      </trkpt>
      <trkpt lat="49.33077" lon="1.02941">
        <ele>125</ele>
        <time>2019-01-21T13:51:44Z</time>
      </trkpt>
      <trkpt lat="49.33086" lon="1.02909">
        <ele>125</ele>
        <time>2019-01-21T13:51:49Z</time>
      </trkpt>
      <trkpt lat="49.33095" lon="1.02849">
        <ele>125</ele>
        <time>2019-01-21T13:51:57Z</time>
      </trkpt>
      <trkpt lat="49.33102" lon="1.02789">
        <ele>126</ele>
        <time>2019-01-21T13:52:04Z</time>
      </trkpt>
      <trkpt lat="49.33106" lon="1.02766">
        <ele>126</ele>
        <time>2019-01-21T13:52:07Z</time>
      </trkpt>
      <trkpt lat="49.33108" lon="1.02758">
        <ele>126</ele>
        <time>2019-01-21T13:52:08Z</time>
      </trkpt>
      <trkpt lat="49.3311" lon="1.0275">
        <ele>127</ele>
        <time>2019-01-21T13:52:09Z</time>
      </trkpt>
      <trkpt lat="49.33118" lon="1.02728">
        <ele>127</ele>
        <time>2019-01-21T13:52:12Z</time>
      </trkpt>
      <trkpt lat="49.3312" lon="1.02721">
        <ele>127</ele>
        <time>2019-01-21T13:52:13Z</time>
      </trkpt>
      <trkpt lat="49.33121" lon="1.02713">
        <ele>127</ele>
        <time>2019-01-21T13:52:14Z</time>
      </trkpt>
      <trkpt lat="49.33122" lon="1.02704">
        <ele>127</ele>
        <time>2019-01-21T13:52:15Z</time>
      </trkpt>
      <trkpt lat="49.33123" lon="1.02697">
        <ele>127</ele>
        <time>2019-01-21T13:52:16Z</time>
      </trkpt>
      <trkpt lat="49.33123" lon="1.0269">
        <ele>127</ele>
        <time>2019-01-21T13:52:17Z</time>
      </trkpt>
      <trkpt lat="49.33124" lon="1.02682">
        <ele>127</ele>
        <time>2019-01-21T13:52:18Z</time>
      </trkpt>
      <trkpt lat="49.33129" lon="1.02631">
        <ele>127</ele>
        <time>2019-01-21T13:52:24Z</time>
      </trkpt>
      <trkpt lat="49.3313" lon="1.02622">
        <ele>127</ele>
        <time>2019-01-21T13:52:25Z</time>
      </trkpt>
      <trkpt lat="49.33132" lon="1.02613">
        <ele>127</ele>
        <time>2019-01-21T13:52:26Z</time>
      </trkpt>
      <trkpt lat="49.33136" lon="1.02595">
        <ele>126</ele>
        <time>2019-01-21T13:52:28Z</time>
      </trkpt>
      <trkpt lat="49.33138" lon="1.02586">
        <ele>126</ele>
        <time>2019-01-21T13:52:29Z</time>
      </trkpt>
      <trkpt lat="49.33139" lon="1.02577">
        <ele>126</ele>
        <time>2019-01-21T13:52:30Z</time>
      </trkpt>
      <trkpt lat="49.3314" lon="1.02567">
        <ele>126</ele>
        <time>2019-01-21T13:52:31Z</time>
      </trkpt>
      <trkpt lat="49.33141" lon="1.02558">
        <ele>126</ele>
        <time>2019-01-21T13:52:32Z</time>
      </trkpt>
      <trkpt lat="49.3314" lon="1.02549">
        <ele>126</ele>
        <time>2019-01-21T13:52:33Z</time>
      </trkpt>
      <trkpt lat="49.3314" lon="1.02541">
        <ele>126</ele>
        <time>2019-01-21T13:52:34Z</time>
      </trkpt>
      <trkpt lat="49.33141" lon="1.02535">
        <ele>126</ele>
        <time>2019-01-21T13:52:35Z</time>
      </trkpt>
      <trkpt lat="49.33142" lon="1.02528">
        <ele>126</ele>
        <time>2019-01-21T13:52:36Z</time>
      </trkpt>
      <trkpt lat="49.33143" lon="1.02515">
        <ele>126</ele>
        <time>2019-01-21T13:52:38Z</time>
      </trkpt>
      <trkpt lat="49.33155" lon="1.02499">
        <ele>126</ele>
        <time>2019-01-21T13:53:09Z</time>
      </trkpt>
      <trkpt lat="49.33159" lon="1.02499">
        <ele>126</ele>
        <time>2019-01-21T13:53:10Z</time>
      </trkpt>
      <trkpt lat="49.33168" lon="1.02499">
        <ele>126</ele>
        <time>2019-01-21T13:53:12Z</time>
      </trkpt>
      <trkpt lat="49.33185" lon="1.02497">
        <ele>126</ele>
        <time>2019-01-21T13:53:18Z</time>
      </trkpt>
      <trkpt lat="49.3319" lon="1.02489">
        <ele>126</ele>
        <time>2019-01-21T13:53:24Z</time>
      </trkpt>
      <trkpt lat="49.33196" lon="1.02483">
        <ele>126</ele>
        <time>2019-01-21T13:53:27Z</time>
      </trkpt>
      <trkpt lat="49.33207" lon="1.0246">
        <ele>127</ele>
        <time>2019-01-21T13:53:31Z</time>
      </trkpt>
      <trkpt lat="49.33224" lon="1.02384">
        <ele>127</ele>
        <time>2019-01-21T13:53:40Z</time>
      </trkpt>
      <trkpt lat="49.33239" lon="1.02322">
        <ele>127</ele>
        <time>2019-01-21T13:53:47Z</time>
      </trkpt>
      <trkpt lat="49.33259" lon="1.02231">
        <ele>128</ele>
        <time>2019-01-21T13:53:57Z</time>
      </trkpt>
      <trkpt lat="49.33266" lon="1.02196">
        <ele>128</ele>
        <time>2019-01-21T13:54:01Z</time>
      </trkpt>
      <trkpt lat="49.33267" lon="1.0217">
        <ele>128</ele>
        <time>2019-01-21T13:54:05Z</time>
      </trkpt>
      <trkpt lat="49.33262" lon="1.02159">
        <ele>128</ele>
        <time>2019-01-21T13:54:09Z</time>
      </trkpt>
      <trkpt lat="49.33262" lon="1.02157">
        <ele>128</ele>
        <time>2019-01-21T13:54:11Z</time>
      </trkpt>
      <trkpt lat="49.33262" lon="1.02141">
        <ele>128</ele>
        <time>2019-01-21T13:54:17Z</time>
      </trkpt>
      <trkpt lat="49.33269" lon="1.02124">
        <ele>128</ele>
        <time>2019-01-21T13:54:21Z</time>
      </trkpt>
      <trkpt lat="49.3327" lon="1.02105">
        <ele>128</ele>
        <time>2019-01-21T13:54:24Z</time>
      </trkpt>
      <trkpt lat="49.33273" lon="1.02077">
        <ele>128</ele>
        <time>2019-01-21T13:54:29Z</time>
      </trkpt>
      <trkpt lat="49.33279" lon="1.02063">
        <ele>128</ele>
        <time>2019-01-21T13:54:33Z</time>
      </trkpt>
      <trkpt lat="49.33282" lon="1.0205">
        <ele>129</ele>
        <time>2019-01-21T13:54:35Z</time>
      </trkpt>
      <trkpt lat="49.33283" lon="1.02012">
        <ele>129</ele>
        <time>2019-01-21T13:54:41Z</time>
      </trkpt>
      <trkpt lat="49.33283" lon="1.02004">
        <ele>129</ele>
        <time>2019-01-21T13:54:42Z</time>
      </trkpt>
      <trkpt lat="49.3328" lon="1.01953">
        <ele>129</ele>
        <time>2019-01-21T13:54:50Z</time>
      </trkpt>
      <trkpt lat="49.3328" lon="1.01945">
        <ele>129</ele>
        <time>2019-01-21T13:54:52Z</time>
      </trkpt>
      <trkpt lat="49.33278" lon="1.01941">
        <ele>129</ele>
        <time>2019-01-21T13:54:53Z</time>
      </trkpt>
      <trkpt lat="49.33261" lon="1.01912">
        <ele>129</ele>
        <time>2019-01-21T13:55:00Z</time>
      </trkpt>
      <trkpt lat="49.33246" lon="1.01882">
        <ele>129</ele>
        <time>2019-01-21T13:55:06Z</time>
      </trkpt>
      <trkpt lat="49.33233" lon="1.01855">
        <ele>129</ele>
        <time>2019-01-21T13:55:10Z</time>
      </trkpt>
      <trkpt lat="49.33224" lon="1.01842">
        <ele>129</ele>
        <time>2019-01-21T13:55:12Z</time>
      </trkpt>
      <trkpt lat="49.33206" lon="1.01809">
        <ele>129</ele>
        <time>2019-01-21T13:55:17Z</time>
      </trkpt>
      <trkpt lat="49.33199" lon="1.01795">
        <ele>129</ele>
        <time>2019-01-21T13:55:19Z</time>
      </trkpt>
      <trkpt lat="49.33184" lon="1.01754">
        <ele>129</ele>
        <time>2019-01-21T13:55:24Z</time>
      </trkpt>
      <trkpt lat="49.33165" lon="1.01692">
        <ele>129</ele>
        <time>2019-01-21T13:55:31Z</time>
      </trkpt>
      <trkpt lat="49.33157" lon="1.01658">
        <ele>129</ele>
        <time>2019-01-21T13:55:35Z</time>
      </trkpt>
      <trkpt lat="49.33148" lon="1.01636">
        <ele>129</ele>
        <time>2019-01-21T13:55:39Z</time>
      </trkpt>
      <trkpt lat="49.33146" lon="1.01632">
        <ele>129</ele>
        <time>2019-01-21T13:55:40Z</time>
      </trkpt>
      <trkpt lat="49.33142" lon="1.01603">
        <ele>129</ele>
        <time>2019-01-21T13:55:46Z</time>
      </trkpt>
      <trkpt lat="49.33151" lon="1.01571">
        <ele>129</ele>
        <time>2019-01-21T13:55:53Z</time>
      </trkpt>
      <trkpt lat="49.33164" lon="1.01538">
        <ele>129</ele>
        <time>2019-01-21T13:55:58Z</time>
      </trkpt>
      <trkpt lat="49.33176" lon="1.01519">
        <ele>129</ele>
        <time>2019-01-21T13:56:01Z</time>
      </trkpt>
      <trkpt lat="49.33196" lon="1.01495">
        <ele>129</ele>
        <time>2019-01-21T13:56:05Z</time>
      </trkpt>
      <trkpt lat="49.33231" lon="1.01435">
        <ele>129</ele>
        <time>2019-01-21T13:56:14Z</time>
      </trkpt>
      <trkpt lat="49.33246" lon="1.01409">
        <ele>129</ele>
        <time>2019-01-21T13:56:19Z</time>
      </trkpt>
      <trkpt lat="49.33263" lon="1.01383">
        <ele>130</ele>
        <time>2019-01-21T13:56:26Z</time>
      </trkpt>
      <trkpt lat="49.33272" lon="1.0137">
        <ele>130</ele>
        <time>2019-01-21T13:56:29Z</time>
      </trkpt>
      <trkpt lat="49.33272" lon="1.01346">
        <ele>130</ele>
        <time>2019-01-21T13:56:34Z</time>
      </trkpt>
      <trkpt lat="49.33266" lon="1.01322">
        <ele>130</ele>
        <time>2019-01-21T13:56:39Z</time>
      </trkpt>
      <trkpt lat="49.33264" lon="1.01316">
        <ele>130</ele>
        <time>2019-01-21T13:56:40Z</time>
      </trkpt>
      <trkpt lat="49.33258" lon="1.01291">
        <ele>129</ele>
        <time>2019-01-21T13:56:44Z</time>
      </trkpt>
      <trkpt lat="49.33249" lon="1.01257">
        <ele>129</ele>
        <time>2019-01-21T13:56:51Z</time>
      </trkpt>
      <trkpt lat="49.33246" lon="1.01244">
        <ele>129</ele>
        <time>2019-01-21T13:56:56Z</time>
      </trkpt>
      <trkpt lat="49.33245" lon="1.0124">
        <ele>129</ele>
        <time>2019-01-21T13:57:00Z</time>
      </trkpt>
      <trkpt lat="49.33244" lon="1.01237">
        <ele>129</ele>
        <time>2019-01-21T13:57:02Z</time>
      </trkpt>
      <trkpt lat="49.33239" lon="1.0122">
        <ele>128</ele>
        <time>2019-01-21T13:57:07Z</time>
      </trkpt>
      <trkpt lat="49.33244" lon="1.01208">
        <ele>128</ele>
        <time>2019-01-21T13:57:13Z</time>
      </trkpt>
      <trkpt lat="49.3325" lon="1.01203">
        <ele>128</ele>
        <time>2019-01-21T13:57:15Z</time>
      </trkpt>
      <trkpt lat="49.33263" lon="1.01189">
        <ele>128</ele>
        <time>2019-01-21T13:57:18Z</time>
      </trkpt>
      <trkpt lat="49.33276" lon="1.01155">
        <ele>127</ele>
        <time>2019-01-21T13:57:23Z</time>
      </trkpt>
      <trkpt lat="49.33281" lon="1.01146">
        <ele>127</ele>
        <time>2019-01-21T13:57:26Z</time>
      </trkpt>
      <trkpt lat="49.33284" lon="1.01146">
        <ele>127</ele>
        <time>2019-01-21T13:57:27Z</time>
      </trkpt>
      <trkpt lat="49.33294" lon="1.0115">
        <ele>127</ele>
        <time>2019-01-21T13:57:30Z</time>
      </trkpt>
      <trkpt lat="49.33322" lon="1.01153">
        <ele>127</ele>
        <time>2019-01-21T13:57:37Z</time>
      </trkpt>
      <trkpt lat="49.33351" lon="1.01158">
        <ele>128</ele>
        <time>2019-01-21T13:57:44Z</time>
      </trkpt>
      <trkpt lat="49.3336" lon="1.01164">
        <ele>128</ele>
        <time>2019-01-21T13:57:46Z</time>
      </trkpt>
      <trkpt lat="49.33373" lon="1.01176">
        <ele>129</ele>
        <time>2019-01-21T13:57:49Z</time>
      </trkpt>
      <trkpt lat="49.33388" lon="1.01203">
        <ele>129</ele>
        <time>2019-01-21T13:57:54Z</time>
      </trkpt>
      <trkpt lat="49.33405" lon="1.0125">
        <ele>129</ele>
        <time>2019-01-21T13:58:02Z</time>
      </trkpt>
      <trkpt lat="49.3341" lon="1.01261">
        <ele>129</ele>
        <time>2019-01-21T13:58:04Z</time>
      </trkpt>
      <trkpt lat="49.33428" lon="1.01298">
        <ele>130</ele>
        <time>2019-01-21T13:58:11Z</time>
      </trkpt>
      <trkpt lat="49.33432" lon="1.01302">
        <ele>130</ele>
        <time>2019-01-21T13:58:13Z</time>
      </trkpt>
      <trkpt lat="49.33441" lon="1.013">
        <ele>130</ele>
        <time>2019-01-21T13:58:18Z</time>
      </trkpt>
      <trkpt lat="49.33446" lon="1.01291">
        <ele>129</ele>
        <time>2019-01-21T13:58:23Z</time>
      </trkpt>
      <trkpt lat="49.33446" lon="1.01281">
        <ele>129</ele>
        <time>2019-01-21T13:58:27Z</time>
      </trkpt>
      <trkpt lat="49.33453" lon="1.01276">
        <ele>129</ele>
        <time>2019-01-21T13:58:32Z</time>
      </trkpt>
      <trkpt lat="49.33464" lon="1.01273">
        <ele>129</ele>
        <time>2019-01-21T13:58:37Z</time>
      </trkpt>
      <trkpt lat="49.33465" lon="1.01271">
        <ele>129</ele>
        <time>2019-01-21T13:58:38Z</time>
      </trkpt>
      <trkpt lat="49.33466" lon="1.01268">
        <ele>129</ele>
        <time>2019-01-21T13:58:39Z</time>
      </trkpt>
      <trkpt lat="49.33467" lon="1.01266">
        <ele>129</ele>
        <time>2019-01-21T13:58:40Z</time>
      </trkpt>
      <trkpt lat="49.33467" lon="1.01263">
        <ele>129</ele>
        <time>2019-01-21T13:58:41Z</time>
      </trkpt>
      <trkpt lat="49.33468" lon="1.01261">
        <ele>129</ele>
        <time>2019-01-21T13:58:42Z</time>
      </trkpt>
      <trkpt lat="49.33469" lon="1.01258">
        <ele>129</ele>
        <time>2019-01-21T13:58:43Z</time>
      </trkpt>
      <trkpt lat="49.33477" lon="1.01237">
        <ele>129</ele>
        <time>2019-01-21T13:58:49Z</time>
      </trkpt>
      <trkpt lat="49.33483" lon="1.01219">
        <ele>130</ele>
        <time>2019-01-21T13:58:55Z</time>
      </trkpt>
      <trkpt lat="49.33482" lon="1.01217">
        <ele>130</ele>
        <time>2019-01-21T13:59:03Z</time>
      </trkpt>
      <trkpt lat="49.33486" lon="1.01189">
        <ele>130</ele>
        <time>2019-01-21T13:59:11Z</time>
      </trkpt>
      <trkpt lat="49.33494" lon="1.01175">
        <ele>130</ele>
        <time>2019-01-21T13:59:20Z</time>
      </trkpt>
      <trkpt lat="49.33495" lon="1.01175">
        <ele>130</ele>
        <time>2019-01-21T13:59:29Z</time>
      </trkpt>
      <trkpt lat="49.33498" lon="1.01172">
        <ele>130</ele>
        <time>2019-01-21T13:59:35Z</time>
      </trkpt>
      <trkpt lat="49.33497" lon="1.01173">
        <ele>130</ele>
        <time>2019-01-21T13:59:44Z</time>
      </trkpt>
      <trkpt lat="49.33499" lon="1.01174">
        <ele>130</ele>
        <time>2019-01-21T14:00:03Z</time>
      </trkpt>
      <trkpt lat="49.33499" lon="1.01166">
        <ele>130</ele>
        <time>2019-01-21T14:00:15Z</time>
      </trkpt>
      <trkpt lat="49.335" lon="1.01157">
        <ele>130</ele>
        <time>2019-01-21T14:00:21Z</time>
      </trkpt>
      <trkpt lat="49.33501" lon="1.01152">
        <ele>130</ele>
        <time>2019-01-21T14:00:27Z</time>
      </trkpt>
      <trkpt lat="49.33501" lon="1.01151">
        <ele>130</ele>
        <time>2019-01-21T14:00:30Z</time>
      </trkpt>
      <trkpt lat="49.33507" lon="1.01132">
        <ele>130</ele>
        <time>2019-01-21T14:00:37Z</time>
      </trkpt>
      <trkpt lat="49.33511" lon="1.01114">
        <ele>130</ele>
        <time>2019-01-21T14:00:42Z</time>
      </trkpt>
      <trkpt lat="49.33526" lon="1.01075">
        <ele>130</ele>
        <time>2019-01-21T14:00:48Z</time>
      </trkpt>
      <trkpt lat="49.33529" lon="1.01069">
        <ele>130</ele>
        <time>2019-01-21T14:00:49Z</time>
      </trkpt>
      <trkpt lat="49.33533" lon="1.01064">
        <ele>130</ele>
        <time>2019-01-21T14:00:50Z</time>
      </trkpt>
      <trkpt lat="49.3355" lon="1.01041">
        <ele>130</ele>
        <time>2019-01-21T14:00:56Z</time>
      </trkpt>
      <trkpt lat="49.33558" lon="1.01033">
        <ele>130</ele>
        <time>2019-01-21T14:00:58Z</time>
      </trkpt>
      <trkpt lat="49.33588" lon="1.0101">
        <ele>129</ele>
        <time>2019-01-21T14:01:05Z</time>
      </trkpt>
      <trkpt lat="49.33592" lon="1.01006">
        <ele>129</ele>
        <time>2019-01-21T14:01:06Z</time>
      </trkpt>
      <trkpt lat="49.33596" lon="1.01002">
        <ele>129</ele>
        <time>2019-01-21T14:01:07Z</time>
      </trkpt>
      <trkpt lat="49.33622" lon="1.00979">
        <ele>130</ele>
        <time>2019-01-21T14:01:14Z</time>
      </trkpt>
      <trkpt lat="49.33634" lon="1.00968">
        <ele>130</ele>
        <time>2019-01-21T14:01:19Z</time>
      </trkpt>
      <trkpt lat="49.33642" lon="1.0096">
        <ele>130</ele>
        <time>2019-01-21T14:01:24Z</time>
      </trkpt>
      <trkpt lat="49.33644" lon="1.00954">
        <ele>130</ele>
        <time>2019-01-21T14:01:27Z</time>
      </trkpt>
      <trkpt lat="49.33641" lon="1.00935">
        <ele>130</ele>
        <time>2019-01-21T14:01:32Z</time>
      </trkpt>
      <trkpt lat="49.33635" lon="1.00913">
        <ele>130</ele>
        <time>2019-01-21T14:01:35Z</time>
      </trkpt>
      <trkpt lat="49.33628" lon="1.00892">
        <ele>130</ele>
        <time>2019-01-21T14:01:38Z</time>
      </trkpt>
      <trkpt lat="49.33626" lon="1.00884">
        <ele>129</ele>
        <time>2019-01-21T14:01:39Z</time>
      </trkpt>
      <trkpt lat="49.33606" lon="1.00819">
        <ele>128</ele>
        <time>2019-01-21T14:01:47Z</time>
      </trkpt>
      <trkpt lat="49.33585" lon="1.00749">
        <ele>128</ele>
        <time>2019-01-21T14:01:55Z</time>
      </trkpt>
      <trkpt lat="49.33562" lon="1.00679">
        <ele>128</ele>
        <time>2019-01-21T14:02:03Z</time>
      </trkpt>
      <trkpt lat="49.33534" lon="1.00597">
        <ele>129</ele>
        <time>2019-01-21T14:02:12Z</time>
      </trkpt>
      <trkpt lat="49.33507" lon="1.00521">
        <ele>128</ele>
        <time>2019-01-21T14:02:20Z</time>
      </trkpt>
      <trkpt lat="49.33474" lon="1.00416">
        <ele>125</ele>
        <time>2019-01-21T14:02:31Z</time>
      </trkpt>
      <trkpt lat="49.33449" lon="1.00336">
        <ele>123</ele>
        <time>2019-01-21T14:02:39Z</time>
      </trkpt>
      <trkpt lat="49.33422" lon="1.00258">
        <ele>123</ele>
        <time>2019-01-21T14:02:47Z</time>
      </trkpt>
      <trkpt lat="49.33403" lon="1.00199">
        <ele>124</ele>
        <time>2019-01-21T14:02:53Z</time>
      </trkpt>
      <trkpt lat="49.33379" lon="1.00126">
        <ele>126</ele>
        <time>2019-01-21T14:03:01Z</time>
      </trkpt>
      <trkpt lat="49.33354" lon="1.00046">
        <ele>126</ele>
        <time>2019-01-21T14:03:10Z</time>
      </trkpt>
      <trkpt lat="49.33329" lon="0.99967">
        <ele>126</ele>
        <time>2019-01-21T14:03:19Z</time>
      </trkpt>
      <trkpt lat="49.33296" lon="0.99874">
        <ele>126</ele>
        <time>2019-01-21T14:03:30Z</time>
      </trkpt>
      <trkpt lat="49.33239" lon="0.99733">
        <ele>123</ele>
        <time>2019-01-21T14:03:38Z</time>
      </trkpt>
      <trkpt lat="49.33225" lon="0.99716">
        <ele>122</ele>
        <time>2019-01-10T09:34:20Z</time>
      </trkpt>
      <trkpt lat="49.33206" lon="0.99713">
        <ele>122</ele>
        <time>2019-01-10T09:34:21Z</time>
      </trkpt>
      <trkpt lat="49.33186" lon="0.9972">
        <ele>122</ele>
      </trkpt>
      <trkpt lat="49.33141" lon="0.99755">
        <ele>120</ele>
        <time>2019-01-10T09:34:58Z</time>
      </trkpt>
      <trkpt lat="49.33137" lon="0.99766">
        <ele>119</ele>
        <time>2019-01-10T09:35:01Z</time>
      </trkpt>
      <trkpt lat="49.33136" lon="0.99768">
        <ele>119</ele>
        <time>2019-01-10T09:35:02Z</time>
      </trkpt>
      <trkpt lat="49.33134" lon="0.99769">
        <ele>118</ele>
        <time>2019-01-10T09:35:03Z</time>
      </trkpt>
      <trkpt lat="49.33131" lon="0.99772">
        <ele>118</ele>
        <time>2019-01-10T09:35:04Z</time>
      </trkpt>
      <trkpt lat="49.33129" lon="0.99775">
        <ele>118</ele>
        <time>2019-01-10T09:35:05Z</time>
      </trkpt>
      <trkpt lat="49.33116" lon="0.99795">
        <ele>116</ele>
        <time>2019-01-10T09:35:10Z</time>
      </trkpt>
      <trkpt lat="49.33102" lon="0.9981">
        <ele>115</ele>
        <time>2019-01-10T09:35:15Z</time>
      </trkpt>
      <trkpt lat="49.33098" lon="0.99812">
        <ele>115</ele>
        <time>2019-01-10T09:35:16Z</time>
      </trkpt>
      <trkpt lat="49.33085" lon="0.99808">
        <ele>116</ele>
        <time>2019-01-10T09:35:21Z</time>
      </trkpt>
      <trkpt lat="49.3308" lon="0.99811">
        <ele>116</ele>
        <time>2019-01-10T09:35:23Z</time>
      </trkpt>
      <trkpt lat="49.33078" lon="0.99814">
        <ele>115</ele>
        <time>2019-01-10T09:35:24Z</time>
      </trkpt>
      <trkpt lat="49.33076" lon="0.99817">
        <ele>115</ele>
        <time>2019-01-10T09:35:25Z</time>
      </trkpt>
      <trkpt lat="49.33074" lon="0.99819">
        <ele>115</ele>
        <time>2019-01-10T09:35:26Z</time>
      </trkpt>
      <trkpt lat="49.33073" lon="0.99821">
        <ele>115</ele>
        <time>2019-01-10T09:35:27Z</time>
      </trkpt>
      <trkpt lat="49.33072" lon="0.99822">
        <ele>115</ele>
        <time>2019-01-10T09:35:28Z</time>
      </trkpt>
      <trkpt lat="49.3307" lon="0.99822">
        <ele>115</ele>
        <time>2019-01-10T09:35:29Z</time>
      </trkpt>
      <trkpt lat="49.33057" lon="0.99827">
        <ele>115</ele>
        <time>2019-01-10T09:35:33Z</time>
      </trkpt>
      <trkpt lat="49.33055" lon="0.99831">
        <ele>115</ele>
        <time>2019-01-10T09:35:34Z</time>
      </trkpt>
      <trkpt lat="49.33052" lon="0.99837">
        <ele>114</ele>
        <time>2019-01-10T09:35:35Z</time>
      </trkpt>
      <trkpt lat="49.3305" lon="0.99845">
        <ele>114</ele>
        <time>2019-01-10T09:35:36Z</time>
      </trkpt>
      <trkpt lat="49.33047" lon="0.99853">
        <ele>113</ele>
        <time>2019-01-10T09:35:37Z</time>
      </trkpt>
      <trkpt lat="49.33044" lon="0.99859">
        <ele>112</ele>
        <time>2019-01-10T09:35:38Z</time>
      </trkpt>
      <trkpt lat="49.33041" lon="0.99863">
        <ele>112</ele>
        <time>2019-01-10T09:35:39Z</time>
      </trkpt>
      <trkpt lat="49.33038" lon="0.99866">
        <ele>112</ele>
        <time>2019-01-10T09:35:40Z</time>
      </trkpt>
      <trkpt lat="49.33035" lon="0.99867">
        <ele>112</ele>
        <time>2019-01-10T09:35:41Z</time>
      </trkpt>
      <trkpt lat="49.33032" lon="0.99869">
        <ele>112</ele>
        <time>2019-01-10T09:35:42Z</time>
      </trkpt>
      <trkpt lat="49.3303" lon="0.99871">
        <ele>112</ele>
        <time>2019-01-10T09:35:43Z</time>
      </trkpt>
      <trkpt lat="49.33029" lon="0.99874">
        <ele>112</ele>
        <time>2019-01-10T09:35:44Z</time>
      </trkpt>
      <trkpt lat="49.33028" lon="0.99878">
        <ele>112</ele>
        <time>2019-01-10T09:35:45Z</time>
      </trkpt>
      <trkpt lat="49.33027" lon="0.99882">
        <ele>112</ele>
        <time>2019-01-10T09:35:46Z</time>
      </trkpt>
      <trkpt lat="49.33026" lon="0.99888">
        <ele>111</ele>
        <time>2019-01-10T09:35:47Z</time>
      </trkpt>
      <trkpt lat="49.33026" lon="0.99893">
        <ele>111</ele>
        <time>2019-01-10T09:35:48Z</time>
      </trkpt>
      <trkpt lat="49.33025" lon="0.99899">
        <ele>110</ele>
        <time>2019-01-10T09:35:49Z</time>
      </trkpt>
      <trkpt lat="49.33012" lon="0.999">
        <ele>112</ele>
        <time>2019-01-10T09:35:51Z</time>
      </trkpt>
      <trkpt lat="49.33008" lon="0.99923">
        <ele>111</ele>
        <time>2019-01-10T09:35:53Z</time>
      </trkpt>
      <trkpt lat="49.33001" lon="0.99956">
        <ele>110</ele>
        <time>2019-01-10T09:35:57Z</time>
      </trkpt>
      <trkpt lat="49.32999" lon="0.99971">
        <ele>109</ele>
        <time>2019-01-10T09:35:58Z</time>
      </trkpt>
      <trkpt lat="49.32988" lon="0.99997">
        <ele>109</ele>
        <time>2019-01-10T09:36:04Z</time>
      </trkpt>
      <trkpt lat="49.32986" lon="1.00016">
        <ele>107</ele>
        <time>2019-01-10T09:36:05Z</time>
      </trkpt>
      <trkpt lat="49.32986" lon="1.0003">
        <ele>106</ele>
        <time>2019-01-10T09:36:06Z</time>
      </trkpt>
      <trkpt lat="49.32984" lon="1.00047">
        <ele>104</ele>
        <time>2019-01-10T09:36:07Z</time>
      </trkpt>
      <trkpt lat="49.32976" lon="1.00108">
        <ele>98</ele>
        <time>2019-01-10T09:36:33Z</time>
      </trkpt>
      <trkpt lat="49.3296" lon="1.00108">
        <ele>98</ele>
        <time>2019-01-10T09:36:38Z</time>
      </trkpt>
      <trkpt lat="49.32956" lon="1.00108">
        <ele>98</ele>
        <time>2019-01-10T09:36:40Z</time>
      </trkpt>
      <trkpt lat="49.32946" lon="1.00105">
        <ele>99</ele>
        <time>2019-01-10T09:36:44Z</time>
      </trkpt>
      <trkpt lat="49.32924" lon="1.00103">
        <ele>98</ele>
        <time>2019-01-10T09:36:51Z</time>
      </trkpt>
      <trkpt lat="49.32912" lon="1.00103">
        <ele>97</ele>
        <time>2019-01-10T09:36:55Z</time>
      </trkpt>
      <trkpt lat="49.329" lon="1.001">
        <ele>97</ele>
        <time>2019-01-10T09:37:01Z</time>
      </trkpt>
      <trkpt lat="49.32892" lon="1.00102">
        <ele>95</ele>
        <time>2019-01-10T09:37:10Z</time>
      </trkpt>
      <trkpt lat="49.32887" lon="1.00102">
        <ele>94</ele>
        <time>2019-01-10T09:37:19Z</time>
      </trkpt>
      <trkpt lat="49.32883" lon="1.00102">
        <ele>94</ele>
        <time>2019-01-10T09:37:35Z</time>
      </trkpt>
      <trkpt lat="49.32882" lon="1.00106">
        <ele>93</ele>
        <time>2019-01-10T09:37:52Z</time>
      </trkpt>
      <trkpt lat="49.32879" lon="1.00107">
        <ele>92</ele>
        <time>2019-01-10T09:38:06Z</time>
      </trkpt>
      <trkpt lat="49.32873" lon="1.00103">
        <ele>92</ele>
        <time>2019-01-10T09:38:07Z</time>
      </trkpt>
      <trkpt lat="49.32873" lon="1.00095">
        <ele>94</ele>
        <time>2019-01-10T09:38:13Z</time>
      </trkpt>
      <trkpt lat="49.32872" lon="1.00093">
        <ele>94</ele>
        <time>2019-01-10T09:38:14Z</time>
      </trkpt>
      <trkpt lat="49.32866" lon="1.00075">
        <ele>96</ele>
        <time>2019-01-10T09:38:21Z</time>
      </trkpt>
      <trkpt lat="49.32828" lon="0.99986">
        <ele>107</ele>
        <time>2019-01-10T09:46:23Z</time>
      </trkpt>
      <trkpt lat="49.32795" lon="0.99867">
        <ele>117</ele>
        <time>2019-01-10T09:46:24Z</time>
      </trkpt>
      <trkpt lat="49.32785" lon="0.99834">
        <ele>118</ele>
        <time>2019-01-10T09:46:32Z</time>
      </trkpt>
      <trkpt lat="49.32769" lon="0.99786">
        <ele>120</ele>
        <time>2019-01-10T09:46:42Z</time>
      </trkpt>
      <trkpt lat="49.32757" lon="0.99748">
        <ele>121</ele>
        <time>2019-01-10T09:46:49Z</time>
      </trkpt>
      <trkpt lat="49.32748" lon="0.9972">
        <ele>121</ele>
        <time>2019-01-10T09:46:54Z</time>
      </trkpt>
      <trkpt lat="49.32746" lon="0.99714">
        <ele>121</ele>
        <time>2019-01-10T09:46:55Z</time>
      </trkpt>
      <trkpt lat="49.32736" lon="0.99682">
        <ele>121</ele>
        <time>2019-01-10T09:47:00Z</time>
      </trkpt>
      <trkpt lat="49.32717" lon="0.99626">
        <ele>121</ele>
        <time>2019-01-10T09:47:09Z</time>
      </trkpt>
      <trkpt lat="49.32699" lon="0.9957">
        <ele>120</ele>
        <time>2019-01-10T09:47:17Z</time>
      </trkpt>
      <trkpt lat="49.32678" lon="0.99504">
        <ele>118</ele>
        <time>2019-01-10T09:47:27Z</time>
      </trkpt>
      <trkpt lat="49.32674" lon="0.99491">
        <ele>118</ele>
        <time>2019-01-10T09:47:29Z</time>
      </trkpt>
      <trkpt lat="49.3266" lon="0.99449">
        <ele>116</ele>
        <time>2019-01-10T09:47:36Z</time>
      </trkpt>
      <trkpt lat="49.32658" lon="0.99447">
        <ele>115</ele>
        <time>2019-01-10T09:47:37Z</time>
      </trkpt>
      <trkpt lat="49.32656" lon="0.99446">
        <ele>115</ele>
        <time>2019-01-10T09:47:38Z</time>
      </trkpt>
      <trkpt lat="49.32648" lon="0.99454">
        <ele>115</ele>
        <time>2019-01-10T09:47:41Z</time>
      </trkpt>
      <trkpt lat="49.3264" lon="0.99464">
        <ele>115</ele>
        <time>2019-01-10T09:47:44Z</time>
      </trkpt>
      <trkpt lat="49.32637" lon="0.99464">
        <ele>115</ele>
        <time>2019-01-10T09:47:47Z</time>
      </trkpt>
      <trkpt lat="49.32628" lon="0.9946">
        <ele>114</ele>
        <time>2019-01-10T09:47:53Z</time>
      </trkpt>
      <trkpt lat="49.32626" lon="0.99458">
        <ele>114</ele>
        <time>2019-01-10T09:48:04Z</time>
      </trkpt>
      <trkpt lat="49.32613" lon="0.99442">
        <ele>114</ele>
        <time>2019-01-10T09:48:11Z</time>
      </trkpt>
      <trkpt lat="49.32607" lon="0.99434">
        <ele>114</ele>
        <time>2019-01-10T09:48:14Z</time>
      </trkpt>
      <trkpt lat="49.32605" lon="0.99419">
        <ele>113</ele>
        <time>2019-01-10T09:48:20Z</time>
      </trkpt>
      <trkpt lat="49.32604" lon="0.99419">
        <ele>113</ele>
        <time>2019-01-10T09:48:21Z</time>
      </trkpt>
      <trkpt lat="49.32598" lon="0.99421">
        <ele>113</ele>
        <time>2019-01-10T09:48:25Z</time>
      </trkpt>
      <trkpt lat="49.32586" lon="0.99426">
        <ele>113</ele>
        <time>2019-01-10T09:48:30Z</time>
      </trkpt>
      <trkpt lat="49.32578" lon="0.99422">
        <ele>113</ele>
        <time>2019-01-10T09:48:33Z</time>
      </trkpt>
      <trkpt lat="49.32553" lon="0.99404">
        <ele>111</ele>
        <time>2019-01-10T09:48:39Z</time>
      </trkpt>
      <trkpt lat="49.32544" lon="0.994">
        <ele>111</ele>
        <time>2019-01-10T09:48:41Z</time>
      </trkpt>
      <trkpt lat="49.32521" lon="0.9938">
        <ele>110</ele>
        <time>2019-01-10T09:48:47Z</time>
      </trkpt>
      <trkpt lat="49.32505" lon="0.99362">
        <ele>110</ele>
        <time>2019-01-10T09:48:51Z</time>
      </trkpt>
      <trkpt lat="49.32483" lon="0.99332">
        <ele>109</ele>
        <time>2019-01-10T09:48:56Z</time>
      </trkpt>
      <trkpt lat="49.32462" lon="0.99313">
        <ele>108</ele>
        <time>2019-01-10T09:49:00Z</time>
      </trkpt>
      <trkpt lat="49.32441" lon="0.99297">
        <ele>108</ele>
        <time>2019-01-10T09:49:04Z</time>
      </trkpt>
      <trkpt lat="49.32428" lon="0.99283">
        <ele>107</ele>
        <time>2019-01-10T09:49:07Z</time>
      </trkpt>
      <trkpt lat="49.32416" lon="0.99264">
        <ele>106</ele>
        <time>2019-01-10T09:49:10Z</time>
      </trkpt>
      <trkpt lat="49.32408" lon="0.99254">
        <ele>106</ele>
        <time>2019-01-10T09:49:12Z</time>
      </trkpt>
      <trkpt lat="49.32404" lon="0.99254">
        <ele>106</ele>
        <time>2019-01-10T09:49:13Z</time>
      </trkpt>
      <trkpt lat="49.32399" lon="0.99254">
        <ele>106</ele>
        <time>2019-01-10T09:49:14Z</time>
      </trkpt>
      <trkpt lat="49.32393" lon="0.99256">
        <ele>105</ele>
        <time>2019-01-10T09:49:15Z</time>
      </trkpt>
      <trkpt lat="49.32388" lon="0.99259">
        <ele>105</ele>
        <time>2019-01-10T09:49:16Z</time>
      </trkpt>
      <trkpt lat="49.32355" lon="0.99282">
        <ele>101</ele>
        <time>2019-01-10T09:49:22Z</time>
      </trkpt>
      <trkpt lat="49.3235" lon="0.99285">
        <ele>101</ele>
        <time>2019-01-10T09:49:23Z</time>
      </trkpt>
      <trkpt lat="49.32344" lon="0.99288">
        <ele>100</ele>
        <time>2019-01-10T09:49:24Z</time>
      </trkpt>
      <trkpt lat="49.32307" lon="0.99312">
        <ele>94</ele>
        <time>2019-01-10T09:49:30Z</time>
      </trkpt>
      <trkpt lat="49.32277" lon="0.99335">
        <ele>88</ele>
        <time>2019-01-10T09:49:35Z</time>
      </trkpt>
      <trkpt lat="49.32271" lon="0.99337">
        <ele>87</ele>
        <time>2019-01-10T09:49:36Z</time>
      </trkpt>
      <trkpt lat="49.32265" lon="0.99338">
        <ele>87</ele>
        <time>2019-01-10T09:49:37Z</time>
      </trkpt>
      <trkpt lat="49.32257" lon="0.99336">
        <ele>86</ele>
        <time>2019-01-10T09:49:38Z</time>
      </trkpt>
      <trkpt lat="49.32253" lon="0.99334">
        <ele>86</ele>
        <time>2019-01-10T09:49:39Z</time>
      </trkpt>
      <trkpt lat="49.32247" lon="0.9933">
        <ele>86</ele>
        <time>2019-01-10T09:49:40Z</time>
      </trkpt>
      <trkpt lat="49.32242" lon="0.99326">
        <ele>85</ele>
        <time>2019-01-10T09:49:41Z</time>
      </trkpt>
      <trkpt lat="49.32226" lon="0.99317">
        <ele>85</ele>
        <time>2019-01-10T09:49:44Z</time>
      </trkpt>
      <trkpt lat="49.3222" lon="0.99317">
        <ele>84</ele>
        <time>2019-01-10T09:49:45Z</time>
      </trkpt>
      <trkpt lat="49.32213" lon="0.99318">
        <ele>83</ele>
        <time>2019-01-10T09:49:46Z</time>
      </trkpt>
      <trkpt lat="49.32208" lon="0.99321">
        <ele>81</ele>
        <time>2019-01-10T09:49:47Z</time>
      </trkpt>
      <trkpt lat="49.32203" lon="0.99324">
        <ele>80</ele>
        <time>2019-01-10T09:49:48Z</time>
      </trkpt>
      <trkpt lat="49.32198" lon="0.99329">
        <ele>79</ele>
        <time>2019-01-10T09:49:49Z</time>
      </trkpt>
      <trkpt lat="49.32194" lon="0.99335">
        <ele>78</ele>
        <time>2019-01-10T09:49:50Z</time>
      </trkpt>
      <trkpt lat="49.32189" lon="0.99342">
        <ele>76</ele>
        <time>2019-01-10T09:49:51Z</time>
      </trkpt>
      <trkpt lat="49.32184" lon="0.99349">
        <ele>75</ele>
        <time>2019-01-10T09:49:52Z</time>
      </trkpt>
      <trkpt lat="49.32179" lon="0.99356">
        <ele>73</ele>
        <time>2019-01-10T09:49:53Z</time>
      </trkpt>
      <trkpt lat="49.32174" lon="0.99362">
        <ele>72</ele>
        <time>2019-01-10T09:49:54Z</time>
      </trkpt>
      <trkpt lat="49.32169" lon="0.99365">
        <ele>71</ele>
        <time>2019-01-10T09:49:55Z</time>
      </trkpt>
      <trkpt lat="49.32164" lon="0.99366">
        <ele>71</ele>
        <time>2019-01-10T09:49:56Z</time>
      </trkpt>
      <trkpt lat="49.32159" lon="0.99365">
        <ele>70</ele>
        <time>2019-01-10T09:49:57Z</time>
      </trkpt>
      <trkpt lat="49.32155" lon="0.99363">
        <ele>70</ele>
        <time>2019-01-10T09:49:58Z</time>
      </trkpt>
      <trkpt lat="49.3215" lon="0.9936">
        <ele>69</ele>
        <time>2019-01-10T09:49:59Z</time>
      </trkpt>
      <trkpt lat="49.3214" lon="0.99353">
        <ele>68</ele>
        <time>2019-01-10T09:50:01Z</time>
      </trkpt>
      <trkpt lat="49.32135" lon="0.99347">
        <ele>67</ele>
        <time>2019-01-10T09:50:02Z</time>
      </trkpt>
      <trkpt lat="49.32131" lon="0.99339">
        <ele>67</ele>
        <time>2019-01-10T09:50:03Z</time>
      </trkpt>
      <trkpt lat="49.32128" lon="0.9933">
        <ele>67</ele>
        <time>2019-01-10T09:50:04Z</time>
      </trkpt>
      <trkpt lat="49.32125" lon="0.99321">
        <ele>67</ele>
        <time>2019-01-10T09:50:05Z</time>
      </trkpt>
      <trkpt lat="49.32123" lon="0.9931">
        <ele>67</ele>
        <time>2019-01-10T09:50:06Z</time>
      </trkpt>
      <trkpt lat="49.32121" lon="0.99299">
        <ele>67</ele>
        <time>2019-01-10T09:50:07Z</time>
      </trkpt>
      <trkpt lat="49.3212" lon="0.99288">
        <ele>66</ele>
        <time>2019-01-10T09:50:08Z</time>
      </trkpt>
      <trkpt lat="49.32119" lon="0.99277">
        <ele>65</ele>
        <time>2019-01-10T09:50:09Z</time>
      </trkpt>
      <trkpt lat="49.32119" lon="0.99266">
        <ele>64</ele>
        <time>2019-01-10T09:50:10Z</time>
      </trkpt>
      <trkpt lat="49.32119" lon="0.99255">
        <ele>64</ele>
        <time>2019-01-10T09:50:11Z</time>
      </trkpt>
      <trkpt lat="49.32122" lon="0.99206">
        <ele>61</ele>
        <time>2019-01-10T09:50:15Z</time>
      </trkpt>
      <trkpt lat="49.32138" lon="0.99129">
        <ele>58</ele>
        <time>2019-01-10T09:50:22Z</time>
      </trkpt>
      <trkpt lat="49.32149" lon="0.99074">
        <ele>56</ele>
        <time>2019-01-10T09:50:27Z</time>
      </trkpt>
      <trkpt lat="49.32153" lon="0.99048">
        <ele>55</ele>
        <time>2019-01-10T09:50:30Z</time>
      </trkpt>
      <trkpt lat="49.32154" lon="0.99039">
        <ele>55</ele>
        <time>2019-01-10T09:50:31Z</time>
      </trkpt>
      <trkpt lat="49.32155" lon="0.99031">
        <ele>55</ele>
        <time>2019-01-10T09:50:32Z</time>
      </trkpt>
      <trkpt lat="49.32157" lon="0.99006">
        <ele>53</ele>
        <time>2019-01-10T09:50:36Z</time>
      </trkpt>
      <trkpt lat="49.32159" lon="0.98983">
        <ele>52</ele>
        <time>2019-01-10T09:50:41Z</time>
      </trkpt>
      <trkpt lat="49.32179" lon="0.98878">
        <ele>51</ele>
        <time>2019-01-10T09:51:39Z</time>
      </trkpt>
      <trkpt lat="49.3218" lon="0.98875">
        <ele>51</ele>
        <time>2019-01-10T09:51:40Z</time>
      </trkpt>
      <trkpt lat="49.32181" lon="0.98872">
        <ele>51</ele>
        <time>2019-01-10T09:51:41Z</time>
      </trkpt>
      <trkpt lat="49.32188" lon="0.98856">
        <ele>52</ele>
        <time>2019-01-10T09:51:47Z</time>
      </trkpt>
      <trkpt lat="49.32191" lon="0.98827">
        <ele>50</ele>
        <time>2019-01-10T09:51:53Z</time>
      </trkpt>
      <trkpt lat="49.32198" lon="0.98813">
        <ele>49</ele>
        <time>2019-01-10T09:51:58Z</time>
      </trkpt>
      <trkpt lat="49.322" lon="0.98807">
        <ele>49</ele>
        <time>2019-01-10T09:52:04Z</time>
      </trkpt>
      <trkpt lat="49.32202" lon="0.98795">
        <ele>48</ele>
        <time>2019-01-10T09:52:16Z</time>
      </trkpt>
      <trkpt lat="49.32207" lon="0.98794">
        <ele>49</ele>
        <time>2019-01-10T09:52:23Z</time>
      </trkpt>
      <trkpt lat="49.32211" lon="0.9879">
        <ele>49</ele>
        <time>2019-01-10T09:52:30Z</time>
      </trkpt>
      <trkpt lat="49.32215" lon="0.98781">
        <ele>48</ele>
        <time>2019-01-10T09:52:38Z</time>
      </trkpt>
      <trkpt lat="49.32217" lon="0.9878">
        <ele>48</ele>
        <time>2019-01-10T09:52:46Z</time>
      </trkpt>
      <trkpt lat="49.3222" lon="0.9878">
        <ele>48</ele>
        <time>2019-01-10T09:52:50Z</time>
      </trkpt>
      <trkpt lat="49.32229" lon="0.98786">
        <ele>50</ele>
        <time>2019-01-10T09:52:56Z</time>
      </trkpt>
      <trkpt lat="49.32231" lon="0.98787">
        <ele>50</ele>
        <time>2019-01-10T09:52:57Z</time>
      </trkpt>
      <trkpt lat="49.32234" lon="0.98787">
        <ele>50</ele>
        <time>2019-01-10T09:52:58Z</time>
      </trkpt>
      <trkpt lat="49.32237" lon="0.98788">
        <ele>50</ele>
        <time>2019-01-10T09:52:59Z</time>
      </trkpt>
      <trkpt lat="49.3224" lon="0.98789">
        <ele>51</ele>
        <time>2019-01-10T09:53:00Z</time>
      </trkpt>
      <trkpt lat="49.32244" lon="0.98791">
        <ele>51</ele>
        <time>2019-01-10T09:53:01Z</time>
      </trkpt>
      <trkpt lat="49.32262" lon="0.98793">
        <ele>52</ele>
        <time>2019-01-10T09:53:06Z</time>
      </trkpt>
      <trkpt lat="49.32269" lon="0.98795">
        <ele>53</ele>
        <time>2019-01-10T09:53:08Z</time>
      </trkpt>
      <trkpt lat="49.32271" lon="0.98797">
        <ele>54</ele>
        <time>2019-01-10T09:53:09Z</time>
      </trkpt>
      <trkpt lat="49.32274" lon="0.98799">
        <ele>55</ele>
        <time>2019-01-10T09:53:10Z</time>
      </trkpt>
      <trkpt lat="49.32276" lon="0.988">
        <ele>55</ele>
        <time>2019-01-10T09:53:11Z</time>
      </trkpt>
      <trkpt lat="49.32279" lon="0.98802">
        <ele>56</ele>
        <time>2019-01-10T09:53:12Z</time>
      </trkpt>
      <trkpt lat="49.32281" lon="0.98804">
        <ele>56</ele>
        <time>2019-01-10T09:53:13Z</time>
      </trkpt>
      <trkpt lat="49.3229" lon="0.98817">
        <ele>58</ele>
        <time>2019-01-10T09:53:18Z</time>
      </trkpt>
      <trkpt lat="49.32302" lon="0.98841">
        <ele>60</ele>
        <time>2019-01-10T09:53:26Z</time>
      </trkpt>
      <trkpt lat="49.32308" lon="0.98837">
        <ele>61</ele>
        <time>2019-01-10T09:53:30Z</time>
      </trkpt>
      <trkpt lat="49.32315" lon="0.98827">
        <ele>63</ele>
        <time>2019-01-10T09:53:35Z</time>
      </trkpt>
      <trkpt lat="49.32317" lon="0.9882">
        <ele>63</ele>
        <time>2019-01-10T09:53:38Z</time>
      </trkpt>
      <trkpt lat="49.32316" lon="0.98794">
        <ele>63</ele>
        <time>2019-01-10T09:53:46Z</time>
      </trkpt>
      <trkpt lat="49.32318" lon="0.9877">
        <ele>63</ele>
        <time>2019-01-10T09:53:53Z</time>
      </trkpt>
      <trkpt lat="49.32326" lon="0.98742">
        <ele>65</ele>
        <time>2019-01-10T09:54:00Z</time>
      </trkpt>
      <trkpt lat="49.32336" lon="0.98725">
        <ele>67</ele>
        <time>2019-01-10T09:54:06Z</time>
      </trkpt>
      <trkpt lat="49.32346" lon="0.98711">
        <ele>68</ele>
        <time>2019-01-10T09:54:12Z</time>
      </trkpt>
      <trkpt lat="49.32356" lon="0.98697">
        <ele>70</ele>
        <time>2019-01-10T09:54:19Z</time>
      </trkpt>
      <trkpt lat="49.32366" lon="0.98685">
        <ele>71</ele>
        <time>2019-01-10T09:54:25Z</time>
      </trkpt>
      <trkpt lat="49.32367" lon="0.98684">
        <ele>71</ele>
        <time>2019-01-10T09:54:26Z</time>
      </trkpt>
      <trkpt lat="49.32374" lon="0.98672">
        <ele>72</ele>
        <time>2019-01-10T09:54:33Z</time>
      </trkpt>
      <trkpt lat="49.32382" lon="0.98663">
        <ele>74</ele>
        <time>2019-01-10T09:54:39Z</time>
      </trkpt>
      <trkpt lat="49.32392" lon="0.98653">
        <ele>75</ele>
        <time>2019-01-10T09:54:45Z</time>
      </trkpt>
      <trkpt lat="49.32403" lon="0.98646">
        <ele>76</ele>
        <time>2019-01-10T09:54:51Z</time>
      </trkpt>
      <trkpt lat="49.32408" lon="0.98638">
        <ele>77</ele>
        <time>2019-01-10T09:54:55Z</time>
      </trkpt>
      <trkpt lat="49.3241" lon="0.9863">
        <ele>77</ele>
        <time>2019-01-10T09:54:58Z</time>
      </trkpt>
      <trkpt lat="49.32409" lon="0.98624">
        <ele>76</ele>
        <time>2019-01-10T09:55:00Z</time>
      </trkpt>
      <trkpt lat="49.32408" lon="0.98621">
        <ele>76</ele>
        <time>2019-01-10T09:55:01Z</time>
      </trkpt>
      <trkpt lat="49.32408" lon="0.98619">
        <ele>76</ele>
        <time>2019-01-10T09:55:02Z</time>
      </trkpt>
      <trkpt lat="49.3241" lon="0.98614">
        <ele>76</ele>
        <time>2019-01-10T09:55:04Z</time>
      </trkpt>
      <trkpt lat="49.3242" lon="0.98606">
        <ele>77</ele>
        <time>2019-01-10T09:55:10Z</time>
      </trkpt>
      <trkpt lat="49.32422" lon="0.98603">
        <ele>77</ele>
        <time>2019-01-10T09:55:11Z</time>
      </trkpt>
      <trkpt lat="49.32425" lon="0.98597">
        <ele>77</ele>
        <time>2019-01-10T09:55:13Z</time>
      </trkpt>
      <trkpt lat="49.32424" lon="0.9857">
        <ele>76</ele>
        <time>2019-01-10T09:55:19Z</time>
      </trkpt>
      <trkpt lat="49.32426" lon="0.98548">
        <ele>75</ele>
        <time>2019-01-10T09:55:23Z</time>
      </trkpt>
      <trkpt lat="49.32431" lon="0.98515">
        <ele>74</ele>
        <time>2019-01-10T09:55:29Z</time>
      </trkpt>
      <trkpt lat="49.32436" lon="0.98494">
        <ele>73</ele>
        <time>2019-01-10T09:55:35Z</time>
      </trkpt>
      <trkpt lat="49.32439" lon="0.98482">
        <ele>73</ele>
        <time>2019-01-10T09:55:38Z</time>
      </trkpt>
      <trkpt lat="49.32442" lon="0.98471">
        <ele>73</ele>
        <time>2019-01-10T09:55:41Z</time>
      </trkpt>
      <trkpt lat="49.32453" lon="0.98456">
        <ele>75</ele>
        <time>2019-01-10T09:55:48Z</time>
      </trkpt>
      <trkpt lat="49.32456" lon="0.98452">
        <ele>75</ele>
        <time>2019-01-10T09:55:50Z</time>
      </trkpt>
      <trkpt lat="49.32468" lon="0.98435">
        <ele>76</ele>
        <time>2019-01-10T09:55:56Z</time>
      </trkpt>
      <trkpt lat="49.32482" lon="0.98411">
        <ele>77</ele>
        <time>2019-01-10T09:56:02Z</time>
      </trkpt>
      <trkpt lat="49.32501" lon="0.98392">
        <ele>75</ele>
        <time>2019-01-10T09:56:07Z</time>
      </trkpt>
      <trkpt lat="49.32521" lon="0.98385">
        <ele>74</ele>
        <time>2019-01-10T09:56:12Z</time>
      </trkpt>
      <trkpt lat="49.32538" lon="0.98383">
        <ele>74</ele>
        <time>2019-01-10T09:56:18Z</time>
      </trkpt>
      <trkpt lat="49.3256" lon="0.98382">
        <ele>75</ele>
        <time>2019-01-10T09:56:26Z</time>
      </trkpt>
      <trkpt lat="49.32575" lon="0.98379">
        <ele>75</ele>
        <time>2019-01-10T09:56:32Z</time>
      </trkpt>
      <trkpt lat="49.32593" lon="0.98377">
        <ele>76</ele>
        <time>2019-01-10T09:56:38Z</time>
      </trkpt>
      <trkpt lat="49.32606" lon="0.98372">
        <ele>76</ele>
        <time>2019-01-10T09:56:43Z</time>
      </trkpt>
      <trkpt lat="49.32621" lon="0.98367">
        <ele>76</ele>
        <time>2019-01-10T09:56:49Z</time>
      </trkpt>
      <trkpt lat="49.32623" lon="0.98365">
        <ele>76</ele>
        <time>2019-01-10T09:56:50Z</time>
      </trkpt>
      <trkpt lat="49.3263" lon="0.98364">
        <ele>76</ele>
        <time>2019-01-10T09:56:53Z</time>
      </trkpt>
      <trkpt lat="49.32644" lon="0.98356">
        <ele>76</ele>
        <time>2019-01-10T09:56:58Z</time>
      </trkpt>
      <trkpt lat="49.32669" lon="0.98339">
        <ele>76</ele>
        <time>2019-01-10T09:57:06Z</time>
      </trkpt>
      <trkpt lat="49.32685" lon="0.98332">
        <ele>78</ele>
        <time>2019-01-10T09:57:12Z</time>
      </trkpt>
      <trkpt lat="49.3269" lon="0.98328">
        <ele>78</ele>
        <time>2019-01-10T09:57:14Z</time>
      </trkpt>
      <trkpt lat="49.32706" lon="0.98313">
        <ele>78</ele>
        <time>2019-01-10T09:57:18Z</time>
      </trkpt>
      <trkpt lat="49.32732" lon="0.98289">
        <ele>78</ele>
        <time>2019-01-10T09:57:25Z</time>
      </trkpt>
      <trkpt lat="49.32743" lon="0.98275">
        <ele>79</ele>
        <time>2019-01-10T09:57:31Z</time>
      </trkpt>
      <trkpt lat="49.32757" lon="0.98257">
        <ele>80</ele>
        <time>2019-01-10T09:57:37Z</time>
      </trkpt>
      <trkpt lat="49.32766" lon="0.98235">
        <ele>79</ele>
        <time>2019-01-10T09:57:43Z</time>
      </trkpt>
      <trkpt lat="49.32775" lon="0.98211">
        <ele>79</ele>
        <time>2019-01-10T09:57:48Z</time>
      </trkpt>
      <trkpt lat="49.32786" lon="0.98184">
        <ele>79</ele>
        <time>2019-01-10T09:57:54Z</time>
      </trkpt>
      <trkpt lat="49.328" lon="0.98167">
        <ele>80</ele>
        <time>2019-01-10T09:58:00Z</time>
      </trkpt>
      <trkpt lat="49.32804" lon="0.98165">
        <ele>80</ele>
        <time>2019-01-10T09:58:02Z</time>
      </trkpt>
      <trkpt lat="49.32817" lon="0.98152">
        <ele>81</ele>
        <time>2019-01-10T09:58:08Z</time>
      </trkpt>
      <trkpt lat="49.32822" lon="0.98147">
        <ele>81</ele>
        <time>2019-01-10T09:58:10Z</time>
      </trkpt>
      <trkpt lat="49.3284" lon="0.98125">
        <ele>82</ele>
        <time>2019-01-10T09:58:18Z</time>
      </trkpt>
      <trkpt lat="49.32844" lon="0.98118">
        <ele>81</ele>
        <time>2019-01-10T09:58:20Z</time>
      </trkpt>
      <trkpt lat="49.32854" lon="0.98118">
        <ele>80</ele>
        <time>2019-01-10T09:58:26Z</time>
      </trkpt>
      <trkpt lat="49.32855" lon="0.98125">
        <ele>81</ele>
        <time>2019-01-10T09:58:29Z</time>
      </trkpt>
      <trkpt lat="49.32854" lon="0.98138">
        <ele>82</ele>
        <time>2019-01-10T09:58:35Z</time>
      </trkpt>
      <trkpt lat="49.32853" lon="0.98162">
        <ele>85</ele>
        <time>2019-01-10T09:58:44Z</time>
      </trkpt>
      <trkpt lat="49.32854" lon="0.98188">
        <ele>88</ele>
        <time>2019-01-10T09:58:53Z</time>
      </trkpt>
      <trkpt lat="49.32852" lon="0.98207">
        <ele>91</ele>
        <time>2019-01-10T09:59:00Z</time>
      </trkpt>
      <trkpt lat="49.32848" lon="0.98227">
        <ele>94</ele>
        <time>2019-01-10T09:59:08Z</time>
      </trkpt>
      <trkpt lat="49.32847" lon="0.98232">
        <ele>95</ele>
        <time>2019-01-10T09:59:10Z</time>
      </trkpt>
      <trkpt lat="49.32849" lon="0.98242">
        <ele>96</ele>
        <time>2019-01-10T09:59:14Z</time>
      </trkpt>
      <trkpt lat="49.32852" lon="0.98269">
        <ele>98</ele>
        <time>2019-01-10T09:59:24Z</time>
      </trkpt>
      <trkpt lat="49.32853" lon="0.98289">
        <ele>99</ele>
        <time>2019-01-10T09:59:31Z</time>
      </trkpt>
      <trkpt lat="49.32857" lon="0.98313">
        <ele>100</ele>
        <time>2019-01-10T09:59:38Z</time>
      </trkpt>
      <trkpt lat="49.32862" lon="0.9833">
        <ele>101</ele>
        <time>2019-01-10T09:59:43Z</time>
      </trkpt>
      <trkpt lat="49.32866" lon="0.98364">
        <ele>104</ele>
        <time>2019-01-10T09:59:51Z</time>
      </trkpt>
      <trkpt lat="49.32865" lon="0.98372">
        <ele>104</ele>
        <time>2019-01-10T09:59:53Z</time>
      </trkpt>
      <trkpt lat="49.32859" lon="0.98396">
        <ele>107</ele>
        <time>2019-01-10T10:00:00Z</time>
      </trkpt>
      <trkpt lat="49.32855" lon="0.98414">
        <ele>108</ele>
        <time>2019-01-10T10:00:06Z</time>
      </trkpt>
      <trkpt lat="49.32853" lon="0.98436">
        <ele>109</ele>
        <time>2019-01-10T10:00:12Z</time>
      </trkpt>
      <trkpt lat="49.32852" lon="0.9846">
        <ele>111</ele>
        <time>2019-01-10T10:00:17Z</time>
      </trkpt>
      <trkpt lat="49.32849" lon="0.98477">
        <ele>112</ele>
        <time>2019-01-10T10:00:21Z</time>
      </trkpt>
      <trkpt lat="49.32848" lon="0.9849">
        <ele>113</ele>
        <time>2019-01-10T10:00:24Z</time>
      </trkpt>
      <trkpt lat="49.32849" lon="0.98495">
        <ele>113</ele>
        <time>2019-01-10T10:00:25Z</time>
      </trkpt>
      <trkpt lat="49.32849" lon="0.98499">
        <ele>113</ele>
        <time>2019-01-10T10:00:26Z</time>
      </trkpt>
      <trkpt lat="49.32855" lon="0.98532">
        <ele>115</ele>
        <time>2019-01-10T10:00:33Z</time>
      </trkpt>
      <trkpt lat="49.32862" lon="0.98562">
        <ele>116</ele>
        <time>2019-01-10T10:00:39Z</time>
      </trkpt>
      <trkpt lat="49.32877" lon="0.98615">
        <ele>117</ele>
        <time>2019-01-10T10:00:48Z</time>
      </trkpt>
      <trkpt lat="49.32889" lon="0.98647">
        <ele>118</ele>
        <time>2019-01-10T10:00:54Z</time>
      </trkpt>
      <trkpt lat="49.329" lon="0.98686">
        <ele>118</ele>
        <time>2019-01-10T10:01:01Z</time>
      </trkpt>
      <trkpt lat="49.32913" lon="0.98722">
        <ele>118</ele>
        <time>2019-01-10T10:01:08Z</time>
      </trkpt>
      <trkpt lat="49.32915" lon="0.98728">
        <ele>118</ele>
        <time>2019-01-10T10:01:09Z</time>
      </trkpt>
      <trkpt lat="49.32917" lon="0.98734">
        <ele>118</ele>
        <time>2019-01-10T10:01:10Z</time>
      </trkpt>
      <trkpt lat="49.32919" lon="0.9874">
        <ele>118</ele>
        <time>2019-01-10T10:01:11Z</time>
      </trkpt>
      <trkpt lat="49.32921" lon="0.98746">
        <ele>118</ele>
        <time>2019-01-10T10:01:12Z</time>
      </trkpt>
      <trkpt lat="49.32923" lon="0.98752">
        <ele>118</ele>
        <time>2019-01-10T10:01:13Z</time>
      </trkpt>
      <trkpt lat="49.3294" lon="0.98806">
        <ele>119</ele>
        <time>2019-01-10T10:01:22Z</time>
      </trkpt>
      <trkpt lat="49.32949" lon="0.98818">
        <ele>118</ele>
        <time>2019-01-10T10:01:25Z</time>
      </trkpt>
      <trkpt lat="49.32952" lon="0.98819">
        <ele>118</ele>
        <time>2019-01-10T10:01:26Z</time>
      </trkpt>
      <trkpt lat="49.32956" lon="0.98818">
        <ele>118</ele>
        <time>2019-01-10T10:01:27Z</time>
      </trkpt>
      <trkpt lat="49.32964" lon="0.98815">
        <ele>118</ele>
        <time>2019-01-10T10:01:29Z</time>
      </trkpt>
      <trkpt lat="49.32968" lon="0.98813">
        <ele>118</ele>
        <time>2019-01-10T10:01:30Z</time>
      </trkpt>
      <trkpt lat="49.32972" lon="0.98811">
        <ele>117</ele>
        <time>2019-01-10T10:01:31Z</time>
      </trkpt>
      <trkpt lat="49.32976" lon="0.98809">
        <ele>117</ele>
        <time>2019-01-10T10:01:32Z</time>
      </trkpt>
      <trkpt lat="49.32981" lon="0.98806">
        <ele>117</ele>
        <time>2019-01-10T10:01:33Z</time>
      </trkpt>
      <trkpt lat="49.33018" lon="0.98781">
        <ele>113</ele>
        <time>2019-01-10T10:01:41Z</time>
      </trkpt>
      <trkpt lat="49.33043" lon="0.98761">
        <ele>109</ele>
        <time>2019-01-10T10:01:47Z</time>
      </trkpt>
      <trkpt lat="49.33047" lon="0.98757">
        <ele>108</ele>
        <time>2019-01-10T10:01:48Z</time>
      </trkpt>
      <trkpt lat="49.3305" lon="0.98754">
        <ele>107</ele>
        <time>2019-01-10T10:01:49Z</time>
      </trkpt>
      <trkpt lat="49.33055" lon="0.98751">
        <ele>107</ele>
        <time>2019-01-10T10:01:50Z</time>
      </trkpt>
      <trkpt lat="49.3306" lon="0.98747">
        <ele>106</ele>
        <time>2019-01-10T10:01:51Z</time>
      </trkpt>
      <trkpt lat="49.33065" lon="0.98744">
        <ele>104</ele>
        <time>2019-01-10T10:01:52Z</time>
      </trkpt>
      <trkpt lat="49.33077" lon="0.98727">
        <ele>103</ele>
        <time>2019-01-10T10:01:56Z</time>
      </trkpt>
      <trkpt lat="49.33078" lon="0.98714">
        <ele>103</ele>
        <time>2019-01-10T10:01:59Z</time>
      </trkpt>
      <trkpt lat="49.33079" lon="0.98696">
        <ele>102</ele>
        <time>2019-01-10T10:02:03Z</time>
      </trkpt>
      <trkpt lat="49.33083" lon="0.98677">
        <ele>103</ele>
        <time>2019-01-10T10:02:08Z</time>
      </trkpt>
      <trkpt lat="49.33079" lon="0.9865">
        <ele>102</ele>
        <time>2019-01-10T10:02:14Z</time>
      </trkpt>
      <trkpt lat="49.33078" lon="0.98619">
        <ele>102</ele>
        <time>2019-01-10T10:02:19Z</time>
      </trkpt>
      <trkpt lat="49.33083" lon="0.9858">
        <ele>103</ele>
        <time>2019-01-10T10:02:25Z</time>
      </trkpt>
      <trkpt lat="49.33088" lon="0.98552">
        <ele>104</ele>
        <time>2019-01-10T10:02:30Z</time>
      </trkpt>
      <trkpt lat="49.33088" lon="0.98546">
        <ele>105</ele>
        <time>2019-01-10T10:02:31Z</time>
      </trkpt>
      <trkpt lat="49.33094" lon="0.98518">
        <ele>106</ele>
        <time>2019-01-10T10:02:36Z</time>
      </trkpt>
      <trkpt lat="49.33095" lon="0.98508">
        <ele>107</ele>
        <time>2019-01-10T10:02:38Z</time>
      </trkpt>
      <trkpt lat="49.33101" lon="0.98493">
        <ele>109</ele>
        <time>2019-01-10T10:02:42Z</time>
      </trkpt>
      <trkpt lat="49.33103" lon="0.98464">
        <ele>109</ele>
        <time>2019-01-10T10:02:48Z</time>
      </trkpt>
      <trkpt lat="49.33096" lon="0.98447">
        <ele>108</ele>
        <time>2019-01-10T10:02:52Z</time>
      </trkpt>
      <trkpt lat="49.33095" lon="0.98438">
        <ele>108</ele>
        <time>2019-01-10T10:02:54Z</time>
      </trkpt>
      <trkpt lat="49.331" lon="0.98411">
        <ele>109</ele>
        <time>2019-01-10T10:03:00Z</time>
      </trkpt>
      <trkpt lat="49.33096" lon="0.98389">
        <ele>109</ele>
        <time>2019-01-10T10:03:05Z</time>
      </trkpt>
      <trkpt lat="49.33102" lon="0.98379">
        <ele>110</ele>
        <time>2019-01-10T10:03:09Z</time>
      </trkpt>
      <trkpt lat="49.33103" lon="0.98364">
        <ele>111</ele>
        <time>2019-01-10T10:03:13Z</time>
      </trkpt>
      <trkpt lat="49.33102" lon="0.98359">
        <ele>110</ele>
        <time>2019-01-10T10:03:14Z</time>
      </trkpt>
      <trkpt lat="49.33096" lon="0.98339">
        <ele>109</ele>
        <time>2019-01-10T10:03:18Z</time>
      </trkpt>
      <trkpt lat="49.33094" lon="0.98319">
        <ele>109</ele>
        <time>2019-01-10T10:03:23Z</time>
      </trkpt>
      <trkpt lat="49.33095" lon="0.98291">
        <ele>108</ele>
        <time>2019-01-10T10:03:29Z</time>
      </trkpt>
      <trkpt lat="49.33099" lon="0.9826">
        <ele>108</ele>
        <time>2019-01-10T10:03:34Z</time>
      </trkpt>
      <trkpt lat="49.33099" lon="0.98223">
        <ele>106</ele>
        <time>2019-01-10T10:03:39Z</time>
      </trkpt>
      <trkpt lat="49.33096" lon="0.98183">
        <ele>103</ele>
        <time>2019-01-10T10:03:44Z</time>
      </trkpt>
      <trkpt lat="49.33106" lon="0.98151">
        <ele>101</ele>
        <time>2019-01-10T10:03:49Z</time>
      </trkpt>
      <trkpt lat="49.33111" lon="0.98127">
        <ele>99</ele>
        <time>2019-01-10T10:03:52Z</time>
      </trkpt>
      <trkpt lat="49.33112" lon="0.98113">
        <ele>97</ele>
        <time>2019-01-10T10:03:54Z</time>
      </trkpt>
      <trkpt lat="49.33117" lon="0.98079">
        <ele>92</ele>
        <time>2019-01-10T10:03:59Z</time>
      </trkpt>
      <trkpt lat="49.33113" lon="0.98042">
        <ele>86</ele>
        <time>2019-01-10T10:04:04Z</time>
      </trkpt>
      <trkpt lat="49.33113" lon="0.98012">
        <ele>82</ele>
        <time>2019-01-10T10:04:08Z</time>
      </trkpt>
      <trkpt lat="49.33113" lon="0.97991">
        <ele>80</ele>
        <time>2019-01-10T10:04:13Z</time>
      </trkpt>
      <trkpt lat="49.33116" lon="0.97985">
        <ele>79</ele>
        <time>2019-01-10T10:04:15Z</time>
      </trkpt>
      <trkpt lat="49.3313" lon="0.97974">
        <ele>77</ele>
        <time>2019-01-10T10:04:22Z</time>
      </trkpt>
      <trkpt lat="49.33134" lon="0.97974">
        <ele>77</ele>
        <time>2019-01-10T10:04:24Z</time>
      </trkpt>
      <trkpt lat="49.33135" lon="0.97976">
        <ele>77</ele>
        <time>2019-01-10T10:04:25Z</time>
      </trkpt>
      <trkpt lat="49.33144" lon="0.97997">
        <ele>79</ele>
        <time>2019-01-10T10:04:34Z</time>
      </trkpt>
      <trkpt lat="49.33153" lon="0.98018">
        <ele>81</ele>
        <time>2019-01-10T10:04:41Z</time>
      </trkpt>
      <trkpt lat="49.33162" lon="0.98042">
        <ele>83</ele>
        <time>2019-01-10T10:04:49Z</time>
      </trkpt>
      <trkpt lat="49.3317" lon="0.98068">
        <ele>85</ele>
        <time>2019-01-10T10:04:57Z</time>
      </trkpt>
      <trkpt lat="49.33174" lon="0.98079">
        <ele>86</ele>
        <time>2019-01-10T10:05:02Z</time>
      </trkpt>
      <trkpt lat="49.33182" lon="0.98078">
        <ele>85</ele>
        <time>2019-01-10T10:05:06Z</time>
      </trkpt>
      <trkpt lat="49.33203" lon="0.98084">
        <ele>82</ele>
        <time>2019-01-10T10:05:13Z</time>
      </trkpt>
      <trkpt lat="49.33213" lon="0.98093">
        <ele>82</ele>
        <time>2019-01-10T10:05:17Z</time>
      </trkpt>
      <trkpt lat="49.33219" lon="0.98104">
        <ele>82</ele>
        <time>2019-01-10T10:05:21Z</time>
      </trkpt>
      <trkpt lat="49.33226" lon="0.98121">
        <ele>82</ele>
        <time>2019-01-10T10:05:28Z</time>
      </trkpt>
      <trkpt lat="49.33241" lon="0.98144">
        <ele>82</ele>
        <time>2019-01-10T10:05:34Z</time>
      </trkpt>
      <trkpt lat="49.33251" lon="0.98165">
        <ele>82</ele>
        <time>2019-01-10T10:05:39Z</time>
      </trkpt>
      <trkpt lat="49.3327" lon="0.98192">
        <ele>80</ele>
        <time>2019-01-10T10:05:45Z</time>
      </trkpt>
      <trkpt lat="49.3328" lon="0.98215">
        <ele>79</ele>
        <time>2019-01-10T10:05:50Z</time>
      </trkpt>
      <trkpt lat="49.33291" lon="0.98242">
        <ele>79</ele>
        <time>2019-01-10T10:05:57Z</time>
      </trkpt>
      <trkpt lat="49.33306" lon="0.98262">
        <ele>80</ele>
        <time>2019-01-10T10:06:03Z</time>
      </trkpt>
      <trkpt lat="49.33324" lon="0.98273">
        <ele>79</ele>
        <time>2019-01-10T10:06:09Z</time>
      </trkpt>
      <trkpt lat="49.33348" lon="0.98279">
        <ele>79</ele>
        <time>2019-01-10T10:06:15Z</time>
      </trkpt>
      <trkpt lat="49.33358" lon="0.98281">
        <ele>79</ele>
        <time>2019-01-10T10:06:17Z</time>
      </trkpt>
      <trkpt lat="49.33363" lon="0.9827">
        <ele>79</ele>
        <time>2019-01-10T10:06:18Z</time>
      </trkpt>
      <trkpt lat="49.33365" lon="0.98261">
        <ele>78</ele>
        <time>2019-01-10T10:06:21Z</time>
      </trkpt>
      <trkpt lat="49.33347" lon="0.98259">
        <ele>77</ele>
        <time>2019-01-10T10:06:34Z</time>
      </trkpt>
      <trkpt lat="49.33345" lon="0.9826">
        <ele>77</ele>
        <time>2019-01-10T10:06:35Z</time>
      </trkpt>
      <trkpt lat="49.33344" lon="0.9826">
        <ele>77</ele>
        <time>2019-01-10T10:06:36Z</time>
      </trkpt>
      <trkpt lat="49.33343" lon="0.98259">
        <ele>76</ele>
        <time>2019-01-10T10:06:37Z</time>
      </trkpt>
      <trkpt lat="49.33342" lon="0.98257">
        <ele>76</ele>
        <time>2019-01-10T10:06:38Z</time>
      </trkpt>
      <trkpt lat="49.33343" lon="0.98252">
        <ele>76</ele>
        <time>2019-01-10T10:06:40Z</time>
      </trkpt>
      <trkpt lat="49.33346" lon="0.98239">
        <ele>74</ele>
        <time>2019-01-10T10:06:43Z</time>
      </trkpt>
      <trkpt lat="49.33341" lon="0.9823">
        <ele>74</ele>
        <time>2019-01-10T10:06:49Z</time>
      </trkpt>
      <trkpt lat="49.33346" lon="0.9822">
        <ele>74</ele>
        <time>2019-01-10T10:06:54Z</time>
      </trkpt>
      <trkpt lat="49.33343" lon="0.98199">
        <ele>73</ele>
        <time>2019-01-10T10:06:58Z</time>
      </trkpt>
      <trkpt lat="49.33342" lon="0.98188">
        <ele>72</ele>
        <time>2019-01-10T10:07:00Z</time>
      </trkpt>
      <trkpt lat="49.33339" lon="0.98155">
        <ele>70</ele>
        <time>2019-01-10T10:07:05Z</time>
      </trkpt>
      <trkpt lat="49.3333" lon="0.98106">
        <ele>65</ele>
        <time>2019-01-10T10:07:11Z</time>
      </trkpt>
      <trkpt lat="49.33328" lon="0.981">
        <ele>65</ele>
        <time>2019-01-10T10:07:14Z</time>
      </trkpt>
      <trkpt lat="49.33328" lon="0.98073">
        <ele>64</ele>
        <time>2019-01-10T10:07:20Z</time>
      </trkpt>
      <trkpt lat="49.33323" lon="0.98038">
        <ele>62</ele>
        <time>2019-01-10T10:07:26Z</time>
      </trkpt>
      <trkpt lat="49.3332" lon="0.98019">
        <ele>61</ele>
        <time>2019-01-10T10:07:29Z</time>
      </trkpt>
      <trkpt lat="49.33319" lon="0.98003">
        <ele>60</ele>
        <time>2019-01-10T10:07:31Z</time>
      </trkpt>
      <trkpt lat="49.33318" lon="0.97967">
        <ele>58</ele>
        <time>2019-01-10T10:07:35Z</time>
      </trkpt>
      <trkpt lat="49.33321" lon="0.97939">
        <ele>56</ele>
        <time>2019-01-10T10:07:38Z</time>
      </trkpt>
      <trkpt lat="49.33315" lon="0.97899">
        <ele>53</ele>
        <time>2019-01-10T10:07:43Z</time>
      </trkpt>
      <trkpt lat="49.33313" lon="0.97892">
        <ele>53</ele>
        <time>2019-01-10T10:07:44Z</time>
      </trkpt>
      <trkpt lat="49.33305" lon="0.97847">
        <ele>49</ele>
        <time>2019-01-10T10:07:49Z</time>
      </trkpt>
      <trkpt lat="49.33295" lon="0.978">
        <ele>45</ele>
        <time>2019-01-10T10:07:54Z</time>
      </trkpt>
      <trkpt lat="49.33281" lon="0.97761">
        <ele>42</ele>
        <time>2019-01-10T10:07:59Z</time>
      </trkpt>
      <trkpt lat="49.33258" lon="0.9772">
        <ele>41</ele>
        <time>2019-01-10T10:08:04Z</time>
      </trkpt>
      <trkpt lat="49.3322" lon="0.97659">
        <ele>39</ele>
        <time>2019-01-10T10:08:11Z</time>
      </trkpt>
      <trkpt lat="49.33192" lon="0.9762">
        <ele>37</ele>
        <time>2019-01-10T10:08:16Z</time>
      </trkpt>
      <trkpt lat="49.3317" lon="0.97586">
        <ele>35</ele>
        <time>2019-01-10T10:08:22Z</time>
      </trkpt>
      <trkpt lat="49.33156" lon="0.97568">
        <ele>34</ele>
        <time>2019-01-10T10:08:25Z</time>
      </trkpt>
      <trkpt lat="49.33134" lon="0.97546">
        <ele>32</ele>
        <time>2019-01-10T10:08:29Z</time>
      </trkpt>
      <trkpt lat="49.33098" lon="0.97516">
        <ele>30</ele>
        <time>2019-01-10T10:08:35Z</time>
      </trkpt>
      <trkpt lat="49.33083" lon="0.97487">
        <ele>29</ele>
        <time>2019-01-10T10:08:40Z</time>
      </trkpt>
      <trkpt lat="49.33063" lon="0.97489">
        <ele>28</ele>
      </trkpt>
      <trkpt lat="49.33054" lon="0.9747">
        <ele>28</ele>
        <time>2019-01-10T10:14:31Z</time>
      </trkpt>
      <trkpt lat="49.33054" lon="0.97467">
        <ele>28</ele>
        <time>2019-01-10T10:14:32Z</time>
      </trkpt>
      <trkpt lat="49.33054" lon="0.97463">
        <ele>28</ele>
        <time>2019-01-10T10:14:33Z</time>
      </trkpt>
      <trkpt lat="49.33046" lon="0.97449">
        <ele>28</ele>
        <time>2019-01-10T10:14:36Z</time>
      </trkpt>
      <trkpt lat="49.3304" lon="0.9744">
        <ele>28</ele>
        <time>2019-01-10T10:14:38Z</time>
      </trkpt>
      <trkpt lat="49.33036" lon="0.97436">
        <ele>28</ele>
        <time>2019-01-10T10:14:39Z</time>
      </trkpt>
      <trkpt lat="49.33032" lon="0.97433">
        <ele>28</ele>
        <time>2019-01-10T10:14:40Z</time>
      </trkpt>
      <trkpt lat="49.33014" lon="0.97422">
        <ele>27</ele>
        <time>2019-01-10T10:14:44Z</time>
      </trkpt>
      <trkpt lat="49.32983" lon="0.97411">
        <ele>26</ele>
        <time>2019-01-10T10:14:50Z</time>
      </trkpt>
      <trkpt lat="49.32966" lon="0.97404">
        <ele>26</ele>
        <time>2019-01-10T10:14:54Z</time>
      </trkpt>
      <trkpt lat="49.32928" lon="0.97392">
        <ele>25</ele>
        <time>2019-01-10T10:15:02Z</time>
      </trkpt>
      <trkpt lat="49.32893" lon="0.97382">
        <ele>26</ele>
        <time>2019-01-10T10:15:09Z</time>
      </trkpt>
      <trkpt lat="49.32872" lon="0.97377">
        <ele>27</ele>
        <time>2019-01-10T10:15:13Z</time>
      </trkpt>
      <trkpt lat="49.32817" lon="0.97362">
        <ele>27</ele>
        <time>2019-01-10T10:15:23Z</time>
      </trkpt>
      <trkpt lat="49.32812" lon="0.9736">
        <ele>27</ele>
        <time>2019-01-10T10:15:24Z</time>
      </trkpt>
      <trkpt lat="49.32808" lon="0.97358">
        <ele>27</ele>
        <time>2019-01-10T10:15:25Z</time>
      </trkpt>
      <trkpt lat="49.32767" lon="0.97353">
        <ele>26</ele>
        <time>2019-01-10T10:15:33Z</time>
      </trkpt>
      <trkpt lat="49.32762" lon="0.97355">
        <ele>26</ele>
        <time>2019-01-10T10:15:34Z</time>
      </trkpt>
      <trkpt lat="49.32758" lon="0.97357">
        <ele>26</ele>
        <time>2019-01-10T10:15:35Z</time>
      </trkpt>
      <trkpt lat="49.32754" lon="0.9736">
        <ele>26</ele>
        <time>2019-01-10T10:15:36Z</time>
      </trkpt>
      <trkpt lat="49.3275" lon="0.97365">
        <ele>26</ele>
        <time>2019-01-10T10:15:37Z</time>
      </trkpt>
      <trkpt lat="49.32746" lon="0.97369">
        <ele>26</ele>
        <time>2019-01-10T10:15:38Z</time>
      </trkpt>
      <trkpt lat="49.32734" lon="0.97383">
        <ele>27</ele>
        <time>2019-01-10T10:15:41Z</time>
      </trkpt>
      <trkpt lat="49.32731" lon="0.97388">
        <ele>27</ele>
        <time>2019-01-10T10:15:42Z</time>
      </trkpt>
      <trkpt lat="49.32721" lon="0.97405">
        <ele>27</ele>
        <time>2019-01-10T10:15:45Z</time>
      </trkpt>
      <trkpt lat="49.32719" lon="0.9741">
        <ele>27</ele>
        <time>2019-01-10T10:15:46Z</time>
      </trkpt>
      <trkpt lat="49.32717" lon="0.97416">
        <ele>27</ele>
        <time>2019-01-10T10:15:47Z</time>
      </trkpt>
      <trkpt lat="49.32712" lon="0.9743">
        <ele>26</ele>
        <time>2019-01-10T10:15:49Z</time>
      </trkpt>
      <trkpt lat="49.32709" lon="0.97443">
        <ele>26</ele>
        <time>2019-01-10T10:15:51Z</time>
      </trkpt>
      <trkpt lat="49.32704" lon="0.97457">
        <ele>25</ele>
        <time>2019-01-10T10:15:53Z</time>
      </trkpt>
      <trkpt lat="49.32702" lon="0.97465">
        <ele>25</ele>
        <time>2019-01-10T10:15:54Z</time>
      </trkpt>
      <trkpt lat="49.32696" lon="0.97496">
        <ele>23</ele>
        <time>2019-01-10T10:15:58Z</time>
      </trkpt>
      <trkpt lat="49.32691" lon="0.97551">
        <ele>22</ele>
        <time>2019-01-10T10:16:04Z</time>
      </trkpt>
      <trkpt lat="49.32691" lon="0.97558">
        <ele>22</ele>
        <time>2019-01-10T10:16:05Z</time>
      </trkpt>
      <trkpt lat="49.32691" lon="0.97566">
        <ele>22</ele>
        <time>2019-01-10T10:16:06Z</time>
      </trkpt>
      <trkpt lat="49.32696" lon="0.97614">
        <ele>21</ele>
        <time>2019-01-10T10:16:12Z</time>
      </trkpt>
      <trkpt lat="49.32701" lon="0.97638">
        <ele>22</ele>
        <time>2019-01-10T10:16:15Z</time>
      </trkpt>
      <trkpt lat="49.32703" lon="0.97646">
        <ele>23</ele>
        <time>2019-01-10T10:16:16Z</time>
      </trkpt>
      <trkpt lat="49.32705" lon="0.97655">
        <ele>23</ele>
        <time>2019-01-10T10:16:17Z</time>
      </trkpt>
      <trkpt lat="49.32712" lon="0.97704">
        <ele>24</ele>
        <time>2019-01-10T10:16:23Z</time>
      </trkpt>
      <trkpt lat="49.32714" lon="0.97726">
        <ele>24</ele>
        <time>2019-01-10T10:16:26Z</time>
      </trkpt>
      <trkpt lat="49.32713" lon="0.9773">
        <ele>24</ele>
        <time>2019-01-10T10:16:27Z</time>
      </trkpt>
      <trkpt lat="49.3271" lon="0.97735">
        <ele>23</ele>
        <time>2019-01-10T10:16:28Z</time>
      </trkpt>
      <trkpt lat="49.32708" lon="0.97741">
        <ele>23</ele>
        <time>2019-01-10T10:16:29Z</time>
      </trkpt>
      <trkpt lat="49.32705" lon="0.97746">
        <ele>22</ele>
        <time>2019-01-10T10:16:30Z</time>
      </trkpt>
      <trkpt lat="49.32695" lon="0.9777">
        <ele>21</ele>
        <time>2019-01-10T10:16:35Z</time>
      </trkpt>
      <trkpt lat="49.32692" lon="0.97773">
        <ele>21</ele>
        <time>2019-01-10T10:16:36Z</time>
      </trkpt>
      <trkpt lat="49.32689" lon="0.97775">
        <ele>21</ele>
        <time>2019-01-10T10:16:37Z</time>
      </trkpt>
      <trkpt lat="49.32686" lon="0.97776">
        <ele>21</ele>
        <time>2019-01-10T10:16:38Z</time>
      </trkpt>
      <trkpt lat="49.32682" lon="0.97777">
        <ele>21</ele>
        <time>2019-01-10T10:16:39Z</time>
      </trkpt>
      <trkpt lat="49.32665" lon="0.97786">
        <ele>22</ele>
        <time>2019-01-10T10:16:44Z</time>
      </trkpt>
      <trkpt lat="49.32651" lon="0.97788">
        <ele>22</ele>
        <time>2019-01-10T10:16:49Z</time>
      </trkpt>
      <trkpt lat="49.32633" lon="0.97784">
        <ele>24</ele>
        <time>2019-01-10T10:16:54Z</time>
      </trkpt>
      <trkpt lat="49.32609" lon="0.97778">
        <ele>26</ele>
        <time>2019-01-10T10:17:00Z</time>
      </trkpt>
      <trkpt lat="49.32579" lon="0.97771">
        <ele>28</ele>
        <time>2019-01-10T10:17:08Z</time>
      </trkpt>
      <trkpt lat="49.32565" lon="0.97767">
        <ele>29</ele>
        <time>2019-01-10T10:17:12Z</time>
      </trkpt>
      <trkpt lat="49.32538" lon="0.97762">
        <ele>31</ele>
        <time>2019-01-10T10:17:19Z</time>
      </trkpt>
      <trkpt lat="49.32521" lon="0.97756">
        <ele>32</ele>
        <time>2019-01-10T10:17:25Z</time>
      </trkpt>
      <trkpt lat="49.32508" lon="0.97751">
        <ele>34</ele>
        <time>2019-01-10T10:17:31Z</time>
      </trkpt>
      <trkpt lat="49.32492" lon="0.97746">
        <ele>37</ele>
        <time>2019-01-10T10:17:37Z</time>
      </trkpt>
      <trkpt lat="49.3248" lon="0.97742">
        <ele>39</ele>
        <time>2019-01-10T10:17:42Z</time>
      </trkpt>
      <trkpt lat="49.32465" lon="0.97737">
        <ele>42</ele>
        <time>2019-01-10T10:17:48Z</time>
      </trkpt>
      <trkpt lat="49.3245" lon="0.97733">
        <ele>44</ele>
        <time>2019-01-10T10:17:55Z</time>
      </trkpt>
      <trkpt lat="49.32434" lon="0.9773">
        <ele>48</ele>
        <time>2019-01-10T10:18:02Z</time>
      </trkpt>
      <trkpt lat="49.32422" lon="0.97727">
        <ele>50</ele>
        <time>2019-01-10T10:18:08Z</time>
      </trkpt>
      <trkpt lat="49.3242" lon="0.97727">
        <ele>50</ele>
        <time>2019-01-10T10:18:09Z</time>
      </trkpt>
      <trkpt lat="49.32413" lon="0.97718">
        <ele>52</ele>
        <time>2019-01-10T10:18:14Z</time>
      </trkpt>
      <trkpt lat="49.32406" lon="0.9771">
        <ele>52</ele>
        <time>2019-01-10T10:18:18Z</time>
      </trkpt>
      <trkpt lat="49.32403" lon="0.97684">
        <ele>50</ele>
        <time>2019-01-10T10:18:25Z</time>
      </trkpt>
      <trkpt lat="49.32401" lon="0.97676">
        <ele>50</ele>
        <time>2019-01-10T10:18:27Z</time>
      </trkpt>
      <trkpt lat="49.32391" lon="0.97648">
        <ele>50</ele>
        <time>2019-01-10T10:18:33Z</time>
      </trkpt>
      <trkpt lat="49.32378" lon="0.97636">
        <ele>51</ele>
        <time>2019-01-10T10:18:38Z</time>
      </trkpt>
      <trkpt lat="49.32369" lon="0.97621">
        <ele>50</ele>
        <time>2019-01-10T10:18:45Z</time>
      </trkpt>
      <trkpt lat="49.32364" lon="0.97609">
        <ele>49</ele>
        <time>2019-01-10T10:18:52Z</time>
      </trkpt>
      <trkpt lat="49.32364" lon="0.97602">
        <ele>48</ele>
        <time>2019-01-10T10:19:00Z</time>
      </trkpt>
      <trkpt lat="49.32364" lon="0.976">
        <ele>48</ele>
        <time>2019-01-10T10:19:07Z</time>
      </trkpt>
      <trkpt lat="49.32368" lon="0.97593">
        <ele>46</ele>
        <time>2019-01-10T10:19:13Z</time>
      </trkpt>
      <trkpt lat="49.32377" lon="0.97575">
        <ele>41</ele>
        <time>2019-01-10T10:19:18Z</time>
      </trkpt>
      <trkpt lat="49.32392" lon="0.97548">
        <ele>35</ele>
        <time>2019-01-10T10:19:25Z</time>
      </trkpt>
      <trkpt lat="49.32404" lon="0.97525">
        <ele>33</ele>
        <time>2019-01-10T10:19:31Z</time>
      </trkpt>
      <trkpt lat="49.32419" lon="0.97501">
        <ele>35</ele>
        <time>2019-01-10T10:19:38Z</time>
      </trkpt>
      <trkpt lat="49.32435" lon="0.97473">
        <ele>42</ele>
        <time>2019-01-10T10:19:45Z</time>
      </trkpt>
      <trkpt lat="49.32456" lon="0.97436">
        <ele>50</ele>
        <time>2019-01-10T10:19:54Z</time>
      </trkpt>
      <trkpt lat="49.32459" lon="0.97427">
        <ele>52</ele>
        <time>2019-01-10T10:19:56Z</time>
      </trkpt>
      <trkpt lat="49.32458" lon="0.97421">
        <ele>53</ele>
        <time>2019-01-10T10:19:58Z</time>
      </trkpt>
      <trkpt lat="49.32454" lon="0.97417">
        <ele>53</ele>
        <time>2019-01-10T10:19:59Z</time>
      </trkpt>
      <trkpt lat="49.32451" lon="0.97416">
        <ele>53</ele>
        <time>2019-01-10T10:20:00Z</time>
      </trkpt>
      <trkpt lat="49.32429" lon="0.97406">
        <ele>52</ele>
        <time>2019-01-10T10:20:06Z</time>
      </trkpt>
      <trkpt lat="49.32425" lon="0.97403">
        <ele>52</ele>
        <time>2019-01-10T10:20:07Z</time>
      </trkpt>
      <trkpt lat="49.32421" lon="0.974">
        <ele>52</ele>
        <time>2019-01-10T10:20:08Z</time>
      </trkpt>
      <trkpt lat="49.32418" lon="0.97396">
        <ele>52</ele>
        <time>2019-01-10T10:20:09Z</time>
      </trkpt>
      <trkpt lat="49.32415" lon="0.97392">
        <ele>52</ele>
        <time>2019-01-10T10:20:10Z</time>
      </trkpt>
      <trkpt lat="49.32413" lon="0.97388">
        <ele>52</ele>
        <time>2019-01-10T10:20:11Z</time>
      </trkpt>
      <trkpt lat="49.32411" lon="0.97384">
        <ele>52</ele>
        <time>2019-01-10T10:20:12Z</time>
      </trkpt>
      <trkpt lat="49.32409" lon="0.9738">
        <ele>52</ele>
        <time>2019-01-10T10:20:13Z</time>
      </trkpt>
      <trkpt lat="49.32397" lon="0.97366">
        <ele>53</ele>
        <time>2019-01-10T10:20:18Z</time>
      </trkpt>
      <trkpt lat="49.3238" lon="0.97346">
        <ele>53</ele>
        <time>2019-01-10T10:20:25Z</time>
      </trkpt>
      <trkpt lat="49.32365" lon="0.97331">
        <ele>54</ele>
        <time>2019-01-10T10:20:31Z</time>
      </trkpt>
      <trkpt lat="49.32353" lon="0.97316">
        <ele>54</ele>
        <time>2019-01-10T10:20:36Z</time>
      </trkpt>
      <trkpt lat="49.32335" lon="0.97296">
        <ele>54</ele>
        <time>2019-01-10T10:20:43Z</time>
      </trkpt>
      <trkpt lat="49.32318" lon="0.97275">
        <ele>58</ele>
        <time>2019-01-10T10:20:49Z</time>
      </trkpt>
      <trkpt lat="49.323" lon="0.97255">
        <ele>60</ele>
        <time>2019-01-10T10:20:56Z</time>
      </trkpt>
      <trkpt lat="49.32283" lon="0.97237">
        <ele>62</ele>
        <time>2019-01-10T10:21:03Z</time>
      </trkpt>
      <trkpt lat="49.32264" lon="0.97223">
        <ele>63</ele>
        <time>2019-01-10T10:21:10Z</time>
      </trkpt>
      <trkpt lat="49.32238" lon="0.97211">
        <ele>62</ele>
        <time>2019-01-10T10:21:19Z</time>
      </trkpt>
      <trkpt lat="49.32222" lon="0.97191">
        <ele>64</ele>
        <time>2019-01-10T10:21:25Z</time>
      </trkpt>
      <trkpt lat="49.3222" lon="0.97163">
        <ele>70</ele>
        <time>2019-01-10T10:21:31Z</time>
      </trkpt>
      <trkpt lat="49.32222" lon="0.97124">
        <ele>73</ele>
        <time>2019-01-10T10:21:39Z</time>
      </trkpt>
      <trkpt lat="49.32227" lon="0.97099">
        <ele>75</ele>
        <time>2019-01-10T10:21:45Z</time>
      </trkpt>
      <trkpt lat="49.32236" lon="0.9707">
        <ele>76</ele>
        <time>2019-01-10T10:21:51Z</time>
      </trkpt>
      <trkpt lat="49.32247" lon="0.97043">
        <ele>78</ele>
        <time>2019-01-10T10:21:57Z</time>
      </trkpt>
      <trkpt lat="49.32262" lon="0.97007">
        <ele>80</ele>
        <time>2019-01-10T10:22:06Z</time>
      </trkpt>
      <trkpt lat="49.32275" lon="0.96978">
        <ele>82</ele>
        <time>2019-01-10T10:22:14Z</time>
      </trkpt>
      <trkpt lat="49.32285" lon="0.96958">
        <ele>85</ele>
        <time>2019-01-10T10:22:20Z</time>
      </trkpt>
      <trkpt lat="49.32293" lon="0.96939">
        <ele>85</ele>
        <time>2019-01-10T10:22:25Z</time>
      </trkpt>
      <trkpt lat="49.32302" lon="0.96917">
        <ele>87</ele>
        <time>2019-01-10T10:22:31Z</time>
      </trkpt>
      <trkpt lat="49.3231" lon="0.96894">
        <ele>88</ele>
        <time>2019-01-10T10:22:37Z</time>
      </trkpt>
      <trkpt lat="49.32319" lon="0.96867">
        <ele>90</ele>
        <time>2019-01-10T10:22:44Z</time>
      </trkpt>
      <trkpt lat="49.32326" lon="0.96842">
        <ele>92</ele>
        <time>2019-01-10T10:22:51Z</time>
      </trkpt>
      <trkpt lat="49.32331" lon="0.96819">
        <ele>92</ele>
        <time>2019-01-10T10:22:57Z</time>
      </trkpt>
      <trkpt lat="49.3234" lon="0.96796">
        <ele>94</ele>
        <time>2019-01-10T10:23:03Z</time>
      </trkpt>
      <trkpt lat="49.32353" lon="0.96769">
        <ele>96</ele>
        <time>2019-01-10T10:23:10Z</time>
      </trkpt>
      <trkpt lat="49.32355" lon="0.96759">
        <ele>96</ele>
        <time>2019-01-10T10:23:12Z</time>
      </trkpt>
      <trkpt lat="49.32355" lon="0.96752">
        <ele>96</ele>
        <time>2019-01-10T10:23:13Z</time>
      </trkpt>
      <trkpt lat="49.32353" lon="0.96719">
        <ele>96</ele>
        <time>2019-01-10T10:23:18Z</time>
      </trkpt>
      <trkpt lat="49.32343" lon="0.96661">
        <ele>96</ele>
        <time>2019-01-10T10:23:25Z</time>
      </trkpt>
      <trkpt lat="49.32342" lon="0.96653">
        <ele>97</ele>
        <time>2019-01-10T10:23:26Z</time>
      </trkpt>
      <trkpt lat="49.32341" lon="0.96645">
        <ele>97</ele>
        <time>2019-01-10T10:23:27Z</time>
      </trkpt>
      <trkpt lat="49.32339" lon="0.96637">
        <ele>97</ele>
        <time>2019-01-10T10:23:28Z</time>
      </trkpt>
      <trkpt lat="49.32337" lon="0.96629">
        <ele>98</ele>
        <time>2019-01-10T10:23:29Z</time>
      </trkpt>
      <trkpt lat="49.32335" lon="0.96621">
        <ele>98</ele>
        <time>2019-01-10T10:23:30Z</time>
      </trkpt>
      <trkpt lat="49.32333" lon="0.96613">
        <ele>98</ele>
        <time>2019-01-10T10:23:31Z</time>
      </trkpt>
      <trkpt lat="49.32332" lon="0.96605">
        <ele>98</ele>
        <time>2019-01-10T10:23:32Z</time>
      </trkpt>
      <trkpt lat="49.32331" lon="0.9659">
        <ele>99</ele>
        <time>2019-01-10T10:23:34Z</time>
      </trkpt>
      <trkpt lat="49.32331" lon="0.96581">
        <ele>99</ele>
        <time>2019-01-10T10:23:35Z</time>
      </trkpt>
      <trkpt lat="49.32332" lon="0.96527">
        <ele>101</ele>
        <time>2019-01-10T10:23:43Z</time>
      </trkpt>
      <trkpt lat="49.32331" lon="0.96479">
        <ele>102</ele>
        <time>2019-01-10T10:23:51Z</time>
      </trkpt>
      <trkpt lat="49.32332" lon="0.96472">
        <ele>102</ele>
        <time>2019-01-10T10:23:52Z</time>
      </trkpt>
      <trkpt lat="49.32341" lon="0.96404">
        <ele>103</ele>
        <time>2019-01-10T10:24:02Z</time>
      </trkpt>
      <trkpt lat="49.3235" lon="0.96357">
        <ele>104</ele>
        <time>2019-01-10T10:24:09Z</time>
      </trkpt>
      <trkpt lat="49.3236" lon="0.96307">
        <ele>106</ele>
        <time>2019-01-10T10:24:16Z</time>
      </trkpt>
      <trkpt lat="49.32361" lon="0.96298">
        <ele>106</ele>
        <time>2019-01-10T10:24:17Z</time>
      </trkpt>
      <trkpt lat="49.32369" lon="0.96241">
        <ele>108</ele>
        <time>2019-01-10T10:24:24Z</time>
      </trkpt>
      <trkpt lat="49.32375" lon="0.96211">
        <ele>108</ele>
        <time>2019-01-10T10:24:28Z</time>
      </trkpt>
      <trkpt lat="49.32376" lon="0.96203">
        <ele>109</ele>
        <time>2019-01-10T10:24:29Z</time>
      </trkpt>
      <trkpt lat="49.32379" lon="0.9619">
        <ele>109</ele>
        <time>2019-01-10T10:24:31Z</time>
      </trkpt>
      <trkpt lat="49.32381" lon="0.96183">
        <ele>109</ele>
        <time>2019-01-10T10:24:32Z</time>
      </trkpt>
      <trkpt lat="49.32392" lon="0.96143">
        <ele>110</ele>
        <time>2019-01-10T10:24:38Z</time>
      </trkpt>
      <trkpt lat="49.32394" lon="0.9613">
        <ele>110</ele>
        <time>2019-01-10T10:24:40Z</time>
      </trkpt>
      <trkpt lat="49.32395" lon="0.96123">
        <ele>110</ele>
        <time>2019-01-10T10:24:41Z</time>
      </trkpt>
      <trkpt lat="49.32401" lon="0.96094">
        <ele>111</ele>
        <time>2019-01-10T10:24:45Z</time>
      </trkpt>
      <trkpt lat="49.32405" lon="0.96082">
        <ele>111</ele>
        <time>2019-01-10T10:24:47Z</time>
      </trkpt>
      <trkpt lat="49.32424" lon="0.96034">
        <ele>111</ele>
        <time>2019-01-10T10:24:55Z</time>
      </trkpt>
      <trkpt lat="49.32425" lon="0.96027">
        <ele>111</ele>
        <time>2019-01-10T10:24:56Z</time>
      </trkpt>
      <trkpt lat="49.32429" lon="0.95982">
        <ele>111</ele>
        <time>2019-01-10T10:25:03Z</time>
      </trkpt>
      <trkpt lat="49.32431" lon="0.95961">
        <ele>111</ele>
        <time>2019-01-10T10:25:06Z</time>
      </trkpt>
      <trkpt lat="49.32435" lon="0.95933">
        <ele>112</ele>
        <time>2019-01-10T10:25:10Z</time>
      </trkpt>
      <trkpt lat="49.32439" lon="0.95895">
        <ele>112</ele>
        <time>2019-01-10T10:25:16Z</time>
      </trkpt>
      <trkpt lat="49.32438" lon="0.95871">
        <ele>111</ele>
        <time>2019-01-10T10:25:21Z</time>
      </trkpt>
      <trkpt lat="49.32442" lon="0.95844">
        <ele>112</ele>
        <time>2019-01-10T10:25:28Z</time>
      </trkpt>
      <trkpt lat="49.32448" lon="0.95815">
        <ele>112</ele>
        <time>2019-01-10T10:25:34Z</time>
      </trkpt>
      <trkpt lat="49.32452" lon="0.95803">
        <ele>113</ele>
        <time>2019-01-10T10:25:36Z</time>
      </trkpt>
      <trkpt lat="49.32455" lon="0.95797">
        <ele>113</ele>
        <time>2019-01-10T10:25:37Z</time>
      </trkpt>
      <trkpt lat="49.32457" lon="0.9579">
        <ele>113</ele>
        <time>2019-01-10T10:25:38Z</time>
      </trkpt>
      <trkpt lat="49.32459" lon="0.95784">
        <ele>113</ele>
        <time>2019-01-10T10:25:39Z</time>
      </trkpt>
      <trkpt lat="49.32461" lon="0.95778">
        <ele>114</ele>
        <time>2019-01-10T10:25:40Z</time>
      </trkpt>
      <trkpt lat="49.32463" lon="0.95772">
        <ele>114</ele>
        <time>2019-01-10T10:25:41Z</time>
      </trkpt>
      <trkpt lat="49.32464" lon="0.95766">
        <ele>114</ele>
        <time>2019-01-10T10:25:42Z</time>
      </trkpt>
      <trkpt lat="49.32466" lon="0.9576">
        <ele>114</ele>
        <time>2019-01-10T10:25:43Z</time>
      </trkpt>
      <trkpt lat="49.32468" lon="0.95754">
        <ele>114</ele>
        <time>2019-01-10T10:25:44Z</time>
      </trkpt>
      <trkpt lat="49.32469" lon="0.95748">
        <ele>114</ele>
        <time>2019-01-10T10:25:45Z</time>
      </trkpt>
      <trkpt lat="49.3247" lon="0.95743">
        <ele>114</ele>
        <time>2019-01-10T10:25:46Z</time>
      </trkpt>
      <trkpt lat="49.32471" lon="0.95738">
        <ele>114</ele>
        <time>2019-01-10T10:25:47Z</time>
      </trkpt>
      <trkpt lat="49.32472" lon="0.95733">
        <ele>114</ele>
        <time>2019-01-10T10:25:48Z</time>
      </trkpt>
      <trkpt lat="49.32474" lon="0.95727">
        <ele>114</ele>
        <time>2019-01-10T10:25:49Z</time>
      </trkpt>
      <trkpt lat="49.32476" lon="0.95721">
        <ele>114</ele>
        <time>2019-01-10T10:25:50Z</time>
      </trkpt>
      <trkpt lat="49.32485" lon="0.95681">
        <ele>115</ele>
        <time>2019-01-10T10:25:57Z</time>
      </trkpt>
      <trkpt lat="49.32492" lon="0.95652">
        <ele>116</ele>
        <time>2019-01-10T10:26:02Z</time>
      </trkpt>
      <trkpt lat="49.32501" lon="0.9562">
        <ele>116</ele>
        <time>2019-01-10T10:26:07Z</time>
      </trkpt>
      <trkpt lat="49.3251" lon="0.95592">
        <ele>116</ele>
        <time>2019-01-10T10:26:12Z</time>
      </trkpt>
      <trkpt lat="49.32516" lon="0.95578">
        <ele>116</ele>
        <time>2019-01-10T10:26:15Z</time>
      </trkpt>
      <trkpt lat="49.32532" lon="0.95538">
        <ele>117</ele>
        <time>2019-01-10T10:26:22Z</time>
      </trkpt>
      <trkpt lat="49.32542" lon="0.95506">
        <ele>117</ele>
        <time>2019-01-10T10:26:27Z</time>
      </trkpt>
      <trkpt lat="49.32557" lon="0.95471">
        <ele>117</ele>
        <time>2019-01-10T10:26:33Z</time>
      </trkpt>
      <trkpt lat="49.32562" lon="0.95459">
        <ele>117</ele>
        <time>2019-01-10T10:26:35Z</time>
      </trkpt>
      <trkpt lat="49.32576" lon="0.95432">
        <ele>116</ele>
        <time>2019-01-10T10:26:40Z</time>
      </trkpt>
      <trkpt lat="49.32581" lon="0.95419">
        <ele>116</ele>
        <time>2019-01-10T10:26:42Z</time>
      </trkpt>
      <trkpt lat="49.32588" lon="0.95394">
        <ele>116</ele>
        <time>2019-01-10T10:26:46Z</time>
      </trkpt>
      <trkpt lat="49.32589" lon="0.95388">
        <ele>116</ele>
        <time>2019-01-10T10:26:47Z</time>
      </trkpt>
      <trkpt lat="49.3259" lon="0.95383">
        <ele>116</ele>
        <time>2019-01-10T10:26:48Z</time>
      </trkpt>
      <trkpt lat="49.32591" lon="0.95376">
        <ele>116</ele>
        <time>2019-01-10T10:26:49Z</time>
      </trkpt>
      <trkpt lat="49.32593" lon="0.95369">
        <ele>115</ele>
        <time>2019-01-10T10:26:50Z</time>
      </trkpt>
      <trkpt lat="49.32595" lon="0.95362">
        <ele>115</ele>
        <time>2019-01-10T10:26:51Z</time>
      </trkpt>
      <trkpt lat="49.32602" lon="0.95339">
        <ele>115</ele>
        <time>2019-01-10T10:26:54Z</time>
      </trkpt>
      <trkpt lat="49.32605" lon="0.9533">
        <ele>115</ele>
        <time>2019-01-10T10:26:55Z</time>
      </trkpt>
      <trkpt lat="49.32611" lon="0.95311">
        <ele>115</ele>
        <time>2019-01-10T10:26:57Z</time>
      </trkpt>
      <trkpt lat="49.32625" lon="0.95274">
        <ele>116</ele>
        <time>2019-01-10T10:27:02Z</time>
      </trkpt>
      <trkpt lat="49.32635" lon="0.95254">
        <ele>116</ele>
        <time>2019-01-10T10:27:05Z</time>
      </trkpt>
      <trkpt lat="49.32663" lon="0.95205">
        <ele>115</ele>
        <time>2019-01-10T10:27:12Z</time>
      </trkpt>
      <trkpt lat="49.32685" lon="0.95166">
        <ele>114</ele>
        <time>2019-01-10T10:27:18Z</time>
      </trkpt>
      <trkpt lat="49.32688" lon="0.95159">
        <ele>114</ele>
        <time>2019-01-10T10:27:19Z</time>
      </trkpt>
      <trkpt lat="49.32697" lon="0.95141">
        <ele>113</ele>
        <time>2019-01-10T10:27:22Z</time>
      </trkpt>
      <trkpt lat="49.32705" lon="0.95122">
        <ele>113</ele>
        <time>2019-01-10T10:27:26Z</time>
      </trkpt>
      <trkpt lat="49.32705" lon="0.95116">
        <ele>113</ele>
        <time>2019-01-10T10:27:27Z</time>
      </trkpt>
      <trkpt lat="49.32704" lon="0.95108">
        <ele>112</ele>
        <time>2019-01-10T10:27:28Z</time>
      </trkpt>
      <trkpt lat="49.32691" lon="0.95059">
        <ele>110</ele>
        <time>2019-01-10T10:27:34Z</time>
      </trkpt>
      <trkpt lat="49.32688" lon="0.95052">
        <ele>110</ele>
        <time>2019-01-10T10:27:35Z</time>
      </trkpt>
      <trkpt lat="49.32686" lon="0.95044">
        <ele>109</ele>
        <time>2019-01-10T10:27:36Z</time>
      </trkpt>
      <trkpt lat="49.3268" lon="0.95021">
        <ele>108</ele>
        <time>2019-01-10T10:27:39Z</time>
      </trkpt>
      <trkpt lat="49.32677" lon="0.95005">
        <ele>108</ele>
        <time>2019-01-10T10:27:41Z</time>
      </trkpt>
      <trkpt lat="49.32676" lon="0.94997">
        <ele>108</ele>
        <time>2019-01-10T10:27:42Z</time>
      </trkpt>
      <trkpt lat="49.32676" lon="0.94989">
        <ele>107</ele>
        <time>2019-01-10T10:27:43Z</time>
      </trkpt>
      <trkpt lat="49.32677" lon="0.9498">
        <ele>107</ele>
        <time>2019-01-10T10:27:44Z</time>
      </trkpt>
      <trkpt lat="49.32678" lon="0.94973">
        <ele>107</ele>
        <time>2019-01-10T10:27:45Z</time>
      </trkpt>
      <trkpt lat="49.32679" lon="0.94964">
        <ele>107</ele>
        <time>2019-01-10T10:27:46Z</time>
      </trkpt>
      <trkpt lat="49.32681" lon="0.94957">
        <ele>107</ele>
        <time>2019-01-10T10:27:47Z</time>
      </trkpt>
      <trkpt lat="49.32701" lon="0.94894">
        <ele>109</ele>
        <time>2019-01-10T10:27:55Z</time>
      </trkpt>
      <trkpt lat="49.32719" lon="0.94836">
        <ele>111</ele>
        <time>2019-01-10T10:28:03Z</time>
      </trkpt>
      <trkpt lat="49.32719" lon="0.94819">
        <ele>111</ele>
        <time>2019-01-10T10:28:07Z</time>
      </trkpt>
      <trkpt lat="49.32718" lon="0.94816">
        <ele>111</ele>
        <time>2019-01-10T10:28:08Z</time>
      </trkpt>
      <trkpt lat="49.32717" lon="0.94814">
        <ele>110</ele>
        <time>2019-01-10T10:28:09Z</time>
      </trkpt>
      <trkpt lat="49.32704" lon="0.94799">
        <ele>109</ele>
        <time>2019-01-10T10:28:14Z</time>
      </trkpt>
      <trkpt lat="49.32701" lon="0.94795">
        <ele>108</ele>
        <time>2019-01-10T10:28:15Z</time>
      </trkpt>
      <trkpt lat="49.32697" lon="0.94789">
        <ele>108</ele>
        <time>2019-01-10T10:28:16Z</time>
      </trkpt>
      <trkpt lat="49.32694" lon="0.94783">
        <ele>107</ele>
        <time>2019-01-10T10:28:17Z</time>
      </trkpt>
      <trkpt lat="49.3269" lon="0.94778">
        <ele>106</ele>
        <time>2019-01-10T10:28:18Z</time>
      </trkpt>
      <trkpt lat="49.32685" lon="0.94774">
        <ele>105</ele>
        <time>2019-01-10T10:28:19Z</time>
      </trkpt>
      <trkpt lat="49.3267" lon="0.94757">
        <ele>102</ele>
        <time>2019-01-10T10:28:23Z</time>
      </trkpt>
      <trkpt lat="49.32667" lon="0.94753">
        <ele>102</ele>
        <time>2019-01-10T10:28:24Z</time>
      </trkpt>
      <trkpt lat="49.32664" lon="0.94748">
        <ele>101</ele>
        <time>2019-01-10T10:28:25Z</time>
      </trkpt>
      <trkpt lat="49.32658" lon="0.94725">
        <ele>100</ele>
        <time>2019-01-10T10:28:30Z</time>
      </trkpt>
      <trkpt lat="49.32657" lon="0.94713">
        <ele>100</ele>
        <time>2019-01-10T10:28:33Z</time>
      </trkpt>
      <trkpt lat="49.32655" lon="0.94709">
        <ele>99</ele>
        <time>2019-01-10T10:28:34Z</time>
      </trkpt>
      <trkpt lat="49.32654" lon="0.94705">
        <ele>99</ele>
        <time>2019-01-10T10:28:35Z</time>
      </trkpt>
      <trkpt lat="49.32648" lon="0.94688">
        <ele>98</ele>
        <time>2019-01-10T10:28:40Z</time>
      </trkpt>
      <trkpt lat="49.32645" lon="0.94671">
        <ele>98</ele>
        <time>2019-01-10T10:28:44Z</time>
      </trkpt>
      <trkpt lat="49.32642" lon="0.94659">
        <ele>98</ele>
        <time>2019-01-10T10:28:46Z</time>
      </trkpt>
      <trkpt lat="49.32636" lon="0.94605">
        <ele>98</ele>
        <time>2019-01-10T10:28:53Z</time>
      </trkpt>
      <trkpt lat="49.32633" lon="0.94567">
        <ele>99</ele>
        <time>2019-01-10T10:28:59Z</time>
      </trkpt>
      <trkpt lat="49.32632" lon="0.94533">
        <ele>99</ele>
        <time>2019-01-10T10:29:05Z</time>
      </trkpt>
      <trkpt lat="49.32631" lon="0.94523">
        <ele>100</ele>
        <time>2019-01-10T10:29:07Z</time>
      </trkpt>
      <trkpt lat="49.32632" lon="0.94487">
        <ele>101</ele>
        <time>2019-01-10T10:29:14Z</time>
      </trkpt>
      <trkpt lat="49.32624" lon="0.9446">
        <ele>100</ele>
        <time>2019-01-10T10:29:19Z</time>
      </trkpt>
      <trkpt lat="49.32621" lon="0.94448">
        <ele>100</ele>
        <time>2019-01-10T10:29:21Z</time>
      </trkpt>
      <trkpt lat="49.32618" lon="0.94423">
        <ele>101</ele>
        <time>2019-01-10T10:29:26Z</time>
      </trkpt>
      <trkpt lat="49.32611" lon="0.94392">
        <ele>101</ele>
        <time>2019-01-10T10:29:32Z</time>
      </trkpt>
      <trkpt lat="49.32607" lon="0.94382">
        <ele>100</ele>
        <time>2019-01-10T10:29:34Z</time>
      </trkpt>
      <trkpt lat="49.32606" lon="0.94368">
        <ele>100</ele>
        <time>2019-01-10T10:29:38Z</time>
      </trkpt>
      <trkpt lat="49.32606" lon="0.94362">
        <ele>100</ele>
        <time>2019-01-10T10:29:40Z</time>
      </trkpt>
      <trkpt lat="49.32597" lon="0.94346">
        <ele>99</ele>
        <time>2019-01-10T10:29:45Z</time>
      </trkpt>
      <trkpt lat="49.32588" lon="0.94322">
        <ele>99</ele>
        <time>2019-01-10T10:29:51Z</time>
      </trkpt>
      <trkpt lat="49.32583" lon="0.94297">
        <ele>100</ele>
        <time>2019-01-10T10:29:57Z</time>
      </trkpt>
      <trkpt lat="49.32577" lon="0.94273">
        <ele>100</ele>
        <time>2019-01-10T10:30:03Z</time>
      </trkpt>
      <trkpt lat="49.32576" lon="0.94269">
        <ele>101</ele>
        <time>2019-01-10T10:30:04Z</time>
      </trkpt>
      <trkpt lat="49.32564" lon="0.94242">
        <ele>101</ele>
        <time>2019-01-10T10:30:10Z</time>
      </trkpt>
      <trkpt lat="49.3255" lon="0.94221">
        <ele>100</ele>
        <time>2019-01-10T10:30:16Z</time>
      </trkpt>
      <trkpt lat="49.32548" lon="0.94217">
        <ele>100</ele>
        <time>2019-01-10T10:30:17Z</time>
      </trkpt>
      <trkpt lat="49.32534" lon="0.94199">
        <ele>99</ele>
        <time>2019-01-10T10:30:22Z</time>
      </trkpt>
      <trkpt lat="49.32526" lon="0.9419">
        <ele>99</ele>
        <time>2019-01-10T10:30:25Z</time>
      </trkpt>
      <trkpt lat="49.3251" lon="0.94171">
        <ele>99</ele>
        <time>2019-01-10T10:30:31Z</time>
      </trkpt>
      <trkpt lat="49.32499" lon="0.94159">
        <ele>99</ele>
        <time>2019-01-10T10:30:35Z</time>
      </trkpt>
      <trkpt lat="49.32491" lon="0.94151">
        <ele>98</ele>
        <time>2019-01-10T10:30:38Z</time>
      </trkpt>
      <trkpt lat="49.32479" lon="0.94142">
        <ele>98</ele>
        <time>2019-01-10T10:30:43Z</time>
      </trkpt>
      <trkpt lat="49.32468" lon="0.94133">
        <ele>97</ele>
        <time>2019-01-10T10:30:47Z</time>
      </trkpt>
      <trkpt lat="49.32466" lon="0.94131">
        <ele>97</ele>
        <time>2019-01-10T10:30:48Z</time>
      </trkpt>
      <trkpt lat="49.32447" lon="0.94112">
        <ele>97</ele>
        <time>2019-01-10T10:30:55Z</time>
      </trkpt>
      <trkpt lat="49.32431" lon="0.94096">
        <ele>97</ele>
        <time>2019-01-10T10:31:00Z</time>
      </trkpt>
      <trkpt lat="49.32403" lon="0.94071">
        <ele>97</ele>
        <time>2019-01-10T10:31:08Z</time>
      </trkpt>
      <trkpt lat="49.32399" lon="0.94067">
        <ele>97</ele>
        <time>2019-01-10T10:31:09Z</time>
      </trkpt>
      <trkpt lat="49.32375" lon="0.94045">
        <ele>96</ele>
        <time>2019-01-10T10:31:15Z</time>
      </trkpt>
      <trkpt lat="49.32371" lon="0.94042">
        <ele>96</ele>
        <time>2019-01-10T10:31:16Z</time>
      </trkpt>
      <trkpt lat="49.3235" lon="0.94026">
        <ele>95</ele>
        <time>2019-01-10T10:31:22Z</time>
      </trkpt>
      <trkpt lat="49.32339" lon="0.94003">
        <ele>96</ele>
        <time>2019-01-10T10:31:28Z</time>
      </trkpt>
      <trkpt lat="49.32333" lon="0.93979">
        <ele>97</ele>
        <time>2019-01-10T10:31:33Z</time>
      </trkpt>
      <trkpt lat="49.32332" lon="0.93955">
        <ele>99</ele>
        <time>2019-01-10T10:31:39Z</time>
      </trkpt>
      <trkpt lat="49.32334" lon="0.93929">
        <ele>101</ele>
        <time>2019-01-10T10:31:44Z</time>
      </trkpt>
      <trkpt lat="49.32334" lon="0.939">
        <ele>101</ele>
        <time>2019-01-10T10:31:50Z</time>
      </trkpt>
      <trkpt lat="49.32335" lon="0.93868">
        <ele>102</ele>
        <time>2019-01-10T10:31:56Z</time>
      </trkpt>
      <trkpt lat="49.32334" lon="0.93852">
        <ele>102</ele>
        <time>2019-01-10T10:31:59Z</time>
      </trkpt>
      <trkpt lat="49.32332" lon="0.93847">
        <ele>102</ele>
        <time>2019-01-10T10:32:00Z</time>
      </trkpt>
      <trkpt lat="49.32326" lon="0.93831">
        <ele>102</ele>
        <time>2019-01-10T10:32:03Z</time>
      </trkpt>
      <trkpt lat="49.32322" lon="0.93828">
        <ele>101</ele>
        <time>2019-01-10T10:32:04Z</time>
      </trkpt>
      <trkpt lat="49.32318" lon="0.93828">
        <ele>101</ele>
        <time>2019-01-10T10:32:05Z</time>
      </trkpt>
      <trkpt lat="49.32315" lon="0.9383">
        <ele>101</ele>
        <time>2019-01-10T10:32:06Z</time>
      </trkpt>
      <trkpt lat="49.32311" lon="0.93834">
        <ele>100</ele>
        <time>2019-01-10T10:32:07Z</time>
      </trkpt>
      <trkpt lat="49.32309" lon="0.9384">
        <ele>100</ele>
        <time>2019-01-10T10:32:08Z</time>
      </trkpt>
      <trkpt lat="49.32308" lon="0.93846">
        <ele>100</ele>
        <time>2019-01-10T10:32:09Z</time>
      </trkpt>
      <trkpt lat="49.32307" lon="0.93853">
        <ele>100</ele>
        <time>2019-01-10T10:32:10Z</time>
      </trkpt>
      <trkpt lat="49.32307" lon="0.93861">
        <ele>99</ele>
        <time>2019-01-10T10:32:11Z</time>
      </trkpt>
      <trkpt lat="49.32307" lon="0.93869">
        <ele>99</ele>
        <time>2019-01-10T10:32:12Z</time>
      </trkpt>
      <trkpt lat="49.32303" lon="0.93919">
        <ele>98</ele>
        <time>2019-01-10T10:32:18Z</time>
      </trkpt>
      <trkpt lat="49.323" lon="0.93938">
        <ele>97</ele>
        <time>2019-01-10T10:32:20Z</time>
      </trkpt>
      <trkpt lat="49.32298" lon="0.93947">
        <ele>97</ele>
        <time>2019-01-10T10:32:21Z</time>
      </trkpt>
      <trkpt lat="49.32295" lon="0.93956">
        <ele>96</ele>
        <time>2019-01-10T10:32:22Z</time>
      </trkpt>
      <trkpt lat="49.32284" lon="0.9399">
        <ele>94</ele>
        <time>2019-01-10T10:32:27Z</time>
      </trkpt>
      <trkpt lat="49.32285" lon="0.93995">
        <ele>94</ele>
        <time>2019-01-10T10:32:28Z</time>
      </trkpt>
      <trkpt lat="49.32287" lon="0.94022">
        <ele>94</ele>
        <time>2019-01-10T10:32:33Z</time>
      </trkpt>
      <trkpt lat="49.32288" lon="0.94043">
        <ele>94</ele>
        <time>2019-01-10T10:32:37Z</time>
      </trkpt>
      <trkpt lat="49.32286" lon="0.94051">
        <ele>94</ele>
        <time>2019-01-10T10:32:40Z</time>
      </trkpt>
      <trkpt lat="49.32279" lon="0.9406">
        <ele>95</ele>
        <time>2019-01-10T10:32:46Z</time>
      </trkpt>
      <trkpt lat="49.32277" lon="0.94061">
        <ele>95</ele>
        <time>2019-01-10T10:32:47Z</time>
      </trkpt>
      <trkpt lat="49.32275" lon="0.94061">
        <ele>95</ele>
        <time>2019-01-10T10:32:48Z</time>
      </trkpt>
      <trkpt lat="49.32273" lon="0.94062">
        <ele>96</ele>
        <time>2019-01-10T10:32:49Z</time>
      </trkpt>
      <trkpt lat="49.3226" lon="0.94069">
        <ele>97</ele>
        <time>2019-01-10T10:32:55Z</time>
      </trkpt>
      <trkpt lat="49.32238" lon="0.94078">
        <ele>99</ele>
        <time>2019-01-10T10:33:02Z</time>
      </trkpt>
      <trkpt lat="49.32213" lon="0.94084">
        <ele>101</ele>
        <time>2019-01-10T10:33:10Z</time>
      </trkpt>
      <trkpt lat="49.32193" lon="0.94092">
        <ele>102</ele>
        <time>2019-01-10T10:33:16Z</time>
      </trkpt>
      <trkpt lat="49.32166" lon="0.941">
        <ele>103</ele>
        <time>2019-01-10T10:33:23Z</time>
      </trkpt>
      <trkpt lat="49.32141" lon="0.94108">
        <ele>104</ele>
        <time>2019-01-10T10:33:30Z</time>
      </trkpt>
      <trkpt lat="49.32121" lon="0.94112">
        <ele>105</ele>
        <time>2019-01-10T10:33:36Z</time>
      </trkpt>
      <trkpt lat="49.32093" lon="0.94121">
        <ele>106</ele>
        <time>2019-01-10T10:33:44Z</time>
      </trkpt>
      <trkpt lat="49.32079" lon="0.94126">
        <ele>107</ele>
        <time>2019-01-10T10:33:49Z</time>
      </trkpt>
      <trkpt lat="49.32051" lon="0.94134">
        <ele>108</ele>
        <time>2019-01-10T10:33:56Z</time>
      </trkpt>
      <trkpt lat="49.32025" lon="0.94142">
        <ele>110</ele>
        <time>2019-01-10T10:34:03Z</time>
      </trkpt>
      <trkpt lat="49.31996" lon="0.9415">
        <ele>111</ele>
        <time>2019-01-10T10:34:11Z</time>
      </trkpt>
      <trkpt lat="49.31979" lon="0.94155">
        <ele>112</ele>
        <time>2019-01-10T10:34:16Z</time>
      </trkpt>
      <trkpt lat="49.31959" lon="0.94162">
        <ele>112</ele>
        <time>2019-01-10T10:34:21Z</time>
      </trkpt>
      <trkpt lat="49.31934" lon="0.94167">
        <ele>111</ele>
        <time>2019-01-10T10:34:27Z</time>
      </trkpt>
      <trkpt lat="49.3191" lon="0.94174">
        <ele>111</ele>
        <time>2019-01-10T10:34:33Z</time>
      </trkpt>
      <trkpt lat="49.31899" lon="0.94185">
        <ele>112</ele>
        <time>2019-01-10T10:34:36Z</time>
      </trkpt>
      <trkpt lat="49.31895" lon="0.94213">
        <ele>115</ele>
        <time>2019-01-10T10:34:42Z</time>
      </trkpt>
      <trkpt lat="49.31892" lon="0.94229">
        <ele>117</ele>
        <time>2019-01-10T10:34:46Z</time>
      </trkpt>
      <trkpt lat="49.3189" lon="0.94233">
        <ele>117</ele>
        <time>2019-01-10T10:34:47Z</time>
      </trkpt>
      <trkpt lat="49.31888" lon="0.94236">
        <ele>117</ele>
        <time>2019-01-10T10:34:48Z</time>
      </trkpt>
      <trkpt lat="49.31885" lon="0.94238">
        <ele>117</ele>
        <time>2019-01-10T10:34:49Z</time>
      </trkpt>
      <trkpt lat="49.31881" lon="0.9424">
        <ele>117</ele>
        <time>2019-01-10T10:34:50Z</time>
      </trkpt>
      <trkpt lat="49.31878" lon="0.94241">
        <ele>117</ele>
        <time>2019-01-10T10:34:51Z</time>
      </trkpt>
      <trkpt lat="49.31875" lon="0.94242">
        <ele>117</ele>
        <time>2019-01-10T10:34:52Z</time>
      </trkpt>
      <trkpt lat="49.31853" lon="0.94238">
        <ele>117</ele>
        <time>2019-01-10T10:34:58Z</time>
      </trkpt>
      <trkpt lat="49.31844" lon="0.94239">
        <ele>117</ele>
        <time>2019-01-10T10:35:01Z</time>
      </trkpt>
      <trkpt lat="49.3184" lon="0.94238">
        <ele>117</ele>
        <time>2019-01-10T10:35:02Z</time>
      </trkpt>
      <trkpt lat="49.31836" lon="0.94239">
        <ele>117</ele>
        <time>2019-01-10T10:35:03Z</time>
      </trkpt>
      <trkpt lat="49.31832" lon="0.94241">
        <ele>117</ele>
        <time>2019-01-10T10:35:04Z</time>
      </trkpt>
      <trkpt lat="49.31829" lon="0.94243">
        <ele>117</ele>
        <time>2019-01-10T10:35:05Z</time>
      </trkpt>
      <trkpt lat="49.31825" lon="0.94244">
        <ele>117</ele>
        <time>2019-01-10T10:35:06Z</time>
      </trkpt>
      <trkpt lat="49.31821" lon="0.94245">
        <ele>117</ele>
        <time>2019-01-10T10:35:07Z</time>
      </trkpt>
      <trkpt lat="49.31799" lon="0.94258">
        <ele>117</ele>
        <time>2019-01-10T10:35:13Z</time>
      </trkpt>
      <trkpt lat="49.31776" lon="0.94272">
        <ele>118</ele>
        <time>2019-01-10T10:35:19Z</time>
      </trkpt>
      <trkpt lat="49.31762" lon="0.94278">
        <ele>118</ele>
        <time>2019-01-10T10:35:22Z</time>
      </trkpt>
      <trkpt lat="49.31757" lon="0.94279">
        <ele>118</ele>
        <time>2019-01-10T10:35:23Z</time>
      </trkpt>
      <trkpt lat="49.31743" lon="0.94279">
        <ele>118</ele>
        <time>2019-01-10T10:35:26Z</time>
      </trkpt>
      <trkpt lat="49.31739" lon="0.94279">
        <ele>118</ele>
        <time>2019-01-10T10:35:27Z</time>
      </trkpt>
      <trkpt lat="49.31734" lon="0.94279">
        <ele>118</ele>
        <time>2019-01-10T10:35:28Z</time>
      </trkpt>
      <trkpt lat="49.3173" lon="0.9428">
        <ele>118</ele>
        <time>2019-01-10T10:35:29Z</time>
      </trkpt>
      <trkpt lat="49.31726" lon="0.9428">
        <ele>118</ele>
        <time>2019-01-10T10:35:30Z</time>
      </trkpt>
      <trkpt lat="49.31722" lon="0.94281">
        <ele>118</ele>
        <time>2019-01-10T10:35:31Z</time>
      </trkpt>
      <trkpt lat="49.31717" lon="0.94282">
        <ele>118</ele>
        <time>2019-01-10T10:35:32Z</time>
      </trkpt>
      <trkpt lat="49.31697" lon="0.94286">
        <ele>118</ele>
        <time>2019-01-10T10:35:36Z</time>
      </trkpt>
      <trkpt lat="49.31692" lon="0.94288">
        <ele>118</ele>
        <time>2019-01-10T10:35:37Z</time>
      </trkpt>
      <trkpt lat="49.31687" lon="0.9429">
        <ele>118</ele>
        <time>2019-01-10T10:35:38Z</time>
      </trkpt>
      <trkpt lat="49.31682" lon="0.94293">
        <ele>118</ele>
        <time>2019-01-10T10:35:39Z</time>
      </trkpt>
      <trkpt lat="49.31678" lon="0.94296">
        <ele>118</ele>
        <time>2019-01-10T10:35:40Z</time>
      </trkpt>
      <trkpt lat="49.31674" lon="0.943">
        <ele>118</ele>
        <time>2019-01-10T10:35:41Z</time>
      </trkpt>
      <trkpt lat="49.3167" lon="0.94303">
        <ele>118</ele>
        <time>2019-01-10T10:35:42Z</time>
      </trkpt>
      <trkpt lat="49.31666" lon="0.94306">
        <ele>118</ele>
        <time>2019-01-10T10:35:43Z</time>
      </trkpt>
      <trkpt lat="49.31661" lon="0.94309">
        <ele>118</ele>
        <time>2019-01-10T10:35:44Z</time>
      </trkpt>
      <trkpt lat="49.31656" lon="0.9431">
        <ele>118</ele>
        <time>2019-01-10T10:35:45Z</time>
      </trkpt>
      <trkpt lat="49.3165" lon="0.94312">
        <ele>118</ele>
        <time>2019-01-10T10:35:46Z</time>
      </trkpt>
      <trkpt lat="49.31618" lon="0.94322">
        <ele>118</ele>
        <time>2019-01-10T10:35:52Z</time>
      </trkpt>
      <trkpt lat="49.31609" lon="0.94327">
        <ele>118</ele>
        <time>2019-01-10T10:35:54Z</time>
      </trkpt>
      <trkpt lat="49.31579" lon="0.94335">
        <ele>117</ele>
        <time>2019-01-10T10:36:00Z</time>
      </trkpt>
      <trkpt lat="49.31574" lon="0.94336">
        <ele>117</ele>
        <time>2019-01-10T10:36:01Z</time>
      </trkpt>
      <trkpt lat="49.31553" lon="0.94336">
        <ele>117</ele>
        <time>2019-01-10T10:36:05Z</time>
      </trkpt>
      <trkpt lat="49.31548" lon="0.94336">
        <ele>117</ele>
        <time>2019-01-10T10:36:06Z</time>
      </trkpt>
      <trkpt lat="49.31508" lon="0.94335">
        <ele>116</ele>
        <time>2019-01-10T10:36:14Z</time>
      </trkpt>
      <trkpt lat="49.31488" lon="0.94334">
        <ele>116</ele>
        <time>2019-01-10T10:36:18Z</time>
      </trkpt>
      <trkpt lat="49.31483" lon="0.94335">
        <ele>116</ele>
        <time>2019-01-10T10:36:19Z</time>
      </trkpt>
      <trkpt lat="49.31465" lon="0.94339">
        <ele>116</ele>
        <time>2019-01-10T10:36:24Z</time>
      </trkpt>
      <trkpt lat="49.31454" lon="0.94337">
        <ele>116</ele>
        <time>2019-01-10T10:36:28Z</time>
      </trkpt>
      <trkpt lat="49.31454" lon="0.94334">
        <ele>116</ele>
        <time>2019-01-10T10:36:29Z</time>
      </trkpt>
      <trkpt lat="49.31454" lon="0.94331">
        <ele>116</ele>
        <time>2019-01-10T10:36:30Z</time>
      </trkpt>
      <trkpt lat="49.31454" lon="0.94328">
        <ele>115</ele>
        <time>2019-01-10T10:36:31Z</time>
      </trkpt>
      <trkpt lat="49.31454" lon="0.94323">
        <ele>115</ele>
        <time>2019-01-10T10:36:32Z</time>
      </trkpt>
      <trkpt lat="49.31452" lon="0.94307">
        <ele>114</ele>
        <time>2019-01-10T10:36:35Z</time>
      </trkpt>
      <trkpt lat="49.3145" lon="0.943">
        <ele>113</ele>
        <time>2019-01-10T10:36:36Z</time>
      </trkpt>
      <trkpt lat="49.31447" lon="0.94295">
        <ele>113</ele>
        <time>2019-01-10T10:36:37Z</time>
      </trkpt>
      <trkpt lat="49.31442" lon="0.9429">
        <ele>112</ele>
        <time>2019-01-10T10:36:38Z</time>
      </trkpt>
      <trkpt lat="49.31437" lon="0.94286">
        <ele>112</ele>
        <time>2019-01-10T10:36:39Z</time>
      </trkpt>
      <trkpt lat="49.31432" lon="0.94283">
        <ele>112</ele>
        <time>2019-01-10T10:36:40Z</time>
      </trkpt>
      <trkpt lat="49.31404" lon="0.94262">
        <ele>110</ele>
        <time>2019-01-10T10:36:45Z</time>
      </trkpt>
      <trkpt lat="49.31361" lon="0.94228">
        <ele>109</ele>
        <time>2019-01-10T10:36:52Z</time>
      </trkpt>
      <trkpt lat="49.31339" lon="0.94209">
        <ele>108</ele>
        <time>2019-01-10T10:36:56Z</time>
      </trkpt>
      <trkpt lat="49.31336" lon="0.94204">
        <ele>108</ele>
        <time>2019-01-10T10:36:57Z</time>
      </trkpt>
      <trkpt lat="49.31334" lon="0.94198">
        <ele>107</ele>
        <time>2019-01-10T10:36:58Z</time>
      </trkpt>
      <trkpt lat="49.31326" lon="0.94169">
        <ele>106</ele>
        <time>2019-01-10T10:37:04Z</time>
      </trkpt>
      <trkpt lat="49.31319" lon="0.94144">
        <ele>108</ele>
        <time>2019-01-10T10:37:10Z</time>
      </trkpt>
      <trkpt lat="49.31311" lon="0.94135">
        <ele>109</ele>
        <time>2019-01-10T10:37:14Z</time>
      </trkpt>
      <trkpt lat="49.31303" lon="0.94132">
        <ele>109</ele>
        <time>2019-01-10T10:37:16Z</time>
      </trkpt>
      <trkpt lat="49.313" lon="0.94131">
        <ele>109</ele>
        <time>2019-01-10T10:37:17Z</time>
      </trkpt>
      <trkpt lat="49.31298" lon="0.94131">
        <ele>109</ele>
        <time>2019-01-10T10:37:18Z</time>
      </trkpt>
      <trkpt lat="49.31296" lon="0.94129">
        <ele>110</ele>
        <time>2019-01-10T10:37:19Z</time>
      </trkpt>
      <trkpt lat="49.31294" lon="0.94127">
        <ele>110</ele>
        <time>2019-01-10T10:37:20Z</time>
      </trkpt>
      <trkpt lat="49.31291" lon="0.94125">
        <ele>110</ele>
        <time>2019-01-10T10:37:21Z</time>
      </trkpt>
      <trkpt lat="49.31288" lon="0.94125">
        <ele>110</ele>
        <time>2019-01-10T10:37:22Z</time>
      </trkpt>
      <trkpt lat="49.31285" lon="0.94126">
        <ele>110</ele>
        <time>2019-01-10T10:37:23Z</time>
      </trkpt>
      <trkpt lat="49.31282" lon="0.94126">
        <ele>110</ele>
        <time>2019-01-10T10:37:24Z</time>
      </trkpt>
      <trkpt lat="49.31279" lon="0.94126">
        <ele>110</ele>
        <time>2019-01-10T10:37:25Z</time>
      </trkpt>
      <trkpt lat="49.31277" lon="0.94124">
        <ele>110</ele>
        <time>2019-01-10T10:37:26Z</time>
      </trkpt>
      <trkpt lat="49.31275" lon="0.94121">
        <ele>110</ele>
        <time>2019-01-10T10:37:27Z</time>
      </trkpt>
      <trkpt lat="49.31273" lon="0.94119">
        <ele>110</ele>
        <time>2019-01-10T10:37:28Z</time>
      </trkpt>
      <trkpt lat="49.3127" lon="0.94117">
        <ele>110</ele>
        <time>2019-01-10T10:37:29Z</time>
      </trkpt>
      <trkpt lat="49.31268" lon="0.94114">
        <ele>110</ele>
        <time>2019-01-10T10:37:30Z</time>
      </trkpt>
      <trkpt lat="49.31268" lon="0.94111">
        <ele>110</ele>
        <time>2019-01-10T10:37:31Z</time>
      </trkpt>
      <trkpt lat="49.31267" lon="0.94108">
        <ele>110</ele>
        <time>2019-01-10T10:37:32Z</time>
      </trkpt>
      <trkpt lat="49.31266" lon="0.94106">
        <ele>110</ele>
        <time>2019-01-10T10:37:33Z</time>
      </trkpt>
      <trkpt lat="49.31265" lon="0.94104">
        <ele>110</ele>
        <time>2019-01-10T10:37:34Z</time>
      </trkpt>
      <trkpt lat="49.31252" lon="0.94088">
        <ele>111</ele>
        <time>2019-01-10T10:37:40Z</time>
      </trkpt>
      <trkpt lat="49.3125" lon="0.94086">
        <ele>111</ele>
        <time>2019-01-10T10:37:41Z</time>
      </trkpt>
      <trkpt lat="49.31248" lon="0.94083">
        <ele>111</ele>
        <time>2019-01-10T10:37:42Z</time>
      </trkpt>
      <trkpt lat="49.31248" lon="0.94079">
        <ele>112</ele>
        <time>2019-01-10T10:37:43Z</time>
      </trkpt>
      <trkpt lat="49.31247" lon="0.94076">
        <ele>112</ele>
        <time>2019-01-10T10:37:44Z</time>
      </trkpt>
      <trkpt lat="49.31247" lon="0.94072">
        <ele>112</ele>
        <time>2019-01-10T10:37:45Z</time>
      </trkpt>
      <trkpt lat="49.31246" lon="0.94068">
        <ele>112</ele>
        <time>2019-01-10T10:37:46Z</time>
      </trkpt>
      <trkpt lat="49.31246" lon="0.94064">
        <ele>112</ele>
        <time>2019-01-10T10:37:47Z</time>
      </trkpt>
      <trkpt lat="49.31246" lon="0.94059">
        <ele>113</ele>
        <time>2019-01-10T10:37:48Z</time>
      </trkpt>
      <trkpt lat="49.31246" lon="0.94055">
        <ele>113</ele>
        <time>2019-01-10T10:37:49Z</time>
      </trkpt>
      <trkpt lat="49.31245" lon="0.9405">
        <ele>113</ele>
        <time>2019-01-10T10:37:50Z</time>
      </trkpt>
      <trkpt lat="49.31244" lon="0.94045">
        <ele>114</ele>
        <time>2019-01-10T10:37:51Z</time>
      </trkpt>
      <trkpt lat="49.31243" lon="0.94041">
        <ele>114</ele>
        <time>2019-01-10T10:37:52Z</time>
      </trkpt>
      <trkpt lat="49.31242" lon="0.94037">
        <ele>114</ele>
        <time>2019-01-10T10:37:53Z</time>
      </trkpt>
      <trkpt lat="49.31242" lon="0.94033">
        <ele>114</ele>
        <time>2019-01-10T10:37:54Z</time>
      </trkpt>
      <trkpt lat="49.31242" lon="0.94028">
        <ele>114</ele>
        <time>2019-01-10T10:37:55Z</time>
      </trkpt>
      <trkpt lat="49.31246" lon="0.9401">
        <ele>115</ele>
        <time>2019-01-10T10:38:00Z</time>
      </trkpt>
      <trkpt lat="49.31246" lon="0.94006">
        <ele>115</ele>
        <time>2019-01-10T10:38:01Z</time>
      </trkpt>
      <trkpt lat="49.31245" lon="0.94001">
        <ele>115</ele>
        <time>2019-01-10T10:38:02Z</time>
      </trkpt>
      <trkpt lat="49.31237" lon="0.93968">
        <ele>116</ele>
        <time>2019-01-10T10:38:09Z</time>
      </trkpt>
      <trkpt lat="49.31231" lon="0.93941">
        <ele>116</ele>
        <time>2019-01-10T10:38:15Z</time>
      </trkpt>
      <trkpt lat="49.31228" lon="0.93906">
        <ele>117</ele>
        <time>2019-01-10T10:38:21Z</time>
      </trkpt>
      <trkpt lat="49.31227" lon="0.93896">
        <ele>117</ele>
        <time>2019-01-10T10:38:23Z</time>
      </trkpt>
      <trkpt lat="49.31227" lon="0.93891">
        <ele>117</ele>
        <time>2019-01-10T10:38:24Z</time>
      </trkpt>
      <trkpt lat="49.31227" lon="0.93885">
        <ele>117</ele>
        <time>2019-01-10T10:38:25Z</time>
      </trkpt>
      <trkpt lat="49.31226" lon="0.9388">
        <ele>117</ele>
        <time>2019-01-10T10:38:26Z</time>
      </trkpt>
      <trkpt lat="49.31226" lon="0.93875">
        <ele>117</ele>
        <time>2019-01-10T10:38:27Z</time>
      </trkpt>
      <trkpt lat="49.31226" lon="0.93869">
        <ele>117</ele>
        <time>2019-01-10T10:38:28Z</time>
      </trkpt>
      <trkpt lat="49.31225" lon="0.93863">
        <ele>118</ele>
        <time>2019-01-10T10:38:29Z</time>
      </trkpt>
      <trkpt lat="49.31224" lon="0.93857">
        <ele>118</ele>
        <time>2019-01-10T10:38:30Z</time>
      </trkpt>
      <trkpt lat="49.31223" lon="0.93851">
        <ele>118</ele>
        <time>2019-01-10T10:38:31Z</time>
      </trkpt>
      <trkpt lat="49.31222" lon="0.93846">
        <ele>118</ele>
        <time>2019-01-10T10:38:32Z</time>
      </trkpt>
      <trkpt lat="49.31219" lon="0.93814">
        <ele>118</ele>
        <time>2019-01-10T10:38:37Z</time>
      </trkpt>
      <trkpt lat="49.31215" lon="0.93781">
        <ele>118</ele>
        <time>2019-01-10T10:38:42Z</time>
      </trkpt>
      <trkpt lat="49.31211" lon="0.93751">
        <ele>118</ele>
        <time>2019-01-10T10:38:47Z</time>
      </trkpt>
      <trkpt lat="49.31208" lon="0.93719">
        <ele>118</ele>
        <time>2019-01-10T10:38:52Z</time>
      </trkpt>
      <trkpt lat="49.31205" lon="0.93683">
        <ele>118</ele>
        <time>2019-01-10T10:38:57Z</time>
      </trkpt>
      <trkpt lat="49.31203" lon="0.93667">
        <ele>119</ele>
        <time>2019-01-10T10:38:59Z</time>
      </trkpt>
      <trkpt lat="49.31197" lon="0.93627">
        <ele>119</ele>
        <time>2019-01-10T10:39:05Z</time>
      </trkpt>
      <trkpt lat="49.31198" lon="0.93622">
        <ele>119</ele>
        <time>2019-01-10T10:39:06Z</time>
      </trkpt>
      <trkpt lat="49.31197" lon="0.93616">
        <ele>119</ele>
        <time>2019-01-10T10:39:07Z</time>
      </trkpt>
      <trkpt lat="49.31197" lon="0.93609">
        <ele>119</ele>
        <time>2019-01-10T10:39:08Z</time>
      </trkpt>
      <trkpt lat="49.31197" lon="0.93601">
        <ele>119</ele>
        <time>2019-01-10T10:39:09Z</time>
      </trkpt>
      <trkpt lat="49.31196" lon="0.93594">
        <ele>119</ele>
        <time>2019-01-10T10:39:10Z</time>
      </trkpt>
      <trkpt lat="49.31195" lon="0.93585">
        <ele>119</ele>
        <time>2019-01-10T10:39:11Z</time>
      </trkpt>
      <trkpt lat="49.31195" lon="0.93577">
        <ele>119</ele>
        <time>2019-01-10T10:39:12Z</time>
      </trkpt>
      <trkpt lat="49.31194" lon="0.9357">
        <ele>119</ele>
        <time>2019-01-10T10:39:13Z</time>
      </trkpt>
      <trkpt lat="49.31193" lon="0.93563">
        <ele>119</ele>
        <time>2019-01-10T10:39:14Z</time>
      </trkpt>
      <trkpt lat="49.31192" lon="0.93556">
        <ele>119</ele>
        <time>2019-01-10T10:39:15Z</time>
      </trkpt>
      <trkpt lat="49.3119" lon="0.93547">
        <ele>120</ele>
        <time>2019-01-10T10:39:16Z</time>
      </trkpt>
      <trkpt lat="49.3119" lon="0.93539">
        <ele>120</ele>
        <time>2019-01-10T10:39:17Z</time>
      </trkpt>
      <trkpt lat="49.31189" lon="0.93531">
        <ele>120</ele>
        <time>2019-01-10T10:39:18Z</time>
      </trkpt>
      <trkpt lat="49.31187" lon="0.93523">
        <ele>120</ele>
        <time>2019-01-10T10:39:19Z</time>
      </trkpt>
      <trkpt lat="49.31185" lon="0.93515">
        <ele>120</ele>
        <time>2019-01-10T10:39:20Z</time>
      </trkpt>
      <trkpt lat="49.31184" lon="0.93506">
        <ele>120</ele>
        <time>2019-01-10T10:39:21Z</time>
      </trkpt>
      <trkpt lat="49.31183" lon="0.93499">
        <ele>120</ele>
        <time>2019-01-10T10:39:22Z</time>
      </trkpt>
      <trkpt lat="49.31181" lon="0.93492">
        <ele>121</ele>
        <time>2019-01-10T10:39:23Z</time>
      </trkpt>
      <trkpt lat="49.31179" lon="0.93485">
        <ele>121</ele>
        <time>2019-01-10T10:39:24Z</time>
      </trkpt>
      <trkpt lat="49.31178" lon="0.93477">
        <ele>121</ele>
        <time>2019-01-10T10:39:25Z</time>
      </trkpt>
      <trkpt lat="49.31176" lon="0.93468">
        <ele>121</ele>
        <time>2019-01-10T10:39:26Z</time>
      </trkpt>
      <trkpt lat="49.31174" lon="0.93459">
        <ele>121</ele>
        <time>2019-01-10T10:39:27Z</time>
      </trkpt>
      <trkpt lat="49.31171" lon="0.93451">
        <ele>121</ele>
        <time>2019-01-10T10:39:28Z</time>
      </trkpt>
      <trkpt lat="49.31169" lon="0.93445">
        <ele>122</ele>
        <time>2019-01-10T10:39:29Z</time>
      </trkpt>
      <trkpt lat="49.31166" lon="0.93436">
        <ele>122</ele>
        <time>2019-01-10T10:39:30Z</time>
      </trkpt>
      <trkpt lat="49.31164" lon="0.93428">
        <ele>122</ele>
        <time>2019-01-10T10:39:31Z</time>
      </trkpt>
      <trkpt lat="49.31162" lon="0.93419">
        <ele>122</ele>
        <time>2019-01-10T10:39:32Z</time>
      </trkpt>
      <trkpt lat="49.3116" lon="0.9341">
        <ele>122</ele>
        <time>2019-01-10T10:39:33Z</time>
      </trkpt>
      <trkpt lat="49.31159" lon="0.934">
        <ele>122</ele>
        <time>2019-01-10T10:39:34Z</time>
      </trkpt>
      <trkpt lat="49.31156" lon="0.93391">
        <ele>123</ele>
        <time>2019-01-10T10:39:35Z</time>
      </trkpt>
      <trkpt lat="49.31153" lon="0.93382">
        <ele>123</ele>
        <time>2019-01-10T10:39:36Z</time>
      </trkpt>
      <trkpt lat="49.31151" lon="0.93373">
        <ele>123</ele>
        <time>2019-01-10T10:39:37Z</time>
      </trkpt>
      <trkpt lat="49.3115" lon="0.93363">
        <ele>123</ele>
        <time>2019-01-10T10:39:38Z</time>
      </trkpt>
      <trkpt lat="49.31147" lon="0.93348">
        <ele>123</ele>
        <time>2019-01-10T10:39:40Z</time>
      </trkpt>
      <trkpt lat="49.31145" lon="0.93341">
        <ele>124</ele>
        <time>2019-01-10T10:39:41Z</time>
      </trkpt>
      <trkpt lat="49.31143" lon="0.93335">
        <ele>124</ele>
        <time>2019-01-10T10:39:42Z</time>
      </trkpt>
      <trkpt lat="49.31141" lon="0.93327">
        <ele>124</ele>
        <time>2019-01-10T10:39:43Z</time>
      </trkpt>
      <trkpt lat="49.31139" lon="0.93318">
        <ele>124</ele>
        <time>2019-01-10T10:39:44Z</time>
      </trkpt>
      <trkpt lat="49.31137" lon="0.93309">
        <ele>124</ele>
        <time>2019-01-10T10:39:45Z</time>
      </trkpt>
      <trkpt lat="49.31135" lon="0.933">
        <ele>124</ele>
        <time>2019-01-10T10:39:46Z</time>
      </trkpt>
      <trkpt lat="49.31125" lon="0.93249">
        <ele>125</ele>
        <time>2019-01-10T10:39:52Z</time>
      </trkpt>
      <trkpt lat="49.31118" lon="0.93206">
        <ele>126</ele>
        <time>2019-01-10T10:39:57Z</time>
      </trkpt>
      <trkpt lat="49.31118" lon="0.93198">
        <ele>126</ele>
        <time>2019-01-10T10:39:58Z</time>
      </trkpt>
      <trkpt lat="49.31118" lon="0.93189">
        <ele>126</ele>
        <time>2019-01-10T10:39:59Z</time>
      </trkpt>
      <trkpt lat="49.31118" lon="0.93153">
        <ele>125</ele>
        <time>2019-01-10T10:40:04Z</time>
      </trkpt>
      <trkpt lat="49.31113" lon="0.93121">
        <ele>125</ele>
        <time>2019-01-10T10:40:08Z</time>
      </trkpt>
      <trkpt lat="49.31103" lon="0.93089">
        <ele>124</ele>
        <time>2019-01-10T10:40:12Z</time>
      </trkpt>
      <trkpt lat="49.31101" lon="0.93081">
        <ele>124</ele>
        <time>2019-01-10T10:40:13Z</time>
      </trkpt>
      <trkpt lat="49.31099" lon="0.93075">
        <ele>124</ele>
        <time>2019-01-10T10:40:14Z</time>
      </trkpt>
      <trkpt lat="49.31092" lon="0.93045">
        <ele>124</ele>
        <time>2019-01-10T10:40:18Z</time>
      </trkpt>
      <trkpt lat="49.31091" lon="0.93036">
        <ele>124</ele>
        <time>2019-01-10T10:40:19Z</time>
      </trkpt>
      <trkpt lat="49.31089" lon="0.93028">
        <ele>124</ele>
        <time>2019-01-10T10:40:20Z</time>
      </trkpt>
      <trkpt lat="49.31088" lon="0.93019">
        <ele>124</ele>
        <time>2019-01-10T10:40:21Z</time>
      </trkpt>
      <trkpt lat="49.31086" lon="0.9301">
        <ele>124</ele>
        <time>2019-01-10T10:40:22Z</time>
      </trkpt>
      <trkpt lat="49.31084" lon="0.93001">
        <ele>124</ele>
        <time>2019-01-10T10:40:23Z</time>
      </trkpt>
      <trkpt lat="49.31082" lon="0.92993">
        <ele>124</ele>
        <time>2019-01-10T10:40:24Z</time>
      </trkpt>
      <trkpt lat="49.3108" lon="0.92984">
        <ele>123</ele>
        <time>2019-01-10T10:40:25Z</time>
      </trkpt>
      <trkpt lat="49.31078" lon="0.92974">
        <ele>123</ele>
        <time>2019-01-10T10:40:26Z</time>
      </trkpt>
      <trkpt lat="49.31076" lon="0.92965">
        <ele>123</ele>
        <time>2019-01-10T10:40:27Z</time>
      </trkpt>
      <trkpt lat="49.31074" lon="0.92957">
        <ele>123</ele>
        <time>2019-01-10T10:40:28Z</time>
      </trkpt>
      <trkpt lat="49.31068" lon="0.9294">
        <ele>123</ele>
        <time>2019-01-10T10:40:30Z</time>
      </trkpt>
      <trkpt lat="49.31065" lon="0.92932">
        <ele>123</ele>
        <time>2019-01-10T10:40:31Z</time>
      </trkpt>
      <trkpt lat="49.31063" lon="0.92924">
        <ele>123</ele>
        <time>2019-01-10T10:40:32Z</time>
      </trkpt>
      <trkpt lat="49.31057" lon="0.92898">
        <ele>123</ele>
        <time>2019-01-10T10:40:35Z</time>
      </trkpt>
      <trkpt lat="49.31051" lon="0.92872">
        <ele>122</ele>
        <time>2019-01-10T10:40:38Z</time>
      </trkpt>
      <trkpt lat="49.31049" lon="0.92864">
        <ele>122</ele>
        <time>2019-01-10T10:40:39Z</time>
      </trkpt>
      <trkpt lat="49.31048" lon="0.92856">
        <ele>122</ele>
        <time>2019-01-10T10:40:40Z</time>
      </trkpt>
      <trkpt lat="49.31046" lon="0.92848">
        <ele>122</ele>
        <time>2019-01-10T10:40:41Z</time>
      </trkpt>
      <trkpt lat="49.31044" lon="0.9284">
        <ele>122</ele>
        <time>2019-01-10T10:40:42Z</time>
      </trkpt>
      <trkpt lat="49.31042" lon="0.92824">
        <ele>122</ele>
        <time>2019-01-10T10:40:44Z</time>
      </trkpt>
      <trkpt lat="49.31035" lon="0.92777">
        <ele>122</ele>
        <time>2019-01-10T10:40:51Z</time>
      </trkpt>
      <trkpt lat="49.31031" lon="0.92767">
        <ele>122</ele>
        <time>2019-01-10T10:40:54Z</time>
      </trkpt>
      <trkpt lat="49.31024" lon="0.92761">
        <ele>122</ele>
        <time>2019-01-10T10:40:57Z</time>
      </trkpt>
      <trkpt lat="49.31021" lon="0.9276">
        <ele>122</ele>
        <time>2019-01-10T10:40:58Z</time>
      </trkpt>
      <trkpt lat="49.31017" lon="0.92759">
        <ele>122</ele>
        <time>2019-01-10T10:40:59Z</time>
      </trkpt>
      <trkpt lat="49.31014" lon="0.92757">
        <ele>122</ele>
        <time>2019-01-10T10:41:00Z</time>
      </trkpt>
      <trkpt lat="49.31011" lon="0.92756">
        <ele>122</ele>
        <time>2019-01-10T10:41:01Z</time>
      </trkpt>
      <trkpt lat="49.30983" lon="0.92759">
        <ele>122</ele>
        <time>2019-01-10T10:41:07Z</time>
      </trkpt>
      <trkpt lat="49.30952" lon="0.92768">
        <ele>123</ele>
        <time>2019-01-10T10:41:13Z</time>
      </trkpt>
      <trkpt lat="49.30947" lon="0.92769">
        <ele>123</ele>
        <time>2019-01-10T10:41:14Z</time>
      </trkpt>
      <trkpt lat="49.30894" lon="0.92786">
        <ele>124</ele>
        <time>2019-01-10T10:41:24Z</time>
      </trkpt>
      <trkpt lat="49.30859" lon="0.92796">
        <ele>125</ele>
        <time>2019-01-10T10:41:31Z</time>
      </trkpt>
      <trkpt lat="49.30815" lon="0.92809">
        <ele>126</ele>
        <time>2019-01-10T10:41:39Z</time>
      </trkpt>
      <trkpt lat="49.30771" lon="0.92825">
        <ele>127</ele>
        <time>2019-01-10T10:41:47Z</time>
      </trkpt>
      <trkpt lat="49.30708" lon="0.92846">
        <ele>129</ele>
        <time>2019-01-10T10:41:58Z</time>
      </trkpt>
      <trkpt lat="49.30657" lon="0.92863">
        <ele>131</ele>
        <time>2019-01-10T10:42:07Z</time>
      </trkpt>
      <trkpt lat="49.30605" lon="0.92881">
        <ele>133</ele>
        <time>2019-01-10T10:42:16Z</time>
      </trkpt>
      <trkpt lat="49.30549" lon="0.929">
        <ele>136</ele>
        <time>2019-01-10T10:42:26Z</time>
      </trkpt>
      <trkpt lat="49.30496" lon="0.92917">
        <ele>137</ele>
        <time>2019-01-10T10:42:35Z</time>
      </trkpt>
      <trkpt lat="49.30439" lon="0.92936">
        <ele>138</ele>
        <time>2019-01-10T10:42:45Z</time>
      </trkpt>
      <trkpt lat="49.304" lon="0.92949">
        <ele>139</ele>
        <time>2019-01-10T10:42:52Z</time>
      </trkpt>
      <trkpt lat="49.30352" lon="0.92965">
        <ele>139</ele>
        <time>2019-01-10T10:43:01Z</time>
      </trkpt>
      <trkpt lat="49.30347" lon="0.92967">
        <ele>139</ele>
        <time>2019-01-10T10:43:02Z</time>
      </trkpt>
      <trkpt lat="49.30302" lon="0.92982">
        <ele>140</ele>
        <time>2019-01-10T10:43:10Z</time>
      </trkpt>
      <trkpt lat="49.30243" lon="0.93001">
        <ele>141</ele>
        <time>2019-01-10T10:43:20Z</time>
      </trkpt>
      <trkpt lat="49.30191" lon="0.93019">
        <ele>141</ele>
        <time>2019-01-10T10:43:29Z</time>
      </trkpt>
      <trkpt lat="49.30121" lon="0.93042">
        <ele>141</ele>
        <time>2019-01-10T10:43:41Z</time>
      </trkpt>
      <trkpt lat="49.30095" lon="0.93048">
        <ele>140</ele>
        <time>2019-01-10T10:43:46Z</time>
      </trkpt>
      <trkpt lat="49.3009" lon="0.93046">
        <ele>140</ele>
        <time>2019-01-10T10:43:47Z</time>
      </trkpt>
      <trkpt lat="49.30087" lon="0.9304">
        <ele>140</ele>
        <time>2019-01-10T10:43:48Z</time>
      </trkpt>
      <trkpt lat="49.30085" lon="0.93035">
        <ele>140</ele>
        <time>2019-01-10T10:43:49Z</time>
      </trkpt>
      <trkpt lat="49.30084" lon="0.93028">
        <ele>140</ele>
        <time>2019-01-10T10:43:50Z</time>
      </trkpt>
      <trkpt lat="49.30082" lon="0.93011">
        <ele>140</ele>
        <time>2019-01-10T10:43:52Z</time>
      </trkpt>
      <trkpt lat="49.30081" lon="0.93007">
        <ele>140</ele>
        <time>2019-01-10T10:43:53Z</time>
      </trkpt>
      <trkpt lat="49.3008" lon="0.93002">
        <ele>140</ele>
        <time>2019-01-10T10:43:54Z</time>
      </trkpt>
      <trkpt lat="49.30079" lon="0.92997">
        <ele>140</ele>
        <time>2019-01-10T10:43:55Z</time>
      </trkpt>
      <trkpt lat="49.30077" lon="0.92984">
        <ele>140</ele>
        <time>2019-01-10T10:43:56Z</time>
      </trkpt>
      <trkpt lat="49.30038" lon="0.92988">
        <ele>140</ele>
        <time>2019-01-10T10:43:57Z</time>
      </trkpt>
      <trkpt lat="49.29989" lon="0.92997">
        <ele>140</ele>
      </trkpt>
      <trkpt lat="49.29915" lon="0.92926">
        <ele>139</ele>
      </trkpt>
      <trkpt lat="49.29844" lon="0.92865">
        <ele>138</ele>
      </trkpt>
      <trkpt lat="49.29808" lon="0.92838">
        <ele>138</ele>
      </trkpt>
      <trkpt lat="49.29795" lon="0.9284">
        <ele>138</ele>
      </trkpt>
      <trkpt lat="49.29771" lon="0.9288">
        <ele>137</ele>
      </trkpt>
      <trkpt lat="49.2974" lon="0.92885">
        <ele>137</ele>
      </trkpt>
      <trkpt lat="49.29701" lon="0.92821">
        <ele>137</ele>
      </trkpt>
      <trkpt lat="49.29616" lon="0.92734">
        <ele>137</ele>
      </trkpt>
      <trkpt lat="49.29562" lon="0.92734">
        <ele>136</ele>
      </trkpt>
      <trkpt lat="49.29431" lon="0.92771">
        <ele>135</ele>
      </trkpt>
      <trkpt lat="49.29339" lon="0.92793">
        <ele>137</ele>
      </trkpt>
      <trkpt lat="49.29342" lon="0.92581">
        <ele>137.389999</ele>
      </trkpt>
      <trkpt lat="49.29331" lon="0.92469">
        <ele>138.549377</ele>
      </trkpt>
      <trkpt lat="49.29314" lon="0.92406">
        <ele>139</ele>
      </trkpt>
      <trkpt lat="49.29258" lon="0.92439">
        <ele>139.024368</ele>
      </trkpt>
      <trkpt lat="49.29221" lon="0.92464">
        <ele>139</ele>
      </trkpt>
      <trkpt lat="49.29094" lon="0.92543">
        <ele>139.936813</ele>
      </trkpt>
      <trkpt lat="49.29089" lon="0.92514">
        <ele>139.990005</ele>
      </trkpt>
      <trkpt lat="49.29003" lon="0.92352">
        <ele>144</ele>
        <time>2019-01-10T10:44:01Z</time>
      </trkpt>
    </trkseg>
  </trk>
</gpx>